[[{"header":{"parameterUnit":"m.s-1","parameterCategory":1,"la1":31.0,"la2":29.5877,"lo1":-88.7671,"lo2":-86.6584,"dy":0.0162,"dx":0.0185,"nx":115,"ny":88,"refTime":"2024-02-09T06:00:00:Z","depth":0,"parameterNumber":2,"parameterNumberName":"U-component_of_WINDS"},"data":[0.0,0.0,0.0,0.0,0.0,0.0,0.0,0.0,0.0,0.0,0.0,0.0,0.0,0.0,0.0,0.0,0.0,0.0,0.0,0.0,0.0,0.0,0.0,0.0,0.0,0.0,0.0,0.0,0.0,0.0,0.0,0.0,0.0,0.0,0.0,0.0,0.0,0.0,0.0,0.0,0.0,0.0,0.0,0.0,0.0,0.0,0.0,0.0,0.0,0.0,0.0,0.0,0.0,0.0,0.0,0.0,0.0,0.0,0.0,0.0,0.0,0.0,0.0,0.0,0.0,0.0,0.0,0.0,0.0,0.0,0.0,0.0,0.0,0.0,0.0,0.0,0.0,0.0,0.0,0.0,0.0,0.0,0.0,0.0,0.0,0.0,0.0,0.0,0.0,0.0,0.0,0.0,0.0,0.0,0.0,0.0,0.0,0.0,0.0,0.0,0.0,0.0,0.0,0.0,0.0,0.0,0.0,0.0,0.0,0.0,0.0,0.0,0.0,0.0,0.0,0.0,0.0,0.0,0.0,0.0,0.0,0.0,0.0,0.0,0.0,0.0,0.0,0.0,0.0,0.0,0.0,0.0,0.0,0.0,0.0,0.0,0.0,0.0,0.0,0.0,0.0,0.0,0.0,0.0,0.0,0.0,0.0,0.0,0.0,0.0,0.0,0.0,0.0,0.0,0.0,0.0,0.0,0.0,0.0,0.0,0.0,0.0,0.0,0.0,0.0,0.0,0.0,0.0,0.0,0.0,0.0,0.0,0.0,0.0,0.0,0.0,0.0,0.0,0.0,0.0,0.0,0.0,0.0,0.0,0.0,0.0,0.0,0.0,0.0,0.0,0.0,0.0,0.0,0.0,0.0,0.0,0.0,0.0,0.0,0.0,0.0,0.0,0.0,0.0,0.0,0.0,0.0,0.0,0.0,0.0,0.0,0.0,0.0,0.0,0.0,0.0,0.0,0.0,0.0,0.0,0.0,0.0,0.0,0.0,0.0,0.0,0.0,0.0,0.0,0.0,0.0,0.0,0.0,0.0,0.0,0.0,0.0,0.0,0.0,0.0,0.0,0.0,0.0,0.0,0.0,0.0,0.0,0.0,0.0,0.0,0.0,0.0,0.0,0.0,0.0,0.0,0.0,0.0,0.0,0.0,0.0,0.0,0.0,0.0,0.0,0.0,0.0,0.0,0.0,0.0,0.0,0.0,0.0,0.0,0.0,0.0,0.0,0.0,0.0,0.0,0.0,0.0,0.0,0.0,0.0,0.0,0.0,0.0,0.0,0.0,0.0,0.0,0.0,0.0,0.0,0.0,0.0,0.0,0.0,0.0,0.0,0.0,0.0,0.0,0.0,0.0,0.0,0.0,0.0,0.0,0.0,0.0,0.0,0.0,0.0,0.0,0.0,0.0,0.0,0.0,0.0,0.0,0.0,0.0,0.0,0.0,0.0,0.0,0.0,0.0,0.0,0.0,0.0,0.0,0.0,0.0,0.0,0.0,0.0,0.0,0.0,0.0,0.0,0.0,0.0,0.0,0.0,0.0,0.0,0.0,0.0,0.0,0.0,0.0,0.0,0.0,0.0,0.0,0.0,0.0,0.0,0.0,0.0,0.0,0.0,0.0,0.0,0.0,0.0,0.0,0.0,0.0,0.0,0.0,0.0,0.0,0.0,0.0,0.0,0.0,0.0,0.0,0.0,0.0,0.0,0.0,0.0,0.0,0.0,0.0,0.0,0.0,0.0,0.0,0.0,0.0,0.0,0.0,0.0,0.0,0.0,0.0,0.0,0.0,0.0,0.0,0.0,0.0,0.0,0.0,0.0,0.0,0.0,0.0,0.0,0.0,0.0,0.0,0.0,0.0,0.0,0.0,0.0,0.0,0.0,0.0,0.0,0.0,0.0,0.0,0.0,0.0,0.0,0.0,0.0,0.0,0.0,0.0,0.0,0.0,0.0,0.0,0.0,0.0,0.0,0.0,0.0,0.0,0.0,0.0,0.0,0.0,0.0,0.0,0.0,0.0,0.0,0.0,0.0,0.0,0.0,0.0,0.0,0.0,0.0,0.0,0.0,0.0,0.0,0.0,0.0,0.0,0.0,0.0,0.0,0.0,0.0,0.0,0.0,0.0,0.0,0.0,0.0,0.0,0.0,0.0,0.0,0.0,0.0,0.0,0.0,0.0,0.0,0.0,0.0,0.0,0.0,0.0,0.0,0.0,0.0,0.0,0.0,0.0,0.0,0.0,0.0,0.0,0.0,0.0,0.0,0.0,0.0,0.0,0.0,0.0,0.0,0.0,0.0,0.0,0.0,0.0,0.0,0.0,0.0,0.0,0.0,0.0,0.0,0.0,0.0,0.0,0.0,0.0,0.0,0.0,0.0,0.0,0.0,0.0,0.0,0.0,0.0,0.0,0.0,0.0,0.0,0.0,0.0,0.0,0.0,0.0,0.0,0.0,0.0,0.0,0.0,0.0,0.0,0.0,0.0,0.0,0.0,0.0,0.0,0.0,0.0,0.0,0.0,0.0,0.0,0.0,0.0,0.0,0.0,0.0,0.0,0.0,0.0,0.0,0.0,0.0,0.0,0.0,0.0,0.0,0.0,0.0,0.0,0.0,0.0,0.0,0.0,0.0,0.0,0.0,0.0,0.0,0.0,0.0,0.0,0.0,0.0,0.0,0.0,0.0,0.0,0.0,0.0,0.0,0.0,0.0,0.0,0.0,0.0,0.0,0.0,0.0,0.0,0.0,0.0,0.0,0.0,0.0,0.0,0.0,0.0,0.0,0.0,0.0,0.0,0.0,0.0,0.0,0.0,0.0,0.0,0.0,0.0,0.0,0.0,0.0,0.0,0.0,0.0,0.0,0.0,0.0,0.0,0.0,0.0,0.0,0.0,0.0,0.0,0.0,0.0,0.0,0.0,0.0,0.0,0.0,0.0,0.0,0.0,0.0,0.0,0.0,0.0,0.0,0.0,0.0,0.0,0.0,0.0,0.0,0.0,0.0,0.0,0.0,0.0,0.0,0.0,0.0,0.0,0.0,0.0,0.0,0.0,0.0,0.0,0.0,0.0,0.0,0.0,0.0,0.0,0.0,0.0,0.0,0.0,0.0,0.0,0.0,0.0,0.0,0.0,0.0,0.0,0.0,0.0,0.0,0.0,0.0,0.0,0.0,0.0,0.0,0.0,0.0,0.0,0.0,0.0,0.0,0.0,0.0,0.0,0.0,0.0,0.0,0.0,0.0,0.0,0.0,0.0,0.0,0.0,0.0,0.0,0.0,0.0,0.0,0.0,0.0,0.0,0.0,0.0,0.0,0.0,0.0,0.0,0.0,0.0,0.0,0.0,0.0,0.0,0.0,0.0,0.0,0.0,0.0,0.0,0.0,0.0,0.0,0.0,0.0,0.0,0.0,0.0,0.0,0.0,0.0,0.0,0.0,0.0,0.0,0.0,0.0,0.0,0.0,0.0,0.0,0.0,0.0,0.0,0.0,0.0,0.0,0.0,0.0,0.0,0.0,0.0,0.0,0.0,0.0,0.0,0.0,0.0,0.0,0.0,0.0,0.0,0.0,0.0,0.0,0.0,0.0,0.0,0.0,0.0,0.0,0.0,0.0,0.0,0.0,0.0,0.0,0.0,0.0,0.0,0.0,0.0,0.0,0.0,0.0,0.0,0.0,0.0,0.0,0.0,0.0,0.0,0.0,0.0,0.0,0.0,0.0,0.0,0.0,0.0,0.0,0.0,0.0,0.0,0.0,0.0,0.0,0.0,0.0,0.0,0.0,0.0,0.0,0.0,0.0,0.0,0.0,0.0,0.0,0.0,0.0,0.0,0.0,0.0,0.0,0.0,0.0,0.0,0.0,0.0,0.0,0.0,0.0,0.0,0.0,0.0,0.0,0.0,0.0,0.0,0.0,0.0,0.0,0.0,0.0,0.0,0.0,0.0,0.0,0.0,0.0,0.0,0.0,0.0,0.0,0.0,0.0,0.0,0.0,0.0,0.0,0.0,0.0,0.0,0.0,0.0,0.0,0.0,0.0,0.0,0.0,0.0,0.0,0.0,0.0,0.0,0.0,0.0,0.0,0.0,0.0,0.0,0.0,0.0,0.0,0.0,0.0,0.0,0.0,0.0,0.0,0.0,0.0,0.0,0.0,0.0,0.0,0.0,0.0,0.0,0.0,0.0,0.0,0.0,0.0,0.0,0.0,0.0,0.0,0.0,0.0,0.0,0.0,0.0,0.0,0.0,0.0,0.0,0.0,0.0,0.0,0.0,0.0,2.3148,0.0,0.0,0.0,0.0,0.0,0.0,0.0,0.0,0.0,0.0,0.0,0.0,0.0,0.0,0.0,0.0,0.0,0.0,0.0,0.0,0.0,0.0,0.0,0.0,0.0,0.0,0.0,0.0,0.0,0.0,0.0,0.0,0.0,0.0,0.0,0.0,0.0,0.0,0.0,0.0,0.0,0.0,0.0,0.0,0.0,0.0,0.0,0.0,0.0,0.0,0.0,0.0,0.0,0.0,0.0,0.0,0.0,0.0,0.0,0.0,0.0,0.0,0.0,0.0,0.0,0.0,0.0,0.0,0.0,0.0,0.0,0.0,0.0,0.0,0.0,0.0,0.0,0.0,0.0,0.0,0.0,0.0,0.0,0.0,0.0,0.0,0.0,0.0,0.0,0.0,0.0,0.0,0.0,0.0,0.0,0.0,0.0,0.0,0.0,0.0,0.0,0.0,0.0,0.0,0.0,0.0,0.0,0.0,0.0,0.0,2.4441,2.4287,2.401,2.3671,2.3332,0.0,0.0,0.0,0.0,0.0,0.0,0.0,0.0,0.0,0.0,0.0,0.0,0.0,0.0,0.0,0.0,0.0,0.0,0.0,0.0,0.0,0.0,0.0,0.0,0.0,0.0,0.0,0.0,0.0,0.0,0.0,0.0,0.0,0.0,0.0,0.0,0.0,0.0,0.0,0.0,0.0,0.0,0.0,0.0,0.0,0.0,0.0,0.0,0.0,0.0,0.0,0.0,0.0,0.0,0.0,0.0,0.0,0.0,0.0,0.0,0.0,0.0,0.0,0.0,0.0,0.0,0.0,0.0,0.0,0.0,0.0,0.0,0.0,0.0,0.0,0.0,0.0,0.0,0.0,0.0,0.0,0.0,0.0,0.0,0.0,0.0,0.0,0.0,0.0,0.0,0.0,0.0,0.0,0.0,0.0,0.0,0.0,0.0,0.0,0.0,0.0,0.0,0.0,0.0,0.0,0.0,0.0,0.0,0.0,0.0,0.0,0.0,2.4995,2.4748,2.4287,0.0,0.0,0.0,0.0,0.0,0.0,0.0,0.0,0.0,0.0,0.0,0.0,0.0,0.0,0.0,0.0,0.0,0.0,0.0,0.0,0.0,0.0,0.0,0.0,0.0,0.0,0.0,0.0,0.0,0.0,0.0,0.0,0.0,0.0,0.0,0.0,0.0,0.0,0.0,0.0,0.0,0.0,0.0,0.0,0.0,0.0,0.0,0.0,0.0,0.0,0.0,0.0,0.0,0.0,0.0,0.0,0.0,0.0,0.0,0.0,0.0,0.0,0.0,0.0,0.0,0.0,0.0,0.0,0.0,0.0,0.0,0.0,0.0,0.0,0.0,0.0,0.0,0.0,0.0,0.0,0.0,0.0,0.0,0.0,0.0,0.0,0.0,0.0,0.0,0.0,0.0,0.0,0.0,0.0,0.0,0.0,0.0,0.0,0.0,0.0,0.0,0.0,0.0,0.0,0.0,0.0,0.0,0.0,0.0,0.0,2.521,2.7057,2.7119,0.0,2.7088,0.0,0.0,0.0,0.0,0.0,0.0,0.0,0.0,0.0,0.0,0.0,0.0,0.0,0.0,0.0,0.0,0.0,0.0,0.0,0.0,0.0,0.0,0.0,0.0,0.0,0.0,0.0,0.0,0.0,0.0,0.0,0.0,0.0,0.0,0.0,0.0,0.0,0.0,0.0,0.0,0.0,0.0,0.0,0.0,0.0,0.0,0.0,0.0,0.0,0.0,0.0,0.0,0.0,0.0,0.0,0.0,0.0,0.0,0.0,0.0,0.0,0.0,0.0,0.0,0.0,0.0,0.0,0.0,0.0,0.0,0.0,0.0,0.0,0.0,0.0,0.0,0.0,0.0,0.0,0.0,0.0,0.0,0.0,0.0,0.0,0.0,0.0,0.0,0.0,0.0,0.0,0.0,0.0,0.0,0.0,0.0,0.0,0.0,0.0,0.0,0.0,0.0,0.0,0.0,0.0,0.0,0.0,0.0,0.0,0.0,2.6772,2.7396,2.7504,2.7504,0.0,0.0,0.0,0.0,0.0,0.0,0.0,0.0,0.0,0.0,0.0,0.0,0.0,0.0,0.0,0.0,0.0,0.0,0.0,0.0,0.0,0.0,0.0,0.0,0.0,0.0,0.0,0.0,0.0,0.0,0.0,0.0,0.0,0.0,0.0,0.0,0.0,0.0,0.0,0.0,0.0,0.0,0.0,0.0,0.0,0.0,0.0,0.0,0.0,0.0,0.0,0.0,0.0,0.0,0.0,0.0,0.0,0.0,0.0,0.0,0.0,0.0,0.0,0.0,0.0,0.0,0.0,0.0,0.0,0.0,0.0,0.0,0.0,0.0,0.0,0.0,0.0,0.0,0.0,0.0,0.0,0.0,0.0,0.0,0.0,0.0,0.0,0.0,0.0,0.0,0.0,0.0,0.0,0.0,0.0,0.0,0.0,0.0,0.0,0.0,0.0,0.0,0.0,0.0,0.0,0.0,0.0,0.0,0.0,0.0,2.7279,2.8075,2.8309,2.8482,2.8062,2.7119,0.0,0.0,0.0,0.0,0.0,0.0,0.0,0.0,0.0,0.0,0.0,0.0,0.0,0.0,0.0,0.0,0.0,0.0,0.0,0.0,0.0,0.0,0.0,0.0,0.0,0.0,0.0,0.0,0.0,0.0,0.0,0.0,0.0,0.0,0.0,0.0,0.0,0.0,0.0,0.0,0.0,0.0,0.0,0.0,0.0,0.0,0.0,0.0,0.0,0.0,0.0,0.0,0.0,0.0,0.0,0.0,0.0,0.0,0.0,0.0,0.0,0.0,0.0,0.0,0.0,0.0,0.0,0.0,0.0,0.0,0.0,0.0,0.0,0.0,0.0,0.0,0.0,0.0,0.0,0.0,0.0,0.0,0.0,0.0,0.0,0.0,0.0,0.0,0.0,0.0,0.0,0.0,0.0,0.0,0.0,0.0,0.0,0.0,0.0,0.0,0.0,0.0,0.0,0.0,0.0,0.0,0.0,0.0,3.0037,2.8654,2.8732,3.0654,3.0585,2.9273,0.0,0.0,0.0,0.0,0.0,0.0,0.0,0.0,0.0,0.0,0.0,0.0,0.0,0.0,0.0,0.0,0.0,0.0,0.0,0.0,0.0,0.0,0.0,0.0,0.0,0.0,0.0,0.0,0.0,0.0,0.0,0.0,0.0,0.0,0.0,0.0,0.0,0.0,0.0,0.0,0.0,0.0,0.0,0.0,0.0,0.0,0.0,0.0,0.0,0.0,0.0,0.0,0.0,0.0,0.0,0.0,0.0,0.0,0.0,0.0,0.0,0.0,0.0,0.0,0.0,0.0,0.0,0.0,0.0,0.0,0.0,0.0,0.0,0.0,0.0,0.0,0.0,0.0,0.0,0.0,0.0,0.0,0.0,0.0,0.0,0.0,0.0,0.0,0.0,0.0,0.0,0.0,0.0,0.0,0.0,0.0,0.0,0.0,0.0,0.0,0.0,0.0,0.0,0.0,0.0,0.0,0.0,0.0,0.0,2.6282,2.7363,2.9564,3.2741,3.0084,2.848,0.0,0.0,0.0,0.0,0.0,0.0,0.0,0.0,0.0,0.0,0.0,0.0,0.0,0.0,0.0,0.0,0.0,0.0,0.0,0.0,0.0,0.0,0.0,0.0,0.0,0.0,0.0,0.0,0.0,0.0,0.0,0.0,0.0,0.0,0.0,0.0,0.0,0.0,0.0,0.0,0.0,0.0,0.0,0.0,0.0,0.0,0.0,0.0,0.0,0.0,0.0,0.0,0.0,0.0,0.0,0.0,0.0,0.0,0.0,0.0,0.0,0.0,0.0,0.0,0.0,0.0,0.0,0.0,0.0,0.0,0.0,0.0,0.0,0.0,0.0,0.0,0.0,0.0,0.0,0.0,0.0,0.0,0.0,0.0,0.0,0.0,0.0,0.0,0.0,0.0,0.0,0.0,0.0,0.0,0.0,0.0,0.0,0.0,0.0,0.0,0.0,0.0,0.0,0.0,0.0,0.0,0.0,0.0,0.0,2.5914,0.0,3.0979,3.2972,2.9848,2.7879,0.0,0.0,0.0,0.0,0.0,0.0,0.0,0.0,0.0,0.0,0.0,0.0,0.0,0.0,0.0,0.0,0.0,0.0,0.0,0.0,0.0,0.0,0.0,0.0,0.0,0.0,0.0,0.0,0.0,0.0,0.0,0.0,0.0,0.0,0.0,0.0,0.0,0.0,0.0,0.0,0.0,0.0,0.0,0.0,0.0,0.0,0.0,0.0,0.0,0.0,0.0,0.0,0.0,0.0,0.0,0.0,0.0,0.0,0.0,0.0,0.0,0.0,0.0,0.0,0.0,0.0,0.0,0.0,0.0,0.0,0.0,0.0,0.0,0.0,0.0,0.0,0.0,0.0,0.0,0.0,0.0,0.0,0.0,0.0,0.0,0.0,0.0,0.0,0.0,0.0,0.0,0.0,0.0,0.0,0.0,0.0,0.0,0.0,0.0,0.0,0.0,0.0,0.0,0.0,0.0,0.0,0.0,0.0,2.521,2.9832,3.2363,3.2864,3.1349,3.0221,2.7484,0.0,0.0,0.0,0.0,0.0,0.0,0.0,0.0,0.0,0.0,0.0,0.0,0.0,0.0,0.0,0.0,0.0,0.0,0.0,0.0,0.0,0.0,0.0,0.0,0.0,0.0,0.0,0.0,0.0,0.0,0.0,0.0,0.0,0.0,0.0,0.0,0.0,0.0,0.0,0.0,0.0,0.0,0.0,0.0,0.0,0.0,0.0,0.0,0.0,0.0,0.0,0.0,0.0,0.0,0.0,0.0,0.0,0.0,0.0,0.0,0.0,0.0,0.0,0.0,0.0,0.0,0.0,0.0,0.0,0.0,0.0,0.0,0.0,0.0,0.0,0.0,0.0,0.0,0.0,0.0,0.0,0.0,0.0,0.0,0.0,0.0,0.0,0.0,0.0,0.0,0.0,0.0,0.0,0.0,0.0,0.0,0.0,0.0,0.0,0.0,0.0,0.0,0.0,0.0,0.0,0.0,0.0,0.0,0.0,2.8469,3.1134,3.3265,3.4491,3.0541,2.8411,0.0,0.0,0.0,0.0,0.0,0.0,0.0,0.0,0.0,0.0,0.0,0.0,0.0,0.0,0.0,0.0,0.0,0.0,0.0,0.0,0.0,0.0,0.0,0.0,0.0,0.0,0.0,0.0,0.0,0.0,0.0,0.0,0.0,0.0,0.0,0.0,0.0,0.0,0.0,0.0,0.0,0.0,0.0,0.0,0.0,0.0,0.0,0.0,0.0,0.0,0.0,0.0,0.0,0.0,0.0,0.0,0.0,0.0,0.0,0.0,0.0,0.0,0.0,0.0,0.0,0.0,0.0,0.0,0.0,0.0,0.0,0.0,0.0,0.0,0.0,0.0,0.0,0.0,0.0,0.0,0.0,0.0,0.0,0.0,0.0,0.0,0.0,0.0,0.0,0.0,0.0,0.0,0.0,0.0,0.0,0.0,0.0,0.0,0.0,0.0,0.0,0.0,0.0,0.0,0.0,0.0,0.0,0.0,0.0,3.1655,3.3908,3.557,3.654,3.2304,2.9964,2.9896,0.0,0.0,0.0,0.0,0.0,0.0,0.0,0.0,0.0,0.0,0.0,0.0,0.0,0.0,0.0,0.0,0.0,0.0,0.0,0.0,0.0,0.0,0.0,0.0,0.0,0.0,0.0,0.0,0.0,0.0,0.0,0.0,0.0,0.0,0.0,0.0,0.0,0.0,0.0,0.0,0.0,0.0,0.0,0.0,0.0,0.0,0.0,0.0,0.0,0.0,0.0,0.0,0.0,0.0,0.0,0.0,0.0,0.0,0.0,0.0,0.0,0.0,0.0,0.0,0.0,0.0,0.0,0.0,0.0,0.0,0.0,0.0,0.0,0.0,0.0,0.0,0.0,0.0,0.0,0.0,0.0,0.0,0.0,0.0,0.0,0.0,0.0,0.0,0.0,0.0,0.0,0.0,0.0,0.0,0.0,0.0,0.0,0.0,0.0,0.0,0.0,0.0,0.0,0.0,0.0,0.0,0.0,0.0,3.8394,3.9985,3.9794,3.7783,3.5324,3.2205,0.0,0.0,0.0,0.0,0.0,0.0,0.0,0.0,0.0,0.0,0.0,0.0,0.0,0.0,0.0,0.0,0.0,0.0,0.0,0.0,0.0,0.0,0.0,0.0,0.0,0.0,0.0,0.0,0.0,0.0,0.0,0.0,0.0,0.0,0.0,0.0,0.0,0.0,0.0,0.0,0.0,0.0,0.0,0.0,0.0,0.0,0.0,0.0,0.0,0.0,0.0,0.0,0.0,0.0,0.0,0.0,0.0,0.0,0.0,0.0,0.0,0.0,0.0,0.0,0.0,0.0,0.0,0.0,0.0,0.0,0.0,0.0,0.0,0.0,0.0,0.0,0.0,0.0,0.0,0.0,0.0,0.0,0.0,0.0,0.0,0.0,0.0,0.0,0.0,0.0,0.0,0.0,0.0,0.0,0.0,0.0,0.0,0.0,0.0,0.0,0.0,0.0,0.0,0.0,0.0,0.0,0.0,0.0,0.0,4.2456,4.5412,4.5992,4.3964,3.9412,3.6416,0.0,0.0,0.0,0.0,0.0,0.0,0.0,0.0,0.0,0.0,0.0,0.0,0.0,0.0,0.0,0.0,0.0,0.0,0.0,0.0,0.0,0.0,0.0,0.0,0.0,0.0,0.0,0.0,0.0,0.0,0.0,0.0,0.0,0.0,0.0,0.0,0.0,0.0,0.0,0.0,0.0,0.0,0.0,0.0,0.0,0.0,0.0,0.0,0.0,0.0,0.0,0.0,0.0,0.0,0.0,0.0,0.0,0.0,0.0,0.0,0.0,0.0,0.0,0.0,0.0,0.0,0.0,0.0,0.0,0.0,0.0,0.0,0.0,0.0,0.0,0.0,0.0,0.0,0.0,0.0,0.0,0.0,0.0,0.0,0.0,0.0,0.0,0.0,0.0,0.0,0.0,0.0,0.0,0.0,0.0,0.0,0.0,0.0,0.0,0.0,0.0,0.0,0.0,0.0,0.0,0.0,0.0,0.0,4.0816,4.5043,4.895,5.0461,4.9365,4.3772,3.9699,0.0,0.0,0.0,0.0,0.0,0.0,0.0,0.0,0.0,0.0,0.0,0.0,0.0,0.0,0.0,0.0,0.0,0.0,0.0,0.0,0.0,0.0,0.0,0.0,0.0,0.0,0.0,0.0,0.0,0.0,0.0,0.0,0.0,0.0,0.0,0.0,0.0,0.0,0.0,0.0,0.0,0.0,0.0,0.0,0.0,0.0,0.0,0.0,0.0,0.0,0.0,0.0,0.0,0.0,0.0,0.0,0.0,0.0,0.0,0.0,0.0,0.0,0.0,0.0,0.0,0.0,0.0,0.0,0.0,0.0,0.0,0.0,0.0,0.0,0.0,0.0,0.0,0.0,0.0,0.0,0.0,0.0,0.0,0.0,0.0,0.0,0.0,0.0,0.0,0.0,0.0,0.0,0.0,0.0,0.0,0.0,0.0,0.0,0.0,0.0,0.0,0.0,0.0,0.0,0.0,0.0,0.0,0.0,4.3081,4.6817,5.1172,5.3529,5.3329,4.7698,4.238,0.0,0.0,0.0,0.0,0.0,0.0,0.0,0.0,0.0,0.0,0.0,0.0,0.0,0.0,0.0,0.0,0.0,0.0,0.0,0.0,0.0,0.0,0.0,0.0,0.0,0.0,0.0,0.0,0.0,0.0,0.0,0.0,0.0,0.0,0.0,0.0,0.0,0.0,0.0,0.0,0.0,0.0,0.0,0.0,0.0,0.0,0.0,0.0,0.0,0.0,0.0,0.0,0.0,0.0,0.0,0.0,0.0,0.0,0.0,0.0,0.0,0.0,0.0,0.0,0.0,0.0,0.0,0.0,0.0,0.0,0.0,0.0,0.0,0.0,0.0,0.0,0.0,0.0,0.0,0.0,0.0,0.0,0.0,0.0,0.0,0.0,0.0,0.0,0.0,0.0,0.0,0.0,0.0,0.0,0.0,0.0,0.0,0.0,0.0,0.0,0.0,0.0,0.0,0.0,0.0,0.0,0.0,0.0,4.5544,4.9535,5.266,5.4253,5.4253,4.8658,4.4371,0.0,0.0,0.0,0.0,0.0,0.0,0.0,0.0,0.0,0.0,0.0,0.0,0.0,0.0,0.0,0.0,0.0,0.0,0.0,0.0,0.0,0.0,0.0,0.0,0.0,0.0,0.0,0.0,0.0,0.0,0.0,0.0,0.0,0.0,0.0,0.0,0.0,0.0,0.0,0.0,0.0,0.0,0.0,0.0,0.0,0.0,0.0,0.0,2.8134,0.0,0.0,0.0,0.0,0.0,0.0,0.0,0.0,0.0,0.0,0.0,0.0,0.0,0.0,0.0,0.0,0.0,0.0,0.0,0.0,0.0,0.0,0.0,0.0,0.0,0.0,0.0,0.0,0.0,0.0,0.0,0.0,0.0,0.0,0.0,0.0,0.0,0.0,0.0,0.0,0.0,0.0,0.0,0.0,0.0,0.0,0.0,0.0,0.0,0.0,0.0,0.0,0.0,0.0,0.0,0.0,0.0,0.0,0.0,4.7158,5.0884,5.3307,5.4494,5.4328,5.0435,4.6575,0.0,0.0,0.0,0.0,0.0,0.0,0.0,0.0,0.0,0.0,0.0,0.0,0.0,0.0,0.0,0.0,0.0,0.0,0.0,0.0,0.0,0.0,0.0,0.0,0.0,0.0,0.0,0.0,0.0,0.0,0.0,0.0,0.0,0.0,0.0,0.0,0.0,0.0,0.0,0.0,0.0,0.0,0.0,0.0,0.0,0.0,0.0,0.0,0.0,0.0,0.0,0.0,0.0,0.0,0.0,0.0,0.0,0.0,0.0,0.0,0.0,0.0,0.0,0.0,0.0,0.0,0.0,0.0,0.0,0.0,0.0,0.0,0.0,0.0,0.0,0.0,0.0,0.0,0.0,0.0,0.0,0.0,0.0,0.0,0.0,0.0,0.0,0.0,0.0,0.0,0.0,0.0,0.0,0.0,0.0,0.0,0.0,0.0,0.0,0.0,0.0,0.0,0.0,0.0,0.0,0.0,0.0,4.3786,4.8003,5.1799,5.3616,5.4494,5.4494,5.2252,4.8404,4.2916,0.0,0.0,0.0,0.0,0.0,0.0,0.0,0.0,0.0,0.0,0.0,0.0,0.0,0.0,0.0,0.0,0.0,0.0,0.0,0.0,0.0,0.0,0.0,0.0,0.0,0.0,0.0,0.0,0.0,0.0,0.0,0.0,0.0,0.0,0.0,0.0,0.0,0.0,2.3652,2.7285,0.0,0.0,0.0,0.0,0.0,0.0,0.0,0.0,3.0466,0.0,0.0,0.0,0.0,0.0,0.0,0.0,0.0,0.0,0.0,0.0,0.0,0.0,0.0,0.0,0.0,0.0,0.0,0.0,0.0,0.0,0.0,0.0,0.0,0.0,0.0,0.0,0.0,0.0,0.0,0.0,0.0,0.0,0.0,0.0,0.0,0.0,0.0,0.0,0.0,0.0,0.0,0.0,0.0,0.0,0.0,0.0,0.0,0.0,0.0,0.0,0.0,0.0,0.0,0.0,0.0,4.4439,4.4643,4.7674,5.3817,5.4293,5.4494,5.446,5.2252,4.8702,4.3881,0.0,0.0,0.0,0.0,0.0,0.0,0.0,0.0,0.0,0.0,0.0,0.0,0.0,0.0,0.0,0.0,0.0,0.0,0.0,0.0,0.0,0.0,0.0,0.0,0.0,0.0,0.0,0.0,0.0,0.0,0.0,0.0,0.0,0.0,0.0,0.0,0.0,0.0,0.0,3.3022,3.4693,0.0,0.0,0.0,0.0,0.0,0.0,0.0,0.0,3.268,0.0,0.0,0.0,0.0,0.0,0.0,0.0,0.0,0.0,0.0,0.0,0.0,0.0,0.0,0.0,0.0,0.0,0.0,0.0,0.0,0.0,0.0,0.0,0.0,0.0,0.0,0.0,0.0,0.0,0.0,0.0,0.0,0.0,0.0,0.0,0.0,0.0,0.0,0.0,0.0,0.0,0.0,0.0,0.0,0.0,0.0,0.0,0.0,0.0,0.0,0.0,0.0,0.0,0.0,0.0,4.366,4.6666,5.0161,5.4356,5.4494,5.4494,5.446,5.1566,4.7962,0.0,0.0,0.0,0.0,0.0,0.0,0.0,0.0,0.0,0.0,0.0,0.0,0.0,0.0,0.0,0.0,0.0,0.0,0.0,0.0,0.0,0.0,0.0,0.0,0.0,0.0,0.0,0.0,0.0,0.0,0.0,0.0,0.0,0.0,0.0,0.0,0.0,0.0,0.0,0.0,3.4865,3.6364,3.8702,0.0,0.0,0.0,0.0,0.0,0.0,3.4912,3.3925,0.0,0.0,0.0,0.0,0.0,0.0,0.0,0.0,0.0,0.0,0.0,0.0,0.0,0.0,0.0,0.0,0.0,0.0,0.0,0.0,0.0,0.0,0.0,0.0,0.0,0.0,0.0,0.0,0.0,0.0,0.0,0.0,0.0,0.0,0.0,0.0,0.0,0.0,0.0,0.0,0.0,0.0,0.0,0.0,0.0,0.0,0.0,0.0,0.0,0.0,0.0,0.0,0.0,0.0,0.0,4.2359,4.7962,5.2027,5.4391,5.4494,5.4563,5.4667,5.089,4.7194,0.0,0.0,0.0,0.0,0.0,0.0,0.0,0.0,0.0,0.0,0.0,0.0,0.0,0.0,0.0,0.0,0.0,0.0,0.0,0.0,0.0,0.0,0.0,0.0,0.0,0.0,0.0,0.0,0.0,0.0,0.0,0.0,0.0,0.0,0.0,0.0,0.0,0.0,0.0,0.0,0.0,3.8008,4.1679,3.8598,0.0,0.0,0.0,0.0,3.8415,3.7544,0.0,0.0,0.0,0.0,0.0,0.0,0.0,0.0,0.0,0.0,0.0,0.0,0.0,0.0,0.0,0.0,0.0,0.0,0.0,0.0,0.0,0.0,0.0,0.0,0.0,0.0,0.0,0.0,0.0,0.0,0.0,0.0,0.0,0.0,0.0,0.0,0.0,0.0,0.0,0.0,0.0,0.0,0.0,0.0,0.0,0.0,0.0,0.0,0.0,0.0,0.0,0.0,0.0,0.0,0.0,0.0,4.284,4.6747,5.0549,5.4287,5.4529,5.4805,5.5426,5.0781,4.6982,0.0,0.0,0.0,0.0,0.0,0.0,0.0,0.0,0.0,0.0,0.0,0.0,0.0,0.0,0.0,0.0,0.0,0.0,0.0,0.0,0.0,0.0,0.0,0.0,0.0,0.0,0.0,0.0,0.0,0.0,0.0,0.0,0.0,0.0,0.0,0.0,0.0,0.0,0.0,0.0,0.0,4.1545,4.1134,4.0344,3.9895,0.0,0.0,4.2355,4.4281,4.4449,0.0,0.0,0.0,0.0,0.0,0.0,0.0,0.0,0.0,0.0,0.0,0.0,0.0,0.0,0.0,0.0,0.0,0.0,0.0,0.0,0.0,0.0,0.0,0.0,0.0,0.0,0.0,0.0,0.0,0.0,0.0,0.0,0.0,0.0,0.0,0.0,0.0,0.0,0.0,0.0,0.0,0.0,0.0,0.0,0.0,0.0,0.0,0.0,0.0,0.0,0.0,0.0,0.0,0.0,0.0,3.8403,4.3477,4.9399,5.3335,5.5081,5.5563,5.5943,5.6288,5.045,4.6329,0.0,0.0,0.0,0.0,0.0,0.0,0.0,0.0,0.0,0.0,0.0,0.0,0.0,0.0,0.0,0.0,0.0,0.0,0.0,0.0,0.0,0.0,0.0,0.0,0.0,0.0,0.0,0.0,0.0,0.0,0.0,0.0,0.0,0.0,0.0,0.0,0.0,0.0,0.0,0.0,0.0,0.0,4.3838,4.3039,0.0,0.0,0.0,4.4018,4.488,0.0,0.0,0.0,0.0,0.0,0.0,0.0,0.0,0.0,0.0,0.0,0.0,0.0,0.0,0.0,0.0,0.0,0.0,0.0,0.0,0.0,0.0,0.0,0.0,0.0,0.0,0.0,0.0,0.0,0.0,0.0,0.0,0.0,0.0,0.0,0.0,0.0,0.0,0.0,0.0,0.0,0.0,0.0,0.0,0.0,0.0,0.0,0.0,0.0,0.0,0.0,0.0,0.0,0.0,0.0,0.0,0.0,4.4228,5.1924,5.5908,5.5943,5.6495,5.6874,5.6978,5.1423,0.0,0.0,0.0,0.0,0.0,0.0,0.0,0.0,0.0,0.0,0.0,0.0,0.0,0.0,0.0,0.0,0.0,0.0,0.0,0.0,0.0,0.0,0.0,0.0,0.0,0.0,0.0,1.8749,0.0,0.0,0.0,0.0,0.0,0.0,0.0,0.0,0.0,0.0,0.0,0.0,0.0,0.0,4.2509,4.5895,4.5464,4.568,0.0,0.0,4.5988,4.6326,4.7342,4.6388,0.0,0.0,0.0,0.0,0.0,0.0,0.0,0.0,0.0,0.0,0.0,0.0,0.0,0.0,0.0,0.0,0.0,0.0,0.0,0.0,0.0,0.0,0.0,0.0,0.0,0.0,0.0,0.0,0.0,0.0,0.0,0.0,0.0,0.0,0.0,0.0,0.0,0.0,0.0,0.0,0.0,0.0,0.0,0.0,0.0,0.0,0.0,0.0,0.0,0.0,0.0,0.0,0.0,0.0,0.0,4.5371,5.2839,5.6702,5.6736,5.6771,5.7116,5.7771,5.4901,5.0527,0.0,0.0,0.0,0.0,0.0,0.0,0.0,0.0,0.0,0.0,0.0,0.0,0.0,0.0,0.0,0.0,0.0,0.0,0.0,0.0,0.0,0.0,0.0,0.0,0.0,0.0,0.0,0.0,0.0,0.0,0.0,0.0,0.0,0.0,0.0,0.0,0.0,0.0,0.0,0.0,0.0,4.3925,4.5464,4.7157,4.8789,0.0,0.0,4.9774,5.1036,5.1775,5.0266,4.4264,0.0,0.0,0.0,0.0,0.0,0.0,0.0,0.0,0.0,0.0,0.0,0.0,0.0,0.0,0.0,0.0,0.0,0.0,0.0,0.0,0.0,0.0,0.0,0.0,0.0,0.0,0.0,0.0,0.0,0.0,0.0,0.0,0.0,0.0,0.0,0.0,0.0,0.0,0.0,0.0,0.0,0.0,0.0,0.0,0.0,0.0,0.0,0.0,0.0,0.0,0.0,0.0,0.0,4.1836,4.6148,5.3632,5.7495,5.7495,5.7909,5.8323,5.8564,5.5723,5.1251,0.0,0.0,0.0,0.0,0.0,0.0,0.0,0.0,0.0,0.0,0.0,0.0,0.0,0.0,0.0,0.0,0.0,0.0,0.0,0.0,0.0,0.0,0.0,0.0,0.0,0.0,0.0,0.0,3.1691,3.2154,2.957,0.0,0.0,0.0,0.0,0.0,0.0,0.0,0.0,0.0,0.0,4.528,4.8296,4.9066,0.0,0.0,5.1005,5.079,5.2113,5.1498,4.9466,4.5464,4.3371,0.0,0.0,0.0,0.0,0.0,0.0,0.0,0.0,0.0,0.0,0.0,0.0,0.0,0.0,0.0,0.0,0.0,0.0,0.0,0.0,0.0,0.0,0.0,0.0,0.0,0.0,0.0,0.0,0.0,0.0,0.0,0.0,0.0,0.0,0.0,0.0,0.0,0.0,0.0,0.0,0.0,0.0,0.0,0.0,0.0,0.0,0.0,0.0,0.0,0.0,0.0,0.0,4.2561,4.6941,5.4391,5.8254,5.8219,5.8737,5.9012,5.8978,5.6919,5.3007,0.0,0.0,0.0,0.0,0.0,0.0,0.0,0.0,0.0,0.0,0.0,0.0,0.0,0.0,0.0,0.0,0.0,0.0,0.0,0.0,0.0,0.0,0.0,0.0,0.0,0.0,0.0,0.0,3.4077,3.3699,3.0061,0.0,0.0,0.0,0.0,0.0,0.0,0.0,0.0,0.0,0.0,4.7034,5.0482,5.0759,5.1097,5.2513,5.1744,5.1313,5.2267,5.1221,4.9435,4.6911,0.0,0.0,0.0,0.0,0.0,0.0,0.0,0.0,0.0,0.0,0.0,0.0,0.0,0.0,0.0,0.0,0.0,0.0,0.0,0.0,0.0,0.0,0.0,0.0,0.0,0.0,0.0,0.0,0.0,0.0,0.0,0.0,0.0,0.0,0.0,0.0,0.0,0.0,0.0,0.0,0.0,0.0,0.0,0.0,0.0,0.0,0.0,0.0,0.0,0.0,0.0,0.0,0.0,4.3802,4.77,5.515,5.8978,5.8978,5.9012,5.9012,5.9012,5.8875,5.6572,5.1623,0.0,0.0,0.0,0.0,0.0,0.0,0.0,0.0,0.0,0.0,0.0,0.0,0.0,0.0,0.0,0.0,0.0,0.0,0.0,0.0,0.0,0.0,0.0,0.0,0.0,0.0,2.613,2.8596,2.9999,0.0,0.0,0.0,0.0,0.0,0.0,0.0,0.0,0.0,0.0,4.6018,4.9281,5.1374,5.2236,5.2637,5.2729,5.2144,5.1713,5.1775,5.1652,5.0974,0.0,0.0,0.0,0.0,0.0,0.0,0.0,0.0,0.0,0.0,0.0,0.0,0.0,0.0,0.0,0.0,0.0,0.0,0.0,0.0,0.0,0.0,0.0,0.0,0.0,0.0,0.0,2.8937,2.804,0.0,0.0,0.0,0.0,0.0,0.0,0.0,0.0,0.0,0.0,0.0,4.0146,4.1664,0.0,0.0,0.0,0.0,0.0,0.0,0.0,0.0,0.0,0.0,0.0,0.0,4.4113,4.8528,5.5426,5.9012,5.9012,5.9012,5.9012,5.9012,5.9012,5.6501,5.1206,0.0,0.0,0.0,0.0,0.0,0.0,0.0,0.0,0.0,0.0,0.0,0.0,0.0,0.0,0.0,0.0,0.0,0.0,0.0,0.0,0.0,0.0,0.0,0.0,0.0,2.9705,0.0,0.0,0.0,0.0,0.0,0.0,0.0,0.0,0.0,0.0,0.0,4.2786,4.6172,4.8573,5.0574,5.2144,5.2944,5.3375,0.0,0.0,0.0,0.0,0.0,0.0,0.0,0.0,0.0,0.0,0.0,0.0,0.0,0.0,4.8142,4.2325,4.0693,4.0416,4.1063,0.0,0.0,0.0,0.0,0.0,0.0,0.0,0.0,0.0,0.0,0.0,0.0,0.0,0.0,0.0,0.0,3.3214,0.0,0.0,0.0,0.0,0.0,0.0,0.0,0.0,4.2009,4.463,4.5596,4.7079,4.7424,0.0,4.5665,4.1561,0.0,0.0,0.0,0.0,0.0,0.0,0.0,0.0,4.4906,4.9286,5.5667,5.9012,5.9012,5.9012,5.9012,5.9012,5.9012,5.7325,5.369,4.8719,4.4193,0.0,0.0,0.0,0.0,0.0,0.0,0.0,0.0,0.0,0.0,0.0,0.0,0.0,0.0,0.0,0.0,0.0,0.0,0.0,0.0,0.0,0.0,0.0,3.1904,0.0,0.0,0.0,0.0,0.0,0.0,0.0,0.0,0.0,3.8939,4.2663,4.6419,4.9312,5.0882,5.2082,5.2944,0.0,0.0,0.0,0.0,0.0,0.0,0.0,5.1128,5.2267,5.0944,4.9589,4.9097,5.0728,5.1805,5.0851,0.0,0.0,4.725,4.5741,4.5618,4.6265,4.6357,4.6419,4.6665,4.7434,4.8081,0.0,0.0,0.0,0.0,0.0,0.0,0.0,0.0,3.8974,3.8146,0.0,3.8215,0.0,0.0,0.0,0.0,0.0,0.0,0.0,0.0,5.0769,5.3667,5.2356,5.2287,5.277,5.3425,5.1977,4.9769,4.6837,4.3251,0.0,0.0,0.0,0.0,0.0,0.0,4.6286,5.0218,5.6012,5.9012,5.9012,5.9012,5.9012,5.9012,5.9012,5.8978,5.8806,5.4445,5.1241,4.9521,4.049,0.0,0.0,0.0,0.0,0.0,0.0,0.0,0.0,0.0,0.0,0.0,0.0,0.0,0.0,0.0,0.0,0.0,0.0,0.0,0.0,3.2382,0.0,0.0,0.0,0.0,0.0,0.0,0.0,0.0,0.0,0.0,4.2099,4.5865,4.9466,5.1467,0.0,0.0,0.0,0.0,5.476,5.4822,5.4791,5.4976,5.5592,5.5068,5.4853,5.553,0.0,0.0,5.2298,5.3468,5.3929,5.1436,5.3622,5.553,5.476,5.239,5.1067,5.1621,5.079,5.0205,5.079,5.1805,5.2667,4.3733,0.0,0.0,0.0,0.0,4.0181,4.2595,4.67,4.6113,4.5044,4.3664,4.4113,0.0,0.0,0.0,0.0,0.0,0.0,4.5216,4.8148,5.139,5.3804,5.546,5.5495,5.5874,5.6598,5.6184,5.5805,5.5426,5.4356,4.7769,3.6215,0.0,0.0,0.0,0.0,4.8872,5.3149,5.7047,5.9012,5.9012,5.9012,5.9012,5.9012,5.9012,5.9012,5.9012,5.7669,5.5163,5.1275,4.7442,0.0,0.0,0.0,0.0,0.0,0.0,0.0,0.0,0.0,0.0,0.0,0.0,0.0,0.0,0.0,0.0,0.0,0.0,0.0,3.3515,3.6562,3.6847,0.0,0.0,0.0,0.0,0.0,0.0,0.0,0.0,0.0,4.7989,5.0082,5.1775,0.0,0.0,5.3899,5.4391,5.5007,5.5592,5.6115,5.5745,0.0,0.0,5.476,5.4391,5.5499,5.6115,5.6176,5.5438,5.5807,5.593,5.513,5.5807,5.6392,5.6207,5.5622,5.5099,5.5222,5.4976,5.4791,5.5007,5.5376,5.5592,5.0275,4.7148,4.4354,4.4216,4.5837,4.5699,4.7941,5.177,5.1287,5.0252,4.8907,4.9804,4.7044,4.1767,4.1457,0.0,0.0,0.0,4.9321,5.2735,5.3632,5.5184,5.715,5.7219,5.7633,5.8323,5.8357,5.8564,5.9012,5.8081,5.277,4.3388,0.0,0.0,4.3871,4.7596,5.1287,5.4874,5.7633,5.915,5.9495,5.9771,5.9909,5.9909,5.9909,5.9944,5.9909,5.9633,5.8152,5.5235,5.2152,4.7476,0.0,0.0,0.0,0.0,0.0,0.0,0.0,0.0,0.0,0.0,0.0,2.8887,2.4551,0.0,0.0,0.0,3.4813,3.6869,3.9344,4.0142,0.0,0.0,0.0,0.0,0.0,0.0,0.0,4.4603,4.7958,5.0482,5.1744,5.2821,5.3591,5.3868,5.4237,5.4637,5.5037,0.0,5.6269,5.67,5.6638,5.67,5.7223,5.6423,5.6023,5.6761,5.7254,5.7562,5.7562,5.7562,5.7562,5.7562,5.7562,5.7562,5.7562,5.7562,5.7346,5.6884,5.6761,5.6761,5.6761,5.6761,5.6761,5.5706,5.5283,4.9792,4.8687,5.0621,5.1287,5.2735,5.473,5.4667,5.3908,5.277,5.477,5.2632,4.7424,4.6665,0.0,0.0,5.2321,5.4149,5.6874,5.6943,5.7322,5.7978,5.7978,5.8357,5.9012,5.9012,5.9012,5.8909,5.6943,5.5184,5.377,5.3046,5.1804,5.0287,5.1632,5.3529,5.5805,5.7909,5.9426,6.0254,6.0944,6.1323,6.1289,6.1323,6.1289,6.1289,6.0634,6.0289,6.0116,5.5338,5.1782,4.9761,0.0,0.0,0.0,0.0,0.0,0.0,0.0,0.0,0.0,0.0,0.0,0.0,0.0,0.0,0.0,4.215,0.0,4.6827,4.3572,0.0,0.0,0.0,3.9974,4.2673,4.5728,4.7995,4.8872,0.0,0.0,5.3868,5.4422,5.5037,5.5684,5.5715,5.5715,5.5776,5.633,5.6792,5.6977,5.7377,5.8208,5.9131,5.8885,5.8485,5.8577,5.8793,5.8701,5.8701,5.8701,5.8762,5.8701,5.8762,5.8762,5.8762,5.8701,5.8393,5.7192,5.6977,5.6977,5.7008,5.7038,5.7069,5.7272,5.7122,5.5444,5.5069,5.5529,5.5484,5.5929,5.6571,5.6349,5.6046,5.577,5.6253,5.5736,5.4356,5.4184,5.4598,5.5495,5.6219,5.6943,5.7667,5.8219,5.8564,5.8737,5.8771,5.884,5.9012,5.9012,5.9012,5.8978,5.8461,5.7736,5.6874,5.6667,5.4632,5.108,5.2908,5.5081,5.7357,5.8461,5.9668,6.0978,6.122,6.1323,6.1323,6.1323,6.1323,6.1323,6.1151,6.1047,6.1013,5.9771,5.7191,5.3053,4.5501,0.0,0.0,0.0,0.0,0.0,0.0,0.0,0.0,0.0,3.354,2.6208,0.0,3.6796,0.0,4.5351,4.9969,5.032,4.9127,0.0,0.0,4.5644,4.603,4.9074,5.0311,5.1297,5.2137,5.3885,5.5131,5.5255,5.5376,5.5715,5.6392,5.6023,5.5899,5.6423,5.6638,5.7131,5.8023,5.8091,5.8085,5.8854,5.8916,5.8824,5.8793,5.8793,5.8793,5.8793,5.8793,5.8793,5.8793,5.8793,5.8793,5.8824,5.8793,5.8701,5.8362,5.83,5.83,5.83,5.83,5.83,5.8149,5.8281,5.8246,5.8492,5.8675,5.7344,5.6902,5.7032,5.6871,5.6805,5.684,5.715,5.746,5.7805,5.7771,5.7771,5.7805,5.8219,5.8392,5.8426,5.884,5.9012,5.9012,5.9012,5.9012,5.9012,5.9012,5.9012,5.9012,5.9357,5.9323,5.8944,5.9254,5.7805,5.4805,5.5219,5.615,5.7391,5.8806,6.0289,6.1772,6.2151,6.1597,6.0075,6.0219,5.9564,5.8016,5.7329,5.6986,5.6951,5.6165,5.4631,5.2157,4.5883,4.0912,0.0,0.0,0.0,0.0,0.0,0.0,0.0,0.0,0.0,0.0,0.0,4.0645,4.1103,4.8682,5.2891,5.142,5.1574,5.175,5.1688,5.1328,5.1997,5.389,5.4691,5.5091,5.5248,5.6109,5.6743,5.6902,5.6871,5.6745,5.6827,5.6862,5.7019,5.7197,5.758,5.8114,5.8677,5.882,5.8918,5.9201,5.9501,5.9858,6.0229,5.9959,5.9888,6.0229,5.9959,5.9686,5.9686,5.9686,5.9686,5.9686,5.9686,5.9686,5.9686,5.9686,5.947,5.8916,5.8793,5.8793,5.8885,5.9241,5.9425,5.9972,6.0477,5.8159,5.7213,5.7278,5.7213,5.7213,5.7248,5.7838,5.8459,5.9081,5.9012,5.9012,5.9012,5.9012,5.9012,5.9012,5.9012,5.9012,5.9012,5.9012,5.9012,5.9012,5.9116,5.915,5.9185,5.9978,6.0289,6.022,6.084,6.0427,5.9012,5.7736,5.7081,5.7116,5.9254,6.0978,6.2289,6.2703,6.1387,5.8388,5.8428,5.7019,5.3912,5.2614,5.1867,5.1668,5.0198,4.9839,5.0719,4.5275,4.2202,0.0,3.6896,0.0,0.0,0.0,0.0,0.0,0.0,0.0,0.0,4.5241,4.5668,4.5957,5.19,5.4727,5.2316,5.3313,5.4948,5.6996,5.7177,5.7272,5.7669,5.8345,5.8594,5.8005,5.8255,5.8514,5.8632,5.8514,5.8119,5.7651,5.8247,5.8685,5.8355,5.8777,5.9157,5.916,6.0004,6.0415,6.0315,6.067,6.1286,6.199,6.1728,6.145,6.2058,6.169,6.1144,6.1041,6.0979,6.101,6.1175,6.1041,6.0835,6.0877,6.0877,6.0363,5.9439,5.9162,5.9039,6.0618,6.07,6.0458,6.0468,6.0512,5.9791,5.965,5.9875,5.9587,5.9459,5.9459,5.9373,5.938,5.9418,5.9149,5.9012,5.9012,5.9012,5.9012,5.9012,5.9012,5.9012,5.9012,5.9012,5.9012,5.9047,5.9668,5.9978,5.9978,6.0737,6.0771,6.022,6.0323,5.9944,5.9047,0.0,0.0,0.0,6.0254,6.122,6.1461,5.984,5.8358,5.712,5.6532,0.0,5.361,5.3782,5.3518,5.2584,5.2694,0.0,0.0,0.0,0.0,0.0,0.0,0.0,0.0,0.0,0.0,0.0,4.664,4.5744,4.5796,4.8297,5.0726,5.2639,5.504,5.707,5.8496,5.9268,5.9682,5.9498,6.0106,6.0502,6.046,6.0324,6.0285,6.0304,5.9838,5.9642,5.9784,5.9697,5.9781,6.0032,6.0258,6.038,6.0643,5.9715,5.9781,6.1503,6.195,6.1909,6.1833,6.1927,6.2121,6.2319,6.294,6.2972,6.2485,6.2875,6.2843,6.2221,6.2022,6.2319,6.294,6.1922,6.1072,6.1853,6.1379,6.0732,6.0486,6.0393,6.0424,6.1328,0.0,6.0914,6.0854,0.0,6.0671,6.0671,6.0793,6.0297,6.0008,5.9814,5.9485,5.9284,5.9284,5.9081,5.9012,5.9012,5.9012,5.9012,5.9012,5.9012,5.9219,5.9599,5.9599,5.9806,6.0151,6.0565,6.0737,6.0771,6.153,6.1703,6.1358,6.1703,6.1668,6.1289,6.1254,6.0909,6.0185,6.0909,6.1668,6.2358,6.1323,5.9736,5.7741,0.0,0.0,0.0,0.0,0.0,0.0,0.0,0.0,0.0,0.0,0.0,5.2672,4.9984,4.908,5.0716,5.095,5.2469,5.589,5.5892,5.4296,5.1024,5.4092,5.6639,5.7842,5.8937,6.0066,6.1268,6.2041,6.2282,6.1913,6.2146,6.2233,6.166,6.1488,6.148,6.1332,6.1003,6.087,6.092,6.1117,6.1074,6.1121,6.1685,6.2281,6.2717,6.216,6.2192,6.3701,6.3444,6.3036,6.3036,6.3068,6.3228,6.3641,6.3324,6.3324,6.3703,6.3324,6.3036,6.2972,6.3036,6.3132,6.294,6.2221,6.1551,6.1551,6.1175,6.0794,6.0794,6.0794,6.0794,6.2032,6.1781,6.1781,6.1651,6.1507,6.1507,6.1436,6.1152,0.0,0.0,0.0,5.9284,5.9081,5.9081,5.9012,5.9012,5.9012,5.9012,5.9081,5.9219,5.9219,5.9633,6.0358,6.0392,6.0703,6.1289,6.1427,6.1496,6.1565,6.2289,6.2668,6.2737,6.3289,6.36,6.36,6.36,6.2979,6.1772,6.1427,6.191,6.3117,6.2806,6.118,5.8148,5.829,5.6881,5.3844,5.3263,5.2921,5.2721,5.1891,5.2031,5.3079,5.2908,5.3241,5.4455,5.4309,5.5526,5.8608,5.8812,6.0194,6.3427,6.36,6.1762,5.7392,5.9938,6.1703,6.1703,6.2289,6.2668,6.2703,6.322,6.36,6.36,6.3452,6.3007,6.229,6.2279,6.2279,6.2167,6.2177,6.2085,6.2199,6.2757,6.2849,6.2306,6.3231,6.4178,6.48,6.4781,6.4685,6.5038,6.4538,6.4077,6.4077,6.4077,6.4447,6.4934,6.4077,6.3703,6.4538,6.4077,6.3451,6.3984,6.4142,6.4118,6.3453,6.3323,6.2766,6.2128,6.1823,6.1721,6.1721,6.1721,6.165,6.4348,6.4294,6.4294,6.3893,6.3221,6.3257,6.264,6.1579,6.0854,6.0485,6.0423,5.9748,5.9485,5.952,5.9149,5.9012,5.9012,5.9012,5.9392,0.0,6.0013,6.0427,6.1116,6.1151,6.1185,6.1358,6.1979,6.2324,6.2393,6.3082,6.3427,6.3427,6.3531,6.36,6.36,6.36,6.3496,6.3255,6.1979,6.1392,6.1599,5.9702,5.8219,5.7084,5.6498,5.5322,5.357,5.3989,5.3759,5.2759,5.3103,5.4634,5.7289,5.746,5.8795,6.1723,6.1963,6.2277,6.2729,6.2798,6.3043,6.3531,6.36,6.3255,6.2591,6.294,6.3289,6.3289,6.3358,6.3427,6.3462,6.3531,6.36,6.36,6.36,6.3491,6.3343,6.2889,6.2847,6.3296,6.3435,6.3655,6.411,6.4684,6.513,6.54,6.5327,6.5816,6.6238,6.6475,6.6134,6.5559,6.5204,6.5114,6.518,6.5114,6.527,6.5293,6.578,6.5758,6.5581,6.5791,6.5703,6.527,6.5676,6.6187,6.6646,6.6166,6.5703,6.5801,6.5352,6.4995,6.4865,6.4897,6.4406,6.4998,6.4785,6.4785,6.4566,6.4184,6.4002,6.3563,6.2954,6.2185,6.1353,6.0583,6.0072,5.9914,5.9884,5.9937,5.9908,5.9942,6.0117,6.0461,6.0771,6.0771,6.122,6.191,6.1944,6.2151,6.2565,6.291,6.3082,6.3117,6.3427,6.36,6.36,6.36,6.36,6.36,6.36,6.36,6.3565,6.291,6.253,6.253,6.153,6.0806,6.0496,6.0116,5.9633,5.8944,5.9254,5.9185,5.8633,5.8942,5.9766,6.1105,6.1242,6.1933,6.3496,6.36,6.36,6.36,6.36,6.36,6.36,6.36,6.36,6.36,6.36,6.36,6.36,6.36,6.36,6.36,6.36,6.36,6.36,6.36,6.3738,6.4117,6.3961,6.4023,6.4697,6.4889,6.5019,6.5206,6.5627,6.6097,6.6474,6.6655,6.6855,6.6946,6.693,6.6643,6.6235,6.6148,6.635,6.6651,6.6718,6.692,6.7288,6.7267,6.7301,6.7179,6.7443,6.7234,6.7389,6.7691,6.7736,6.7892,6.7339,6.6982,6.6511,6.6415,6.5999,6.6031,6.6291,6.5734,6.5948,6.56,6.5637,6.549,6.5254,6.4639,6.44,6.4344,6.3609,6.2699,6.1544,6.0917,6.0598,6.0668,6.0869,6.0978,6.1014,6.1188,6.1392,6.1565,6.1565,6.1979,6.2668,6.2737,6.3048,6.3531,6.36,6.36,6.36,6.36,6.36,6.36,6.36,6.36,6.36,6.36,6.36,6.36,6.3738,6.3772,6.36,6.36,6.3669,6.3841,6.3807,6.391,6.4083,6.4117,6.4117,6.4117,6.4117,6.4117,6.4117,6.4117,6.4048,6.3876,6.3841,6.3772,6.36,6.36,6.36,6.36,6.3738,6.3841,6.3841,6.4014,6.3945,6.3669,6.36,6.36,6.3634,6.3772,6.3841,6.3841,6.4014,6.4393,6.4876,6.4945,6.5152,6.5773,6.6014,6.6041,6.6023,6.6382,6.6748,6.6964,6.7215,6.7394,6.7263,6.7116,6.7217,6.7167,6.7049,6.7302,6.7996,6.8166,6.8316,6.9045,6.845,6.8294,6.8594,6.8361,6.8182,6.8803,6.9214,6.9019,6.8359,6.8378,6.8261,6.7829,6.764,6.748,6.7546,6.7587,6.7003,6.8148,6.8148,6.8062,6.774,6.6938,6.5814,6.5279,6.5228,6.4785,6.4549,6.4182,6.2844,6.2174,6.2143,6.1913,6.1779,6.1779,6.143,6.1703,6.2324,6.2393,6.2772,6.3427,6.3462,6.3531,6.36,6.36,6.36,6.36,6.36,6.36,6.36,6.36,6.36,6.36,6.36,6.36,6.36,6.4255,6.4289,6.3634,6.36,6.391,6.4565,6.46,6.4945,6.5531,6.5669,6.5669,6.5669,6.5635,6.5669,6.5635,6.5635,6.5324,6.4669,6.46,6.4324,6.3703,6.36,6.3669,6.3634,6.4255,6.46,6.4634,6.5255,6.5048,6.4048,6.3669,6.3703,6.3634,6.4186,6.46,6.4634,6.5152,6.5704,6.5738,6.5773,6.5807,6.5842,6.6531,6.6911,6.6902,6.7384,6.7673,6.7432,6.7454,6.7544,6.7516,6.7891,6.83,6.8166,6.7997,6.8166,6.8774,6.9011,6.9113,6.918,6.9059,6.9161,6.9262,6.9194,6.9026,6.9465,6.9722,6.9972,7.014,7.0389,7.0704,7.0162,7.0138,7.0613,7.068,6.997,6.8533,6.8543,6.8543,6.8543,6.832,6.79,6.7133,6.6795,6.6743,6.6372,6.6041,6.5757,6.5105,6.4296,6.3377,6.3009,6.2853,6.282,6.2714,6.2806,6.3117,6.3151,6.3324,6.3565,6.36,6.36,6.36,6.36,6.36,6.36,6.36,6.36,6.36,6.36,6.36,6.3634,6.4014,6.4255,6.4255,6.5014,6.5255,6.4979,6.4945,6.5083,6.5359,6.5393,6.5531,6.5842,6.5876,6.5876,6.5876,6.5876,6.5876,6.5876,6.5876,6.5738,6.5428,6.5393,6.5255,6.4979,6.4945,6.4945,6.4945,6.5221,6.5393,6.5393,6.5704,6.56,6.5117,6.4945,6.4945,6.4945,6.5221,6.5393,6.5428,6.5704,6.6048,6.6497,6.6531,6.6669,6.7118,6.7463,6.7635,6.7669,6.7911,6.7925,6.7719,6.7638,6.7809,6.8138,6.8515,6.8861,6.9442,6.9508,6.9524,6.9688,6.9755,6.9925,7.0263,7.0398,7.0398,7.0364,7.0398,7.0432,7.0364,7.0601,7.077,7.0838,7.1007,7.1312,7.1312,7.1312,7.1312,7.1312,7.0916,6.9816,6.8543,6.8543,6.8543,6.8543,6.8457,6.8171,6.7982,6.7982,6.763,6.7305,6.7061,6.6946,6.6235,6.512,6.4337,6.3964,6.3966,6.3973,6.3858,6.3892,6.3858,6.3858,6.3712,6.3747,6.3673,6.36,6.36,6.36,6.36,6.36,6.36,6.36,6.3772,6.3876,6.3979,6.4634,6.5048,6.5083,6.5773,6.6186,6.6186,6.6393,6.6393,6.6221,6.6186,6.629,6.6497,6.6497,6.6497,6.6497,6.6497,6.6497,6.6497,6.6497,6.6428,6.6186,6.5979,6.5876,6.5876,6.5876,6.5876,6.5876,6.6048,6.6186,6.6221,6.6359,6.6497,6.6497,6.6497,6.6393,6.5911,6.6083,6.6186,6.6186,6.6324,6.6738,6.7221,6.729,6.7497,6.798,6.798,6.8083,6.8083,6.8083,6.8073,6.8154,6.8143,6.8383,6.9069,6.9282,6.9612,7.0429,7.0701,7.0697,7.0588,7.05,7.0804,7.1041,7.121,7.1176,7.1312,7.1278,7.1278,7.0906,7.121,7.1278,7.1176,7.1244,7.1312,7.1312,7.1312,7.1312,7.1312,7.1222,7.1007,6.8543,6.8543,6.8543,6.8543,6.8543,6.8457,6.8457,6.8408,6.8408,6.8408,6.8222,6.7878,6.77,6.7357,6.5797,6.5141,6.5074,6.4773,6.4637,6.4637,6.4568,6.4428,6.4111,6.4039,6.393,6.36,6.36,6.36,6.36,6.36,6.36,6.3634,6.4255,6.4634,6.4738,6.5428,6.5807,6.5911,6.6566,6.6945,6.7014,6.7601,6.7566,6.7014,6.6945,6.7256,6.7807,6.7945,6.7945,6.798,6.7876,6.7911,6.7945,6.7911,6.7601,6.698,6.6324,6.5945,6.5979,6.6014,6.6014,6.6048,6.66,6.6945,6.698,6.7463,6.7773,6.7911,6.7807,6.7325,6.6324,6.6635,6.6945,6.698,6.7532,6.7876,6.798,6.7911,6.8014,6.8083,6.8083,6.8152,6.8118,6.8083,6.8418,6.8739,6.8863,6.9138,6.9859,7.0412,7.0738,7.084,7.1231,7.1444,7.13,7.1075,7.1142,7.1278,7.1312,7.1312,7.1312,7.1312,7.1312,7.1312,7.1312,7.1312,7.1312,7.1312,7.1312,7.1312,7.1312,7.1312,7.1312,7.1312,7.1098,6.8543,6.8543,6.8543,6.8543,6.8543,6.8543,6.8543,6.8543,6.8543,6.8321,6.8033,6.7841,6.763,6.7323,6.67,6.6344,6.6064,6.5468,6.5176,6.511,6.4602,6.4252,6.4111,6.3858,6.3712,6.36,6.36,6.36,6.36,6.36,6.3841,6.4289,6.4565,6.4945,6.5497,6.6221,6.66,6.6669,6.7325,6.7704,6.7704,6.798,6.7945,6.7738,6.7704,6.7842,6.8083,6.8083,6.8083,6.8083,6.8083,6.8083,6.8083,6.8083,6.798,6.7704,6.7428,6.729,6.729,6.729,6.729,6.7325,6.7532,6.7669,6.7738,6.7945,6.8083,6.8083,6.8083,6.7773,6.7532,6.7566,6.7704,6.7738,6.7911,6.8083,6.8083,6.8083,6.8083,6.8083,6.8083,6.8256,6.8739,6.8842,6.9153,6.9692,6.9865,7.0243,7.0829,7.1228,7.1369,7.173,7.1919,7.1951,7.181,7.1457,7.1312,7.1367,7.1457,7.1312,7.1312,7.1312,7.1312,7.1312,7.1312,7.1312,7.1312,7.1312,7.1312,7.1312,7.1312,7.1312,7.1312,7.1312,7.1312,6.8543,6.8543,6.8543,6.8543,6.8543,6.8543,6.8543,6.8543,6.8543,6.8321,6.8033,6.8033,6.7878,6.7577,6.7523,6.7469,6.7101,6.6186,6.5725,6.5661,6.4976,6.4533,6.4252,6.4074,6.382,6.3673,6.36,6.3703,6.391,6.3945,6.4358,6.5048,6.529,6.5704,6.629,6.698,6.7359,6.7463,6.7842,6.8083,6.8083,6.8083,6.8083,6.8083,6.8083,6.8083,6.8083,6.8083,6.8083,6.8083,6.8083,6.8083,6.8083,6.8083,6.8083,6.8083,6.8083,6.8083,6.8083,6.8083,6.8083,6.8083,6.8083,6.8083,6.8083,6.8083,6.8083,6.8083,6.8083,6.8083,6.8083,6.8083,6.8083,6.8083,6.8083,6.8083,6.8083,6.8083,6.8221,6.8463,6.8532,6.8877,6.9463,6.9601,6.998,7.0636,7.0739,7.105,7.167,7.1828,7.1847,7.2193,7.221,7.2159,7.1985,7.1722,7.1457,7.1546,7.1367,7.1312,7.1312,7.1312,7.1312,7.1312,7.1312,7.1312,7.1312,7.1312,7.1312,7.1312,7.1312,7.1312,7.1312,7.1312,7.1379,6.8543,6.8543,6.8543,6.8543,6.8543,6.8543,6.8543,6.8543,6.8543,6.8457,6.8408,6.8457,6.8408,6.8408,6.8358,6.8408,6.8121,6.7081,6.65,6.6476,6.5985,6.5379,6.4808,6.4706,6.4217,6.36,6.3634,6.3979,6.4565,6.4703,6.5117,6.5876,6.6497,6.6807,6.7014,6.7635,6.8014,6.8014,6.8049,6.8083,6.8083,6.8083,6.8083,6.8083,6.8083,6.8083,6.8083,6.8083,6.8083,6.8083,6.8083,6.8083,6.8083,6.8083,6.8083,6.8083,6.8083,6.8083,6.8083,6.8083,6.8083,6.8083,6.8083,6.8083,6.8083,6.8083,6.8083,6.8083,6.8083,6.8118,6.8152,6.8221,6.8152,6.8083,6.8083,6.8083,6.8152,6.8152,6.8428,6.9084,6.9291,6.9601,7.0153,7.0394,7.0705,7.1291,7.1532,7.1705,7.2326,7.2379,7.2347,7.2296,7.2245,7.2245,7.2159,7.1951,7.1776,7.16,7.1367,7.1312,7.1312,7.1312,7.1312,7.1312,7.1312,7.1312,7.1312,7.1312,7.1312,7.1312,7.1312,7.1345,7.1345,7.1379,7.1515,6.8543,6.8543,6.8543,6.8543,6.8543,6.8543,6.8543,6.8543,6.8543,6.8543,6.8543,6.8543,6.8543,6.8543,6.8543,6.8543,6.8457,6.772,6.7415,6.7305,6.6641,6.6161,6.5788,6.5141,6.4358,6.3816,6.4117,6.4462,6.4772,6.5255,6.5911,6.6566,6.6876,6.7256,6.7704,6.798,6.8083,6.8083,6.8083,6.8083,6.8083,6.8083,6.8083,6.8083,6.8083,6.8083,6.8083,6.8083,6.8083,6.8083,6.8083,6.8083,6.8083,6.8083,6.8083,6.8083,6.8083,6.8083,6.8083,6.8083,6.8083,6.8083,6.8083,6.8083,6.8083,6.8152,6.8152,6.8118,6.8118,6.8256,6.8773,6.8911,6.8704,6.8152,6.8083,6.8394,6.8877,6.9325,6.9739,6.9946,7.0049,7.0394,7.0946,7.1153,7.1463,7.2084,7.2257,7.2429,7.2602,7.2586,7.2586,7.2586,7.2501,7.2331,7.2245,7.2038,7.1898,7.1634,7.1457,7.1312,7.1312,7.1312,7.1312,7.1312,7.1312,7.1379,7.1345,7.1413,7.1447,7.1447,7.1515,7.1481,7.1413,7.1616,7.1954,6.8543,6.8543,6.8543,6.8543,6.8543,6.8543,6.8543,6.8543,6.8543,6.8543,6.8543,6.8543,6.8543,6.8543,6.8543,6.8543,6.8457,6.8171,6.8033,6.793,6.7157,6.6664,6.6319,6.5521,6.4918,6.4595,6.4922,6.529,6.5566,6.6048,6.6669,6.729,6.7394,6.7601,6.8049,6.8083,6.8083,6.8083,6.8083,6.8083,6.8083,6.8083,6.8083,6.8083,6.8083,6.8083,6.8083,6.8083,6.8083,6.8083,6.8083,6.8083,6.8083,6.8083,6.8083,6.8083,6.8083,6.8083,6.8083,6.8083,6.8256,6.8428,6.8532,6.8704,6.8877,6.8946,6.8946,6.8946,6.898,6.9153,6.9566,6.967,6.9428,6.9015,6.9015,6.9153,6.967,7.0084,7.0498,7.067,7.0808,7.1187,7.1705,7.1946,7.2119,7.2567,7.2671,7.2671,7.2671,7.2671,7.2671,7.2671,7.2671,7.2501,7.2331,7.2159,7.1985,7.1722,7.1491,7.1401,7.1312,7.1367,7.1457,7.1367,7.1367,7.1616,7.1684,7.1819,7.1887,7.1819,7.1988,7.2259,7.2462,7.2563,7.28,6.8543,6.8543,6.8543,6.8543,6.8543,6.8543,6.8543,6.8543,6.8543,6.8543,6.8543,6.8543,6.8543,6.8543,6.8654,6.8729,6.8617,6.8791,6.8779,6.8555,6.7961,6.7352,6.6715,6.6195,6.5899,6.5723,6.5947,6.645,6.7128,6.7253,6.7472,6.8068,6.8059,6.8049,6.8083,6.8083,6.8083,6.8083,6.8083,6.8083,6.8083,6.8083,6.8083,6.8083,6.8083,6.8152,6.8256,6.8394,6.8325,6.8187,6.8256,6.8325,6.8256,6.8221,6.8359,6.8428,6.8256,6.8359,6.829,6.8463,6.867,6.9256,6.936,6.9601,7.0049,7.0084,7.0084,7.0118,7.0153,7.0291,7.036,7.0429,7.0429,7.0498,7.036,7.036,7.0429,7.0532,7.1015,7.1429,7.1601,7.1808,7.2464,7.2567,7.2602,7.2636,7.2671,7.2671,7.2671,7.2671,7.2671,7.2671,7.2671,7.2586,7.2296,7.221,7.2072,7.1898,7.1668,7.1614,7.1537,7.1715,7.1783,7.1749,7.1796,7.2011,7.2157,7.236,7.2597,7.28,7.3071,7.3409,7.3443,7.3375,7.3544,6.8543,6.8543,6.8543,6.8543,6.8543,6.8543,6.8543,6.8543,6.8543,6.858,6.8543,6.8543,6.8617,6.858,6.9174,6.9397,6.9509,6.9992,7.0289,7.0239,7.005,6.9136,6.8064,6.7517,6.7159,6.6884,6.7338,6.7866,6.8576,6.853,6.8653,6.8863,6.8319,6.8083,6.8083,6.8083,6.8083,6.8083,6.8083,6.8083,6.8083,6.8118,6.8083,6.8083,6.8118,6.8428,6.8946,6.9497,6.9497,6.9015,6.898,6.9256,6.9635,6.967,6.9635,6.9635,6.9704,6.9739,6.9739,6.9704,6.9842,7.0049,7.0084,7.0187,7.0325,7.0394,7.0394,7.0394,7.0394,7.067,7.1084,7.1222,7.1429,7.1877,7.1532,7.1187,7.1291,7.1739,7.2153,7.2326,7.2326,7.2464,7.2567,7.2671,7.2671,7.2671,7.2671,7.2671,7.2671,7.2671,7.2671,7.2671,7.2671,7.2501,7.2382,7.2296,7.2159,7.1985,7.1966,7.2034,7.2063,7.2267,7.2348,7.2361,7.2553,7.2766,7.2969,7.3172,7.3443,7.3713,7.3713,7.3849,7.3849,7.3815,7.4187,6.8543,6.8543,6.8543,6.8543,6.8543,6.8543,6.8543,6.858,6.8877,6.9026,6.91,6.9397,6.9509,6.9583,7.0029,7.0215,7.0289,7.0698,7.0883,7.0907,7.1116,7.0494,6.9544,6.9151,6.8837,6.8551,6.8856,6.9244,6.9489,6.9352,6.92,6.9013,6.844,6.8083,6.8083,6.8083,6.8083,6.8083,6.8083,6.8083,6.8083,6.8428,6.8601,6.867,6.8842,6.9325,6.9773,7.0153,7.0153,6.9842,6.9739,6.9946,7.0325,7.0394,7.0394,7.0394,7.0394,7.036,7.0394,7.0394,7.0532,7.0774,7.0843,7.105,7.1291,7.136,7.136,7.1394,7.136,7.1567,7.1843,7.1981,7.2188,7.2464,7.2257,7.1981,7.1981,7.236,7.2636,7.2671,7.2671,7.2671,7.2671,7.2671,7.2671,7.2671,7.2671,7.2671,7.2671,7.2671,7.2671,7.2671,7.274,7.2655,7.2691,7.2708,7.2914,7.2707,7.2961,7.2893,7.2717,7.2935,7.3118,7.3209,7.3366,7.3578,7.3781,7.4018,7.4255,7.4424,7.4322,7.439,7.4492,7.439,7.4762,6.8691,6.8766,6.8766,6.8766,6.884,6.8803,6.8951,6.8951,6.9546,6.9843,6.9955,7.0586,7.066,7.092,7.092,7.1032,7.1069,7.1329,7.1329,7.1501,7.1784,7.1664,7.1098,7.0705,7.0508,7.0309,7.0541,7.056,7.0463,6.9849,6.9347,6.92,6.8593,6.8162,6.8083,6.8083,6.8083,6.8118,6.829,6.8359,6.8497,6.9015,6.936,6.9463,7.0049,7.036,7.0498,7.067,7.0705,7.0636,7.0567,7.0601,7.0636,7.067,7.0705,7.0774,7.0877,7.0843,7.0705,7.0877,7.0981,7.1498,7.1636,7.1877,7.2326,7.2429,7.2395,7.2395,7.2636,7.2498,7.2533,7.2602,7.2602,7.2671,7.2636,7.2671,7.2671,7.2671,7.2671,7.2671,7.2671,7.2671,7.2671,7.2671,7.2671,7.2671,7.2671,7.2671,7.2671,7.2671,7.2671,7.2671,7.2774,7.2793,7.2983,7.3241,7.3516,7.3635,7.4165,7.4302,7.3762,7.3787,7.3969,7.4058,7.4213,7.439,7.4627,7.4864,7.5033,7.5134,7.5067,7.5303,7.554,7.527,7.5371,6.9843,7.04,7.04,7.04,7.04,7.04,7.0363,7.0363,7.0549,7.066,7.0735,7.0883,7.0995,7.0995,7.1626,7.1886,7.1998,7.2444,7.2852,7.2889,7.2964,7.2986,7.2569,7.2018,7.155,7.1344,7.133,7.1573,7.1609,7.0637,7.0024,6.9884,6.8711,6.8083,6.8152,6.8187,6.8083,6.8187,6.8704,6.9015,6.9187,6.9739,7.0187,7.0256,7.0912,7.1222,7.1394,7.1877,7.2153,7.205,7.1636,7.1498,7.1912,7.205,7.2015,7.2015,7.2084,7.2119,7.2153,7.205,7.2222,7.2291,7.2326,7.2498,7.2602,7.2671,7.2671,7.2671,7.2671,7.2671,7.2671,7.2671,7.2671,7.2671,7.2671,7.2671,7.2671,7.2671,7.2671,7.2671,7.2671,7.2671,7.2671,7.2671,7.2671,7.2671,7.2671,7.2671,7.2705,7.2705,7.2843,7.2912,7.3326,7.3447,7.3654,7.4015,7.4497,7.4772,7.5234,7.5365,7.4855,7.4639,7.4694,7.4907,7.5153,7.5263,7.5202,7.5337,7.5439,7.5608,7.5676,7.5676,7.5676,7.5676,7.5676,7.0549,7.092,7.092,7.092,7.092,7.092,7.092,7.0995,7.1366,7.1515,7.1626,7.1849,7.2072,7.2109,7.2518,7.2741,7.2815,7.3149,7.3372,7.3335,7.3372,7.3372,7.332,7.2853,7.2422,7.227,7.227,7.2401,7.2071,7.1131,7.0232,7.0163,6.8863,6.8438,6.8601,6.867,6.8911,6.9222,6.9532,6.9808,6.9911,7.0532,7.1153,7.1394,7.1843,7.205,7.2119,7.2395,7.2636,7.2567,7.2291,7.2188,7.2567,7.2671,7.2671,7.2671,7.2671,7.2671,7.2671,7.2671,7.2636,7.2671,7.2671,7.2671,7.2671,7.2671,7.2671,7.2671,7.2671,7.2671,7.2671,7.2671,7.2671,7.2671,7.2671,7.2671,7.2671,7.2671,7.2671,7.2671,7.2671,7.2671,7.2671,7.2671,7.2671,7.2671,7.2671,7.2705,7.2877,7.2946,7.3222,7.3498,7.4016,7.4326,7.4464,7.4912,7.5549,7.5805,7.6128,7.6119,7.5777,7.5628,7.5417,7.5492,7.55,7.5601,7.554,7.5676,7.5676,7.5676,7.5676,7.5676,7.5676,7.5676,7.5676,7.118,7.1292,7.1292,7.1292,7.1292,7.1329,7.1403,7.1478,7.2035,7.2369,7.2481,7.3112,7.3149,7.3335,7.3298,7.3372,7.3372,7.3335,7.3372,7.3372,7.3372,7.3372,7.332,7.3215,7.3,7.2982,7.2835,7.276,7.2167,7.1131,7.0443,7.0202,6.9072,6.8853,6.9291,6.9463,6.967,7.0118,7.0394,7.0532,7.067,7.1291,7.1946,7.236,7.2498,7.2567,7.2567,7.2636,7.2671,7.2671,7.2671,7.2671,7.2671,7.2671,7.2671,7.2671,7.2671,7.2671,7.2671,7.2671,7.2671,7.2671,7.2671,7.2671,7.2671,7.2671,7.2671,7.2671,7.2671,7.2671,7.2671,7.2671,7.2671,7.2671,7.2671,7.2671,7.2671,7.2671,7.2671,7.2671,7.2671,7.2671,7.2671,7.2671,7.2671,7.2671,7.2705,7.2809,7.305,7.3291,7.3636,7.4154,7.4705,7.5395,7.5602,7.5671,7.6361,7.6479,7.6837,7.6599,7.645,7.6105,7.5756,7.5635,7.5642,7.5676,7.5676,7.5676,7.5676,7.5676,7.5676,7.5676,7.5676,7.5676,7.5676,7.2369,7.2964,7.2964,7.2964,7.2964,7.2964,7.2889,7.3001,7.3038,7.3187,7.3187,7.3335,7.3372,7.3372,7.3372,7.3372,7.3372,7.3372,7.3372,7.3372,7.3372,7.3372,7.3372,7.3469,7.3273,7.3037,7.2982,7.2888,7.2299,7.1131,7.0904,7.0842,6.984,6.9543,7.0015,7.0222,7.0325,7.0705,7.1084,7.1291,7.1463,7.1946,7.2395,7.2671,7.2671,7.2671,7.2671,7.2671,7.2671,7.2671,7.2671,7.2671,7.2671,7.2671,7.2671,7.2671,7.2671,7.2671,7.2671,7.2671,7.2671,7.2671,7.2671,7.2671,7.2671,7.2671,7.2671,7.2671,7.2671,7.2671,7.2671,7.2671,7.2671,7.2671,7.2671,7.2671,7.2671,7.2671,7.2671,7.2671,7.2671,7.2671,7.2671,7.2705,7.2809,7.2877,7.2946,7.3291,7.3671,7.3912,7.4154,7.4774,7.5464,7.6154,7.6775,7.6775,7.7016,7.6823,7.694,7.6759,7.6519,7.6275,7.5994,7.5899,7.5805,7.5805,7.5709,7.5709,7.5709,7.5709,7.5709,7.5676,7.5676,7.5676,7.5676,7.3038,7.3372,7.3372,7.3372,7.3372,7.3372,7.3372,7.3372,7.3372,7.3372,7.3372,7.3372,7.3372,7.3372,7.3372,7.3372,7.3372,7.3372,7.3372,7.3372,7.3372,7.3372,7.3521,7.3729,7.3791,7.3758,7.3811,7.366,7.3076,7.2119,7.1761,7.1623,7.0644,7.0222,7.0808,7.0946,7.1187,7.1498,7.1877,7.2084,7.2084,7.2533,7.2636,7.2671,7.2671,7.2671,7.2671,7.2671,7.2671,7.2671,7.2671,7.2671,7.2671,7.2671,7.2671,7.2671,7.2671,7.2671,7.2671,7.2671,7.2671,7.2671,7.2671,7.2671,7.2671,7.2671,7.2671,7.2671,7.2671,7.2671,7.2671,7.2671,7.2671,7.2671,7.2671,7.2671,7.2671,7.2671,7.2671,7.2671,7.2671,7.2671,7.2671,7.2774,7.2912,7.305,7.3188,7.3705,7.4292,7.4602,7.4878,7.543,7.6085,7.6533,7.712,7.7189,7.7223,7.7133,7.7133,7.6828,7.6736,7.6461,7.6368,7.6216,7.6088,7.5994,7.5899,7.5899,7.5805,7.5709,7.5709,7.5676,7.5676,7.5676,7.5676,7.3372,7.3372,7.3372,7.3372,7.3372,7.3372,7.3372,7.3372,7.3372,7.3372,7.3372,7.3372,7.3372,7.3372,7.3372,7.3372,7.3372,7.3372,7.3372,7.3447,7.3632,7.367,7.3855,7.4216,7.4589,7.457,7.5084,7.4969,7.3969,7.3014,7.2831,7.2511,7.1412,7.1145,7.178,7.1871,7.2271,7.2645,7.2755,7.2671,7.2671,7.2671,7.2671,7.2671,7.2671,7.2671,7.2671,7.2671,7.2671,7.2671,7.2671,7.2671,7.2671,7.2671,7.2671,7.2671,7.2671,7.2671,7.2671,7.2671,7.2671,7.2671,7.2671,7.2671,7.2671,7.2671,7.2671,7.2671,7.2671,7.2671,7.2671,7.2671,7.2671,7.2671,7.2671,7.2671,7.2671,7.2671,7.2671,7.2671,7.2671,7.274,7.2774,7.3084,7.3291,7.3567,7.374,7.4464,7.5016,7.5464,7.5809,7.6258,7.6706,7.6947,7.7223,7.7189,7.7223,7.7223,7.7133,7.7009,7.6918,7.6702,7.6645,7.6461,7.6461,7.6275,7.6182,7.6028,7.5805,7.5709,7.5709,7.5676,7.5676,7.5676,7.5676,7.3372,7.3372,7.3372,7.3372,7.3372,7.3372,7.3372,7.3372,7.3372,7.3372,7.3372,7.3372,7.3372,7.3372,7.3372,7.3372,7.341,7.3484,7.3521,7.3632,7.4153,7.445,7.4561,7.5142,7.5366,7.5476,7.6085,7.5859,7.5065,7.376,7.3261,7.3476,7.2647,7.2082,7.3212,7.2916,7.2914,7.3437,7.3018,7.2671,7.2671,7.2671,7.2671,7.2671,7.2671,7.2671,7.2671,7.2671,7.2671,7.2671,7.2671,7.2671,7.2671,7.2671,7.2671,7.2671,7.2671,7.2671,7.2671,7.2671,7.2671,7.2671,7.2671,7.2671,7.2671,7.2671,7.2671,7.2671,7.2671,7.2671,7.2671,7.2671,7.2671,7.2671,7.2671,7.2671,7.2671,7.2705,7.2705,7.2912,7.2981,7.2946,7.2946,7.336,7.3705,7.3981,7.4361,7.5119,7.5706,7.612,7.6395,7.6775,7.6913,7.7154,7.7223,7.7223,7.7223,7.7223,7.7133,7.7133,7.7009,7.6918,7.6884,7.6736,7.6611,7.6461,7.6275,7.6088,7.5805,7.5709,7.5676,7.5676,7.5676,7.5676,7.5676,7.3372,7.3372,7.3372,7.3372,7.3372,7.3372,7.3372,7.3372,7.3372,7.3372,7.3372,7.3372,7.3372,7.341,7.3372,7.3372,7.3484,7.3855,7.4078,7.4227,7.4858,7.5267,7.549,7.603,7.6366,7.6439,7.6901,7.7271,7.636,7.5571,7.5029,7.4968,7.4147,7.3799,7.4456,7.4187,7.3878,7.3677,7.3101,7.2755,7.2671,7.2671,7.2671,7.2671,7.2671,7.2671,7.2671,7.2671,7.2671,7.2671,7.2671,7.2671,7.2671,7.2671,7.2671,7.2671,7.2671,7.2671,7.2671,7.2671,7.2671,7.2671,7.2671,7.2671,7.2671,7.2671,7.2671,7.2671,7.2671,7.2671,7.2671,7.2671,7.2671,7.2671,7.2671,7.2671,7.2671,7.2705,7.2774,7.305,7.336,7.3498,7.3602,7.3843,7.4395,7.4981,7.5326,7.5844,7.6361,7.674,7.6947,7.7085,7.7154,7.7223,7.7223,7.7223,7.7223,7.7223,7.7223,7.7133,7.7133,7.7009,7.7009,7.6918,7.6828,7.6645,7.6402,7.6216,7.6088,7.5899,7.5676,7.5676,7.5676,7.5676,7.5676,7.3372,7.3372,7.3372,7.3372,7.3372,7.3372,7.3372,7.3372,7.3372,7.3372,7.3372,7.341,7.3484,7.367,7.3781,7.3892,7.4078,7.4598,7.4821,7.5156,7.5639,7.6084,7.6382,7.6884,7.7237,7.7088,7.757,7.7772,7.7636,7.7182,7.6574,7.6461,7.5191,7.5084,7.5227,7.4937,7.4567,7.3721,7.3101,7.2755,7.2671,7.2671,7.2671,7.2671,7.2671,7.2671,7.2671,7.2671,7.2671,7.2671,7.2671,7.2671,7.2671,7.2671,7.2671,7.2671,7.2671,7.2671,7.2671,7.2671,7.2671,7.2671,7.2671,7.2671,7.2671,7.2671,7.2671,7.2671,7.2671,7.2671,7.2671,7.2671,7.2671,7.2671,7.2671,7.2671,7.274,7.2981,7.3188,7.3429,7.3878,7.4533,7.4602,7.4533,7.5016,7.5878,7.6361,7.6637,7.6913,7.7154,7.7189,7.7223,7.7223,7.7223,7.7223,7.7223,7.7223,7.7223,7.7223,7.7223,7.7133,7.7133,7.7133,7.7043,7.7009,7.6736,7.6495,7.6402,7.6309,7.5899,7.5676,7.5676,7.5676,7.5676,7.5676,7.3372,7.3372,7.3372,7.3372,7.3372,7.3372,7.3372,7.3372,7.3372,7.341,7.3521,7.3447,7.3892,7.4338,7.4561,7.4858,7.5527,7.5676,7.5713,7.601,7.6493,7.6902,7.7199,7.7497,7.7886,7.7886,7.8034,7.8071,7.8014,7.79,7.7255,7.6583,7.5959,7.5859,7.5652,7.537,7.4642,7.3799,7.3101,7.2755,7.2671,7.2671,7.2671,7.2671,7.2671,7.2671,7.2671,7.2671,7.2671,7.2671,7.2671,7.2671,7.2671,7.2671,7.2671,7.2671,7.2671,7.2671,7.2671,7.2671,7.2671,7.2671,7.2671,7.2671,7.2671,7.2671,7.2671,7.2671,7.2671,7.2671,7.2671,7.2671,7.2671,7.274,7.2809,7.2946,7.3153,7.3567,7.3774,7.3912,7.443,7.5188,7.5671,7.5637,7.5637,7.6395,7.6671,7.6982,7.7016,7.7223,7.7223,7.7223,7.7223,7.7223,7.7223,7.7223,7.7223,7.7223,7.7223,7.7223,7.7223,7.7223,7.7223,7.7133,7.7009,7.6771,7.6587,7.6402,7.6216,7.5899,7.5676,7.5676,7.5676,7.5676,7.5676,7.3372,7.3372,7.3372,7.3372,7.3372,7.3372,7.3372,7.3372,7.341,7.3707,7.4115,7.4153,7.4561,7.5156,7.5341,7.5453,7.5861,7.6419,7.653,7.6865,7.7347,7.7756,7.7979,7.7998,7.8183,7.8221,7.8221,7.8221,7.8183,7.8165,7.79,7.7292,7.6756,7.6793,7.6534,7.5582,7.4606,7.3799,7.3183,7.2671,7.2671,7.2671,7.2671,7.2671,7.2671,7.2671,7.2671,7.2671,7.2671,7.2671,7.2671,7.2671,7.2671,7.2671,7.2671,7.2671,7.2671,7.2671,7.2671,7.2671,7.2671,7.2671,7.2671,7.2671,7.2671,7.2671,7.2671,7.2671,7.2671,7.2671,7.2671,7.2671,7.2705,7.2774,7.3015,7.3257,7.3636,7.4119,7.4568,7.4809,7.5326,7.5947,7.6395,7.674,7.674,7.6878,7.7085,7.7223,7.7223,7.7223,7.7223,7.7223,7.7223,7.7223,7.7223,7.7223,7.7223,7.7223,7.7223,7.7223,7.7223,7.7223,7.7223,7.7133,7.7043,7.6862,7.6679,7.6495,7.6216,7.5805,7.5676,7.5676,7.5676,7.5676,7.5676,7.3372,7.3372,7.3372,7.3372,7.3372,7.3372,7.3372,7.3447,7.367,7.419,7.4933,7.497,7.5416,7.5973,7.6159,7.6419,7.6716,7.7162,7.7385,7.7645,7.7942,7.8276,7.8276,7.8276,7.8276,7.8276,7.8276,7.8276,7.8276,7.8276,7.8051,7.7783,7.7703,7.7524,7.6956,7.579,7.4681,7.4111,7.3229,7.2755,7.2671,7.2671,7.2671,7.2671,7.2671,7.2671,7.2671,7.2671,7.2671,7.2671,7.2671,7.2671,7.2671,7.2671,7.2671,7.2671,7.2671,7.2671,7.2671,7.2671,7.2671,7.2671,7.2671,7.2671,7.2671,7.2671,7.2671,7.2671,7.2671,7.2671,7.2705,7.2877,7.3084,7.3291,7.3843,7.4154,7.4395,7.4809,7.5326,7.5775,7.6258,7.6602,7.674,7.7051,7.7051,7.7051,7.712,7.7223,7.7223,7.7223,7.7223,7.7223,7.7223,7.7223,7.7223,7.7223,7.7223,7.7223,7.7223,7.7223,7.7223,7.7223,7.7223,7.7133,7.7043,7.6862,7.6679,7.6402,7.6088,7.5805,7.5676,7.5676,7.5676,7.5676,7.5676,7.3372,7.3372,7.341,7.3447,7.3484,7.341,7.3447,7.3632,7.4264,7.5007,7.5713,7.5787,7.6233,7.6902,7.705,7.731,7.7756,7.8053,7.8128,7.8165,7.8165,7.8276,7.8276,7.8276,7.8276,7.8276,7.8276,7.8276,7.8276,7.8276,7.8108,7.7879,7.7703,7.7487,7.7144,7.579,7.501,7.4716,7.3311,7.2804,7.2671,7.2671,7.2671,7.2671,7.2671,7.2671,7.2671,7.2671,7.2671,7.2671,7.2671,7.2671,7.2671,7.2671,7.2671,7.2671,7.2671,7.2671,7.2671,7.2671,7.2671,7.2671,7.2671,7.2671,7.2671,7.2671,7.2671,7.2671,7.2671,7.2705,7.2946,7.3257,7.3498,7.3947,7.4533,7.4947,7.5188,7.5568,7.612,7.6395,7.6809,7.7189,7.7189,7.7223,7.7189,7.7223,7.7223,7.7223,7.7223,7.7223,7.7223,7.7223,7.7223,7.7223,7.7223,7.7223,7.7223,7.7223,7.7223,7.7223,7.7223,7.7223,7.7223,7.7223,7.7043,7.6953,7.6587,7.6309,7.5994,7.5676,7.5676,7.5676,7.5676,7.5676,7.5676,7.3372,7.3447,7.3967,7.419,7.419,7.419,7.419,7.4338,7.5044,7.5861,7.653,7.6642,7.7087,7.7682,7.7868,7.8016,7.8202,7.8276,7.8276,7.8276,7.8276,7.8276,7.8276,7.8276,7.8276,7.8276,7.8276,7.8276,7.8276,7.8276,7.8108,7.7879,7.7643,7.7082,7.6469,7.5441,7.4755,7.4111,7.3229,7.2671,7.2671,7.2671,7.2671,7.2671,7.2671,7.2671,7.2671,7.2671,7.2671,7.2671,7.2671,7.2671,7.2671,7.2671,7.2671,7.2671,7.2671,7.2671,7.2671,7.2671,7.2671,7.2671,7.2671,7.2671,7.2671,7.2671,7.2671,7.2705,7.2774,7.2946,7.3395,7.3567,7.3912,7.4602,7.5154,7.5568,7.5913,7.6464,7.6913,7.6947,7.7189,7.7223,7.7223,7.7223,7.7223,7.7223,7.7223,7.7223,7.7223,7.7223,7.7223,7.7223,7.7223,7.7223,7.7223,7.7223,7.7223,7.7223,7.7223,7.7223,7.7223,7.7223,7.7223,7.7223,7.7133,7.6953,7.6587,7.6182,7.5899,7.5676,7.5676,7.5676,7.5676,7.5676,7.5676,7.3558,7.3855,7.4375,7.4747,7.497,7.5007,7.5156,7.549,7.6047,7.6716,7.7385,7.7496,7.7756,7.8165,7.8276,7.8276,7.8276,7.8276,7.8276,7.8276,7.8276,7.8276,7.8276,7.8276,7.8276,7.8276,7.8276,7.8276,7.8276,7.8276,7.8108,7.7783,7.7524,7.7243,7.6469,7.5652,7.479,7.4111,7.3472,7.2671,7.2671,7.2671,7.2671,7.2671,7.2671,7.2671,7.2671,7.2671,7.2671,7.2671,7.2671,7.2671,7.2671,7.2671,7.2671,7.2671,7.2671,7.2671,7.2671,7.2671,7.2671,7.2671,7.2671,7.2671,7.2671,7.2671,7.2912,7.2981,7.3015,7.3498,7.4016,7.4154,7.474,7.5464,7.5844,7.6292,7.6533,7.7051,7.712,7.7189,7.7223,7.7223,7.7223,7.7223,7.7223,7.7223,7.7223,7.7223,7.7223,7.7223,7.7223,7.7223,7.7223,7.7223,7.7223,7.7223,7.7223,7.7223,7.7223,7.7223,7.7223,7.7223,7.7223,7.7223,7.7133,7.6953,7.6587,7.6182,7.5899,7.5676,7.5676,7.5676,7.5676,7.5676,7.5676,7.3892,7.4561,7.4673,7.5156,7.575,7.5936,7.6382,7.7087,7.7087,7.757,7.8239,7.8202,7.8239,7.8276,7.8276,7.8276,7.8276,7.8276,7.8276,7.8276,7.8276,7.8276,7.8276,7.8276,7.8276,7.8276,7.8276,7.8276,7.8276,7.8221,7.8071,7.7842,7.7643,7.7402,7.6728,7.579,7.5083,7.4416,7.3472,7.2838,7.2671,7.2671,7.2671,7.2671,7.2671,7.2671,7.2671,7.2671,7.2671,7.2671,7.2671,7.2671,7.2671,7.2671,7.2671,7.2671,7.2671,7.2671,7.2705,7.2705,7.2877,7.2946,7.2981,7.2809,7.2843,7.305,7.3429,7.3705,7.3843,7.4326,7.4774,7.5326,7.5844,7.6326,7.6706,7.6947,7.7051,7.7223,7.7223,7.7223,7.7223,7.7223,7.7223,7.7223,7.7223,7.7223,7.7223,7.7223,7.7223,7.7223,7.7223,7.7223,7.7223,7.7223,7.7223,7.7223,7.7223,7.7223,7.7223,7.7223,7.7223,7.7223,7.7223,7.7223,7.7223,7.6953,7.6587,7.6182,7.5805,7.5676,7.5676,7.5676,7.5676,7.5676,7.5676,7.471,7.549,7.6121,7.6493,7.679,7.731,7.7719,7.7942,7.7942,7.8128,7.8276,7.8276,7.8276,7.8276,7.8276,7.8276,7.8276,7.8276,7.8276,7.8276,7.8276,7.8276,7.8276,7.8276,7.8276,7.8276,7.8276,7.8276,7.8276,7.8221,7.8014,7.7783,7.7703,7.7524,7.6893,7.579,7.5299,7.4642,7.3472,7.2887,7.2671,7.2671,7.2671,7.2671,7.2671,7.2671,7.2671,7.2671,7.2671,7.2671,7.2671,7.2671,7.2671,7.2671,7.2671,7.2671,7.2671,7.2671,7.2774,7.3153,7.3464,7.3602,7.3912,7.3843,7.3809,7.3878,7.4257,7.4464,7.4636,7.5016,7.5499,7.6051,7.6464,7.6809,7.7085,7.7154,7.7223,7.7223,7.7223,7.7223,7.7223,7.7223,7.7223,7.7223,7.7223,7.7223,7.7223,7.7223,7.7223,7.7223,7.7223,7.7223,7.7223,7.7223,7.7223,7.7223,7.7223,7.7223,7.7223,7.7223,7.7223,7.7223,7.7223,7.7133,7.7133,7.6862,7.6587,7.6182,7.5899,7.5709,7.5676,7.5676,7.5676,7.5676,7.5676,7.5527,7.6307,7.6865,7.7273,7.7608,7.809,7.8276,7.8276,7.8276,7.8276,7.8276,7.8276,7.8276,7.8276,7.8276,7.8276,7.8276,7.8276,7.8276,7.8276,7.8276,7.8276,7.8276,7.8276,7.8276,7.8276,7.8276,7.8313,7.8276,7.8221,7.8051,7.7783,7.7703,7.7524,7.6956,7.5895,7.5155,7.4492,7.3712,7.2887,7.2671,7.2671,7.2671,7.2671,7.2671,7.2671,7.2671,7.2671,7.2671,7.2671,7.2671,7.2671,7.2671,7.2671,7.2671,7.2671,7.2671,7.2912,7.3153,7.3498,7.3878,7.4326,7.4947,7.505,7.4878,7.4809,7.5085,7.5292,7.543,7.5637,7.6154,7.6602,7.6878,7.7154,7.7189,7.7223,7.7223,7.7223,7.7223,7.7223,7.7223,7.7223,7.7223,7.7223,7.7223,7.7223,7.7223,7.7223,7.7223,7.7223,7.7223,7.7223,7.7223,7.7223,7.7223,7.7223,7.7223,7.7223,7.7223,7.7223,7.7223,7.7223,7.7223,7.7133,7.7009,7.6736,7.6587,7.6309,7.6028,7.5805,7.5676,7.5676,7.5676,7.5676,7.5676,7.6382,7.7162,7.7162,7.7608,7.8239,7.8276,7.8276,7.8276,7.8276,7.8276,7.8276,7.8276,7.8276,7.8276,7.8276,7.8276,7.8276,7.8276,7.8276,7.8276,7.8276,7.8276,7.8276,7.8276,7.8276,7.8276,7.8276,7.8276,7.8276,7.8221,7.8014,7.7783,7.7762,7.7584,7.7118,7.5757,7.501,7.4716,7.3712,7.2671,7.2671,7.2671,7.2671,7.2671,7.2671,7.2671,7.2671,7.2671,7.2671,7.2671,7.2671,7.2671,7.2671,7.2671,7.2671,7.2774,7.2843,7.3153,7.3636,7.405,7.4533,7.5085,7.574,7.6016,7.5913,7.574,7.5913,7.6085,7.6223,7.6361,7.674,7.6913,7.7085,7.7189,7.7223,7.7223,7.7223,7.7223,7.7223,7.7223,7.7223,7.7223,7.7223,7.7223,7.7223,7.7223,7.7223,7.7223,7.7223,7.7223,7.7223,7.7223,7.7223,7.7223,7.7223,7.7223,7.7223,7.7223,7.7223,7.7223,7.7223,7.7223,7.7223,7.7133,7.7009,7.6771,7.6587,7.6309,7.6122,7.5805,7.5676,7.5676,7.5676,7.5676,7.5676,7.7236,7.7979,7.7979,7.8128,7.8276,7.8276,7.8276,7.8276,7.8276,7.8276,7.8276,7.8276,7.8276,7.8276,7.8276,7.8276,7.8276,7.8276,7.8276,7.8276,7.8276,7.8276,7.8276,7.8276,7.8276,7.8276,7.8276,7.8276,7.8276,7.8165,7.8014,7.782,7.7762,7.7584,7.7181,7.5826,7.501,7.4864,7.3552,7.2755,7.2671,7.2671,7.2671,7.2671,7.2671,7.2671,7.2671,7.2671,7.2671,7.2671,7.2671,7.2671,7.2671,7.2671,7.2671,7.2774,7.3188,7.3567,7.4154,7.4774,7.543,7.5844,7.6395,7.6775,7.6878,7.674,7.6706,7.6844,7.6947,7.7085,7.7154,7.7189,7.7223,7.7223,7.7223,7.7223,7.7223,7.7223,7.7223,7.7223,7.7223,7.7223,7.7223,7.7223,7.7223,7.7223,7.7223,7.7223,7.7223,7.7223,7.7223,7.7223,7.7223,7.7223,7.7223,7.7223,7.7223,7.7223,7.7223,7.7223,7.7223,7.7223,7.7223,7.7223,7.7133,7.6862,7.6679,7.6495,7.6275,7.5899,7.5805,7.5899,7.5805,7.5805,7.5709,7.7868,7.8276,7.8276,7.8276,7.8276,7.8276,7.8276,7.8276,7.8276,7.8276,7.8276,7.8276,7.8276,7.8276,7.8276,7.8276,7.8276,7.8276,7.8276,7.8276,7.8276,7.8276,7.8276,7.8276,7.8276,7.8276,7.8276,7.8276,7.8276,7.8221,7.8071,7.782,7.7703,7.7524,7.7118,7.5895,7.501,7.4937,7.3472,7.2804,7.2671,7.2671,7.2671,7.2671,7.2671,7.2671,7.2671,7.2671,7.2671,7.2671,7.2671,7.2671,7.2671,7.2671,7.2877,7.3188,7.3602,7.4085,7.4809,7.5533,7.6292,7.6602,7.6844,7.712,7.7154,7.6982,7.6982,7.7085,7.7085,7.7189,7.7189,7.7223,7.7223,7.7223,7.7223,7.7223,7.7223,7.7223,7.7223,7.7223,7.7223,7.7223,7.7223,7.7223,7.7223,7.7223,7.7223,7.7223,7.7223,7.7223,7.7223,7.7223,7.7223,7.7223,7.7223,7.7223,7.7223,7.7223,7.7223,7.7223,7.7223,7.7223,7.7223,7.7223,7.7133,7.7009,7.6828,7.6645,7.6495,7.6275,7.6088,7.6088,7.5994,7.5805,7.5805,7.8276,7.8276,7.8276,7.8276,7.8276,7.8276,7.8276,7.8276,7.8276,7.8276,7.8276,7.8276,7.8276,7.8276,7.8276,7.8276,7.8276,7.8276,7.8276,7.8276,7.8276,7.8276,7.8276,7.8276,7.8276,7.8276,7.8276,7.8276,7.8313,7.8221,7.8014,7.7842,7.7725,7.7607,7.692,7.5927,7.501,7.4642,7.3712,7.2804,7.2671,7.2671,7.2671,7.2671,7.2671,7.2671,7.2671,7.2671,7.2671,7.2671,7.2671,7.2671,7.2671,7.2705,7.3153,7.3464,7.3947,7.474,7.5637,7.612,7.6637,7.7016,7.7189,7.7223,7.7223,7.7223,7.7223,7.7223,7.7223,7.7223,7.7223,7.7223,7.7223,7.7223,7.7223,7.7223,7.7223,7.7223,7.7223,7.7223,7.7223,7.7223,7.7223,7.7223,7.7223,7.7223,7.7223,7.7223,7.7223,7.7223,7.7223,7.7223,7.7223,7.7223,7.7223,7.7223,7.7223,7.7223,7.7223,7.7223,7.7223,7.7223,7.7223,7.7223,7.7133,7.7009,7.6918,7.6736,7.6645,7.6495,7.6402,7.6216,7.6122,7.6028,7.5899,7.8276,7.8276,7.8276,7.8276,7.8276,7.8276,7.8276,7.8276,7.8276,7.8276,7.8276,7.8276,7.8276,7.8276,7.8276,7.8276,7.8276,7.8276,7.8276,7.8276,7.8276,7.8276,7.8276,7.8276,7.8276,7.8276,7.8276,7.8276,7.8276,7.8165,7.7957,7.7783,7.7703,7.7426,7.7082,7.6032,7.4937,7.4492,7.3712,7.2671,7.2671,7.2671,7.2671,7.2671,7.2671,7.2671,7.2671,7.2671,7.2671,7.2671,7.2671,7.2671,7.2705,7.2809,7.3257,7.3912,7.4361,7.5223,7.6051,7.6602,7.7051,7.712,7.7223,7.7223,7.7223,7.7223,7.7223,7.7223,7.7223,7.7223,7.7223,7.7223,7.7223,7.7223,7.7223,7.7223,7.7223,7.7223,7.7223,7.7223,7.7223,7.7223,7.7223,7.7223,7.7223,7.7223,7.7223,7.7223,7.7223,7.7223,7.7223,7.7223,7.7223,7.7223,7.7223,7.7223,7.7223,7.7223,7.7223,7.7223,7.7223,7.7223,7.7223,7.7223,7.7133,7.7133,7.7009,7.6918,7.6736,7.6679,7.6495,7.6402,7.6216,7.6122,7.6028]},{"header":{"parameterUnit":"m.s-1","parameterCategory":1,"la1":31.0,"la2":29.5877,"lo1":-88.7671,"lo2":-86.6584,"dy":0.0162,"dx":0.0185,"nx":115,"ny":88,"refTime":"2024-02-09T06:00:00:Z","depth":0,"parameterNumber":3,"parameterNumberName":"V-component_of_WINDS"},"data":[0.0,0.0,0.0,0.0,0.0,0.0,0.0,0.0,0.0,0.0,0.0,0.0,0.0,0.0,0.0,0.0,0.0,0.0,0.0,0.0,0.0,0.0,0.0,0.0,0.0,0.0,0.0,0.0,0.0,0.0,0.0,0.0,0.0,0.0,0.0,0.0,0.0,0.0,0.0,0.0,0.0,0.0,0.0,0.0,0.0,0.0,0.0,0.0,0.0,0.0,0.0,0.0,0.0,0.0,0.0,0.0,0.0,0.0,0.0,0.0,0.0,0.0,0.0,0.0,0.0,0.0,0.0,0.0,0.0,0.0,0.0,0.0,0.0,0.0,0.0,0.0,0.0,0.0,0.0,0.0,0.0,0.0,0.0,0.0,0.0,0.0,0.0,0.0,0.0,0.0,0.0,0.0,0.0,0.0,0.0,0.0,0.0,0.0,0.0,0.0,0.0,0.0,0.0,0.0,0.0,0.0,0.0,0.0,0.0,0.0,0.0,0.0,0.0,0.0,0.0,0.0,0.0,0.0,0.0,0.0,0.0,0.0,0.0,0.0,0.0,0.0,0.0,0.0,0.0,0.0,0.0,0.0,0.0,0.0,0.0,0.0,0.0,0.0,0.0,0.0,0.0,0.0,0.0,0.0,0.0,0.0,0.0,0.0,0.0,0.0,0.0,0.0,0.0,0.0,0.0,0.0,0.0,0.0,0.0,0.0,0.0,0.0,0.0,0.0,0.0,0.0,0.0,0.0,0.0,0.0,0.0,0.0,0.0,0.0,0.0,0.0,0.0,0.0,0.0,0.0,0.0,0.0,0.0,0.0,0.0,0.0,0.0,0.0,0.0,0.0,0.0,0.0,0.0,0.0,0.0,0.0,0.0,0.0,0.0,0.0,0.0,0.0,0.0,0.0,0.0,0.0,0.0,0.0,0.0,0.0,0.0,0.0,0.0,0.0,0.0,0.0,0.0,0.0,0.0,0.0,0.0,0.0,0.0,0.0,0.0,0.0,0.0,0.0,0.0,0.0,0.0,0.0,0.0,0.0,0.0,0.0,0.0,0.0,0.0,0.0,0.0,0.0,0.0,0.0,0.0,0.0,0.0,0.0,0.0,0.0,0.0,0.0,0.0,0.0,0.0,0.0,0.0,0.0,0.0,0.0,0.0,0.0,0.0,0.0,0.0,0.0,0.0,0.0,0.0,0.0,0.0,0.0,0.0,0.0,0.0,0.0,0.0,0.0,0.0,0.0,0.0,0.0,0.0,0.0,0.0,0.0,0.0,0.0,0.0,0.0,0.0,0.0,0.0,0.0,0.0,0.0,0.0,0.0,0.0,0.0,0.0,0.0,0.0,0.0,0.0,0.0,0.0,0.0,0.0,0.0,0.0,0.0,0.0,0.0,0.0,0.0,0.0,0.0,0.0,0.0,0.0,0.0,0.0,0.0,0.0,0.0,0.0,0.0,0.0,0.0,0.0,0.0,0.0,0.0,0.0,0.0,0.0,0.0,0.0,0.0,0.0,0.0,0.0,0.0,0.0,0.0,0.0,0.0,0.0,0.0,0.0,0.0,0.0,0.0,0.0,0.0,0.0,0.0,0.0,0.0,0.0,0.0,0.0,0.0,0.0,0.0,0.0,0.0,0.0,0.0,0.0,0.0,0.0,0.0,0.0,0.0,0.0,0.0,0.0,0.0,0.0,0.0,0.0,0.0,0.0,0.0,0.0,0.0,0.0,0.0,0.0,0.0,0.0,0.0,0.0,0.0,0.0,0.0,0.0,0.0,0.0,0.0,0.0,0.0,0.0,0.0,0.0,0.0,0.0,0.0,0.0,0.0,0.0,0.0,0.0,0.0,0.0,0.0,0.0,0.0,0.0,0.0,0.0,0.0,0.0,0.0,0.0,0.0,0.0,0.0,0.0,0.0,0.0,0.0,0.0,0.0,0.0,0.0,0.0,0.0,0.0,0.0,0.0,0.0,0.0,0.0,0.0,0.0,0.0,0.0,0.0,0.0,0.0,0.0,0.0,0.0,0.0,0.0,0.0,0.0,0.0,0.0,0.0,0.0,0.0,0.0,0.0,0.0,0.0,0.0,0.0,0.0,0.0,0.0,0.0,0.0,0.0,0.0,0.0,0.0,0.0,0.0,0.0,0.0,0.0,0.0,0.0,0.0,0.0,0.0,0.0,0.0,0.0,0.0,0.0,0.0,0.0,0.0,0.0,0.0,0.0,0.0,0.0,0.0,0.0,0.0,0.0,0.0,0.0,0.0,0.0,0.0,0.0,0.0,0.0,0.0,0.0,0.0,0.0,0.0,0.0,0.0,0.0,0.0,0.0,0.0,0.0,0.0,0.0,0.0,0.0,0.0,0.0,0.0,0.0,0.0,0.0,0.0,0.0,0.0,0.0,0.0,0.0,0.0,0.0,0.0,0.0,0.0,0.0,0.0,0.0,0.0,0.0,0.0,0.0,0.0,0.0,0.0,0.0,0.0,0.0,0.0,0.0,0.0,0.0,0.0,0.0,0.0,0.0,0.0,0.0,0.0,0.0,0.0,0.0,0.0,0.0,0.0,0.0,0.0,0.0,0.0,0.0,0.0,0.0,0.0,0.0,0.0,0.0,0.0,0.0,0.0,0.0,0.0,0.0,0.0,0.0,0.0,0.0,0.0,0.0,0.0,0.0,0.0,0.0,0.0,0.0,0.0,0.0,0.0,0.0,0.0,0.0,0.0,0.0,0.0,0.0,0.0,0.0,0.0,0.0,0.0,0.0,0.0,0.0,0.0,0.0,0.0,0.0,0.0,0.0,0.0,0.0,0.0,0.0,0.0,0.0,0.0,0.0,0.0,0.0,0.0,0.0,0.0,0.0,0.0,0.0,0.0,0.0,0.0,0.0,0.0,0.0,0.0,0.0,0.0,0.0,0.0,0.0,0.0,0.0,0.0,0.0,0.0,0.0,0.0,0.0,0.0,0.0,0.0,0.0,0.0,0.0,0.0,0.0,0.0,0.0,0.0,0.0,0.0,0.0,0.0,0.0,0.0,0.0,0.0,0.0,0.0,0.0,0.0,0.0,0.0,0.0,0.0,0.0,0.0,0.0,0.0,0.0,0.0,0.0,0.0,0.0,0.0,0.0,0.0,0.0,0.0,0.0,0.0,0.0,0.0,0.0,0.0,0.0,0.0,0.0,0.0,0.0,0.0,0.0,0.0,0.0,0.0,0.0,0.0,0.0,0.0,0.0,0.0,0.0,0.0,0.0,0.0,0.0,0.0,0.0,0.0,0.0,0.0,0.0,0.0,0.0,0.0,0.0,0.0,0.0,0.0,0.0,0.0,0.0,0.0,0.0,0.0,0.0,0.0,0.0,0.0,0.0,0.0,0.0,0.0,0.0,0.0,0.0,0.0,0.0,0.0,0.0,0.0,0.0,0.0,0.0,0.0,0.0,0.0,0.0,0.0,0.0,0.0,0.0,0.0,0.0,0.0,0.0,0.0,0.0,0.0,0.0,0.0,0.0,0.0,0.0,0.0,0.0,0.0,0.0,0.0,0.0,0.0,0.0,0.0,0.0,0.0,0.0,0.0,0.0,0.0,0.0,0.0,0.0,0.0,0.0,0.0,0.0,0.0,0.0,0.0,0.0,0.0,0.0,0.0,0.0,0.0,0.0,0.0,0.0,0.0,0.0,0.0,0.0,0.0,0.0,0.0,0.0,0.0,0.0,0.0,0.0,0.0,0.0,0.0,0.0,0.0,0.0,0.0,0.0,0.0,0.0,0.0,0.0,0.0,0.0,0.0,0.0,0.0,0.0,0.0,0.0,0.0,0.0,0.0,0.0,0.0,0.0,0.0,0.0,0.0,0.0,0.0,0.0,0.0,0.0,0.0,0.0,0.0,0.0,0.0,0.0,0.0,0.0,0.0,0.0,0.0,0.0,0.0,0.0,0.0,0.0,0.0,0.0,0.0,0.0,0.0,0.0,0.0,0.0,0.0,0.0,0.0,0.0,0.0,0.0,0.0,0.0,0.0,0.0,0.0,0.0,0.0,0.0,0.0,0.0,0.0,0.0,0.0,0.0,0.0,0.0,0.0,0.0,0.0,0.0,0.0,0.0,0.0,0.0,0.0,0.0,0.0,0.0,0.0,0.0,0.0,0.0,0.0,0.0,0.0,0.0,0.0,0.0,0.0,0.0,0.0,0.0,0.0,0.0,0.0,0.0,0.0,0.0,0.0,0.0,0.0,0.0,0.0,0.0,0.0,0.0,0.0,0.0,0.0,0.0,0.0,0.0,0.0,-1.8085,0.0,0.0,0.0,0.0,0.0,0.0,0.0,0.0,0.0,0.0,0.0,0.0,0.0,0.0,0.0,0.0,0.0,0.0,0.0,0.0,0.0,0.0,0.0,0.0,0.0,0.0,0.0,0.0,0.0,0.0,0.0,0.0,0.0,0.0,0.0,0.0,0.0,0.0,0.0,0.0,0.0,0.0,0.0,0.0,0.0,0.0,0.0,0.0,0.0,0.0,0.0,0.0,0.0,0.0,0.0,0.0,0.0,0.0,0.0,0.0,0.0,0.0,0.0,0.0,0.0,0.0,0.0,0.0,0.0,0.0,0.0,0.0,0.0,0.0,0.0,0.0,0.0,0.0,0.0,0.0,0.0,0.0,0.0,0.0,0.0,0.0,0.0,0.0,0.0,0.0,0.0,0.0,0.0,0.0,0.0,0.0,0.0,0.0,0.0,0.0,0.0,0.0,0.0,0.0,0.0,0.0,0.0,0.0,0.0,0.0,-1.8839,-1.8975,-1.8758,-1.8494,-1.8229,0.0,0.0,0.0,0.0,0.0,0.0,0.0,0.0,0.0,0.0,0.0,0.0,0.0,0.0,0.0,0.0,0.0,0.0,0.0,0.0,0.0,0.0,0.0,0.0,0.0,0.0,0.0,0.0,0.0,0.0,0.0,0.0,0.0,0.0,0.0,0.0,0.0,0.0,0.0,0.0,0.0,0.0,0.0,0.0,0.0,0.0,0.0,0.0,0.0,0.0,0.0,0.0,0.0,0.0,0.0,0.0,0.0,0.0,0.0,0.0,0.0,0.0,0.0,0.0,0.0,0.0,0.0,0.0,0.0,0.0,0.0,0.0,0.0,0.0,0.0,0.0,0.0,0.0,0.0,0.0,0.0,0.0,0.0,0.0,0.0,0.0,0.0,0.0,0.0,0.0,0.0,0.0,0.0,0.0,0.0,0.0,0.0,0.0,0.0,0.0,0.0,0.0,0.0,0.0,0.0,0.0,0.0,0.0,0.0,0.0,0.0,0.0,-1.9528,-1.9336,-1.8975,0.0,0.0,0.0,0.0,0.0,0.0,0.0,0.0,0.0,0.0,0.0,0.0,0.0,0.0,0.0,0.0,0.0,0.0,0.0,0.0,0.0,0.0,0.0,0.0,0.0,0.0,0.0,0.0,0.0,0.0,0.0,0.0,0.0,0.0,0.0,0.0,0.0,0.0,0.0,0.0,0.0,0.0,0.0,0.0,0.0,0.0,0.0,0.0,0.0,0.0,0.0,0.0,0.0,0.0,0.0,0.0,0.0,0.0,0.0,0.0,0.0,0.0,0.0,0.0,0.0,0.0,0.0,0.0,0.0,0.0,0.0,0.0,0.0,0.0,0.0,0.0,0.0,0.0,0.0,0.0,0.0,0.0,0.0,0.0,0.0,0.0,0.0,0.0,0.0,0.0,0.0,0.0,0.0,0.0,0.0,0.0,0.0,0.0,0.0,0.0,0.0,0.0,0.0,0.0,0.0,0.0,0.0,0.0,0.0,0.0,-1.9696,-2.1139,-2.1187,0.0,-2.1163,0.0,0.0,0.0,0.0,0.0,0.0,0.0,0.0,0.0,0.0,0.0,0.0,0.0,0.0,0.0,0.0,0.0,0.0,0.0,0.0,0.0,0.0,0.0,0.0,0.0,0.0,0.0,0.0,0.0,0.0,0.0,0.0,0.0,0.0,0.0,0.0,0.0,0.0,0.0,0.0,0.0,0.0,0.0,0.0,0.0,0.0,0.0,0.0,0.0,0.0,0.0,0.0,0.0,0.0,0.0,0.0,0.0,0.0,0.0,0.0,0.0,0.0,0.0,0.0,0.0,0.0,0.0,0.0,0.0,0.0,0.0,0.0,0.0,0.0,0.0,0.0,0.0,0.0,0.0,0.0,0.0,0.0,0.0,0.0,0.0,0.0,0.0,0.0,0.0,0.0,0.0,0.0,0.0,0.0,0.0,0.0,0.0,0.0,0.0,0.0,0.0,0.0,0.0,0.0,0.0,0.0,0.0,0.0,0.0,0.0,-2.0358,-2.1404,-2.12,-2.12,0.0,0.0,0.0,0.0,0.0,0.0,0.0,0.0,0.0,0.0,0.0,0.0,0.0,0.0,0.0,0.0,0.0,0.0,0.0,0.0,0.0,0.0,0.0,0.0,0.0,0.0,0.0,0.0,0.0,0.0,0.0,0.0,0.0,0.0,0.0,0.0,0.0,0.0,0.0,0.0,0.0,0.0,0.0,0.0,0.0,0.0,0.0,0.0,0.0,0.0,0.0,0.0,0.0,0.0,0.0,0.0,0.0,0.0,0.0,0.0,0.0,0.0,0.0,0.0,0.0,0.0,0.0,0.0,0.0,0.0,0.0,0.0,0.0,0.0,0.0,0.0,0.0,0.0,0.0,0.0,0.0,0.0,0.0,0.0,0.0,0.0,0.0,0.0,0.0,0.0,0.0,0.0,0.0,0.0,0.0,0.0,0.0,0.0,0.0,0.0,0.0,0.0,0.0,0.0,0.0,0.0,0.0,0.0,0.0,0.0,-2.0463,-2.0965,-2.182,-2.1658,-2.1436,-2.1187,0.0,0.0,0.0,0.0,0.0,0.0,0.0,0.0,0.0,0.0,0.0,0.0,0.0,0.0,0.0,0.0,0.0,0.0,0.0,0.0,0.0,0.0,0.0,0.0,0.0,0.0,0.0,0.0,0.0,0.0,0.0,0.0,0.0,0.0,0.0,0.0,0.0,0.0,0.0,0.0,0.0,0.0,0.0,0.0,0.0,0.0,0.0,0.0,0.0,0.0,0.0,0.0,0.0,0.0,0.0,0.0,0.0,0.0,0.0,0.0,0.0,0.0,0.0,0.0,0.0,0.0,0.0,0.0,0.0,0.0,0.0,0.0,0.0,0.0,0.0,0.0,0.0,0.0,0.0,0.0,0.0,0.0,0.0,0.0,0.0,0.0,0.0,0.0,0.0,0.0,0.0,0.0,0.0,0.0,0.0,0.0,0.0,0.0,0.0,0.0,0.0,0.0,0.0,0.0,0.0,0.0,0.0,0.0,-2.284,-2.1495,-2.1455,-2.2995,-2.3152,-2.236,0.0,0.0,0.0,0.0,0.0,0.0,0.0,0.0,0.0,0.0,0.0,0.0,0.0,0.0,0.0,0.0,0.0,0.0,0.0,0.0,0.0,0.0,0.0,0.0,0.0,0.0,0.0,0.0,0.0,0.0,0.0,0.0,0.0,0.0,0.0,0.0,0.0,0.0,0.0,0.0,0.0,0.0,0.0,0.0,0.0,0.0,0.0,0.0,0.0,0.0,0.0,0.0,0.0,0.0,0.0,0.0,0.0,0.0,0.0,0.0,0.0,0.0,0.0,0.0,0.0,0.0,0.0,0.0,0.0,0.0,0.0,0.0,0.0,0.0,0.0,0.0,0.0,0.0,0.0,0.0,0.0,0.0,0.0,0.0,0.0,0.0,0.0,0.0,0.0,0.0,0.0,0.0,0.0,0.0,0.0,0.0,0.0,0.0,0.0,0.0,0.0,0.0,0.0,0.0,0.0,0.0,0.0,0.0,0.0,-1.9448,-2.0155,-2.1777,-2.4116,-2.2059,-2.1074,0.0,0.0,0.0,0.0,0.0,0.0,0.0,0.0,0.0,0.0,0.0,0.0,0.0,0.0,0.0,0.0,0.0,0.0,0.0,0.0,0.0,0.0,0.0,0.0,0.0,0.0,0.0,0.0,0.0,0.0,0.0,0.0,0.0,0.0,0.0,0.0,0.0,0.0,0.0,0.0,0.0,0.0,0.0,0.0,0.0,0.0,0.0,0.0,0.0,0.0,0.0,0.0,0.0,0.0,0.0,0.0,0.0,0.0,0.0,0.0,0.0,0.0,0.0,0.0,0.0,0.0,0.0,0.0,0.0,0.0,0.0,0.0,0.0,0.0,0.0,0.0,0.0,0.0,0.0,0.0,0.0,0.0,0.0,0.0,0.0,0.0,0.0,0.0,0.0,0.0,0.0,0.0,0.0,0.0,0.0,0.0,0.0,0.0,0.0,0.0,0.0,0.0,0.0,0.0,0.0,0.0,0.0,0.0,0.0,-1.8827,0.0,-2.2819,-2.4066,-2.1786,-2.0442,0.0,0.0,0.0,0.0,0.0,0.0,0.0,0.0,0.0,0.0,0.0,0.0,0.0,0.0,0.0,0.0,0.0,0.0,0.0,0.0,0.0,0.0,0.0,0.0,0.0,0.0,0.0,0.0,0.0,0.0,0.0,0.0,0.0,0.0,0.0,0.0,0.0,0.0,0.0,0.0,0.0,0.0,0.0,0.0,0.0,0.0,0.0,0.0,0.0,0.0,0.0,0.0,0.0,0.0,0.0,0.0,0.0,0.0,0.0,0.0,0.0,0.0,0.0,0.0,0.0,0.0,0.0,0.0,0.0,0.0,0.0,0.0,0.0,0.0,0.0,0.0,0.0,0.0,0.0,0.0,0.0,0.0,0.0,0.0,0.0,0.0,0.0,0.0,0.0,0.0,0.0,0.0,0.0,0.0,0.0,0.0,0.0,0.0,0.0,0.0,0.0,0.0,0.0,0.0,0.0,0.0,0.0,0.0,-1.84,-2.1675,-2.4167,-2.4541,-2.2777,-2.2465,-2.0711,0.0,0.0,0.0,0.0,0.0,0.0,0.0,0.0,0.0,0.0,0.0,0.0,0.0,0.0,0.0,0.0,0.0,0.0,0.0,0.0,0.0,0.0,0.0,0.0,0.0,0.0,0.0,0.0,0.0,0.0,0.0,0.0,0.0,0.0,0.0,0.0,0.0,0.0,0.0,0.0,0.0,0.0,0.0,0.0,0.0,0.0,0.0,0.0,0.0,0.0,0.0,0.0,0.0,0.0,0.0,0.0,0.0,0.0,0.0,0.0,0.0,0.0,0.0,0.0,0.0,0.0,0.0,0.0,0.0,0.0,0.0,0.0,0.0,0.0,0.0,0.0,0.0,0.0,0.0,0.0,0.0,0.0,0.0,0.0,0.0,0.0,0.0,0.0,0.0,0.0,0.0,0.0,0.0,0.0,0.0,0.0,0.0,0.0,0.0,0.0,0.0,0.0,0.0,0.0,0.0,0.0,0.0,0.0,0.0,-1.9749,-2.18,-2.3184,-2.3816,-2.1286,-2.0172,0.0,0.0,0.0,0.0,0.0,0.0,0.0,0.0,0.0,0.0,0.0,0.0,0.0,0.0,0.0,0.0,0.0,0.0,0.0,0.0,0.0,0.0,0.0,0.0,0.0,0.0,0.0,0.0,0.0,0.0,0.0,0.0,0.0,0.0,0.0,0.0,0.0,0.0,0.0,0.0,0.0,0.0,0.0,0.0,0.0,0.0,0.0,0.0,0.0,0.0,0.0,0.0,0.0,0.0,0.0,0.0,0.0,0.0,0.0,0.0,0.0,0.0,0.0,0.0,0.0,0.0,0.0,0.0,0.0,0.0,0.0,0.0,0.0,0.0,0.0,0.0,0.0,0.0,0.0,0.0,0.0,0.0,0.0,0.0,0.0,0.0,0.0,0.0,0.0,0.0,0.0,0.0,0.0,0.0,0.0,0.0,0.0,0.0,0.0,0.0,0.0,0.0,0.0,0.0,0.0,0.0,0.0,0.0,0.0,-2.0754,-2.2657,-2.4105,-2.4763,-2.1892,-2.0884,-2.172,0.0,0.0,0.0,0.0,0.0,0.0,0.0,0.0,0.0,0.0,0.0,0.0,0.0,0.0,0.0,0.0,0.0,0.0,0.0,0.0,0.0,0.0,0.0,0.0,0.0,0.0,0.0,0.0,0.0,0.0,0.0,0.0,0.0,0.0,0.0,0.0,0.0,0.0,0.0,0.0,0.0,0.0,0.0,0.0,0.0,0.0,0.0,0.0,0.0,0.0,0.0,0.0,0.0,0.0,0.0,0.0,0.0,0.0,0.0,0.0,0.0,0.0,0.0,0.0,0.0,0.0,0.0,0.0,0.0,0.0,0.0,0.0,0.0,0.0,0.0,0.0,0.0,0.0,0.0,0.0,0.0,0.0,0.0,0.0,0.0,0.0,0.0,0.0,0.0,0.0,0.0,0.0,0.0,0.0,0.0,0.0,0.0,0.0,0.0,0.0,0.0,0.0,0.0,0.0,0.0,0.0,0.0,0.0,-2.3991,-2.6215,-2.6715,-2.5365,-2.4051,-2.2655,0.0,0.0,0.0,0.0,0.0,0.0,0.0,0.0,0.0,0.0,0.0,0.0,0.0,0.0,0.0,0.0,0.0,0.0,0.0,0.0,0.0,0.0,0.0,0.0,0.0,0.0,0.0,0.0,0.0,0.0,0.0,0.0,0.0,0.0,0.0,0.0,0.0,0.0,0.0,0.0,0.0,0.0,0.0,0.0,0.0,0.0,0.0,0.0,0.0,0.0,0.0,0.0,0.0,0.0,0.0,0.0,0.0,0.0,0.0,0.0,0.0,0.0,0.0,0.0,0.0,0.0,0.0,0.0,0.0,0.0,0.0,0.0,0.0,0.0,0.0,0.0,0.0,0.0,0.0,0.0,0.0,0.0,0.0,0.0,0.0,0.0,0.0,0.0,0.0,0.0,0.0,0.0,0.0,0.0,0.0,0.0,0.0,0.0,0.0,0.0,0.0,0.0,0.0,0.0,0.0,0.0,0.0,0.0,0.0,-2.551,-2.6884,-2.7362,-2.6941,-2.4867,-2.3536,0.0,0.0,0.0,0.0,0.0,0.0,0.0,0.0,0.0,0.0,0.0,0.0,0.0,0.0,0.0,0.0,0.0,0.0,0.0,0.0,0.0,0.0,0.0,0.0,0.0,0.0,0.0,0.0,0.0,0.0,0.0,0.0,0.0,0.0,0.0,0.0,0.0,0.0,0.0,0.0,0.0,0.0,0.0,0.0,0.0,0.0,0.0,0.0,0.0,0.0,0.0,0.0,0.0,0.0,0.0,0.0,0.0,0.0,0.0,0.0,0.0,0.0,0.0,0.0,0.0,0.0,0.0,0.0,0.0,0.0,0.0,0.0,0.0,0.0,0.0,0.0,0.0,0.0,0.0,0.0,0.0,0.0,0.0,0.0,0.0,0.0,0.0,0.0,0.0,0.0,0.0,0.0,0.0,0.0,0.0,0.0,0.0,0.0,0.0,0.0,0.0,0.0,0.0,0.0,0.0,0.0,0.0,0.0,-2.4525,-2.6665,-2.7554,-2.7971,-2.793,-2.6431,-2.5291,0.0,0.0,0.0,0.0,0.0,0.0,0.0,0.0,0.0,0.0,0.0,0.0,0.0,0.0,0.0,0.0,0.0,0.0,0.0,0.0,0.0,0.0,0.0,0.0,0.0,0.0,0.0,0.0,0.0,0.0,0.0,0.0,0.0,0.0,0.0,0.0,0.0,0.0,0.0,0.0,0.0,0.0,0.0,0.0,0.0,0.0,0.0,0.0,0.0,0.0,0.0,0.0,0.0,0.0,0.0,0.0,0.0,0.0,0.0,0.0,0.0,0.0,0.0,0.0,0.0,0.0,0.0,0.0,0.0,0.0,0.0,0.0,0.0,0.0,0.0,0.0,0.0,0.0,0.0,0.0,0.0,0.0,0.0,0.0,0.0,0.0,0.0,0.0,0.0,0.0,0.0,0.0,0.0,0.0,0.0,0.0,0.0,0.0,0.0,0.0,0.0,0.0,0.0,0.0,0.0,0.0,0.0,0.0,-2.5377,-2.7578,-2.8219,-2.8462,-2.8505,-2.8237,-2.726,0.0,0.0,0.0,0.0,0.0,0.0,0.0,0.0,0.0,0.0,0.0,0.0,0.0,0.0,0.0,0.0,0.0,0.0,0.0,0.0,0.0,0.0,0.0,0.0,0.0,0.0,0.0,0.0,0.0,0.0,0.0,0.0,0.0,0.0,0.0,0.0,0.0,0.0,0.0,0.0,0.0,0.0,0.0,0.0,0.0,0.0,0.0,0.0,0.0,0.0,0.0,0.0,0.0,0.0,0.0,0.0,0.0,0.0,0.0,0.0,0.0,0.0,0.0,0.0,0.0,0.0,0.0,0.0,0.0,0.0,0.0,0.0,0.0,0.0,0.0,0.0,0.0,0.0,0.0,0.0,0.0,0.0,0.0,0.0,0.0,0.0,0.0,0.0,0.0,0.0,0.0,0.0,0.0,0.0,0.0,0.0,0.0,0.0,0.0,0.0,0.0,0.0,0.0,0.0,0.0,0.0,0.0,0.0,-2.6427,-2.8026,-2.8592,-2.8847,-2.8847,-2.8377,-2.7324,0.0,0.0,0.0,0.0,0.0,0.0,0.0,0.0,0.0,0.0,0.0,0.0,0.0,0.0,0.0,0.0,0.0,0.0,0.0,0.0,0.0,0.0,0.0,0.0,0.0,0.0,0.0,0.0,0.0,0.0,0.0,0.0,0.0,0.0,0.0,0.0,0.0,0.0,0.0,0.0,0.0,0.0,0.0,0.0,0.0,0.0,0.0,0.0,-2.5555,0.0,0.0,0.0,0.0,0.0,0.0,0.0,0.0,0.0,0.0,0.0,0.0,0.0,0.0,0.0,0.0,0.0,0.0,0.0,0.0,0.0,0.0,0.0,0.0,0.0,0.0,0.0,0.0,0.0,0.0,0.0,0.0,0.0,0.0,0.0,0.0,0.0,0.0,0.0,0.0,0.0,0.0,0.0,0.0,0.0,0.0,0.0,0.0,0.0,0.0,0.0,0.0,0.0,0.0,0.0,0.0,0.0,0.0,0.0,-2.7226,-2.8496,-2.8793,-2.8975,-2.9039,-2.8972,-2.7985,0.0,0.0,0.0,0.0,0.0,0.0,0.0,0.0,0.0,0.0,0.0,0.0,0.0,0.0,0.0,0.0,0.0,0.0,0.0,0.0,0.0,0.0,0.0,0.0,0.0,0.0,0.0,0.0,0.0,0.0,0.0,0.0,0.0,0.0,0.0,0.0,0.0,0.0,0.0,0.0,0.0,0.0,0.0,0.0,0.0,0.0,0.0,0.0,0.0,0.0,0.0,0.0,0.0,0.0,0.0,0.0,0.0,0.0,0.0,0.0,0.0,0.0,0.0,0.0,0.0,0.0,0.0,0.0,0.0,0.0,0.0,0.0,0.0,0.0,0.0,0.0,0.0,0.0,0.0,0.0,0.0,0.0,0.0,0.0,0.0,0.0,0.0,0.0,0.0,0.0,0.0,0.0,0.0,0.0,0.0,0.0,0.0,0.0,0.0,0.0,0.0,0.0,0.0,0.0,0.0,0.0,0.0,-2.6179,-2.7715,-2.8861,-2.896,-2.8975,-2.8975,-2.9412,-2.8655,-2.6557,0.0,0.0,0.0,0.0,0.0,0.0,0.0,0.0,0.0,0.0,0.0,0.0,0.0,0.0,0.0,0.0,0.0,0.0,0.0,0.0,0.0,0.0,0.0,0.0,0.0,0.0,0.0,0.0,0.0,0.0,0.0,0.0,0.0,0.0,0.0,0.0,0.0,0.0,-2.2347,-2.5668,0.0,0.0,0.0,0.0,0.0,0.0,0.0,0.0,-2.5678,0.0,0.0,0.0,0.0,0.0,0.0,0.0,0.0,0.0,0.0,0.0,0.0,0.0,0.0,0.0,0.0,0.0,0.0,0.0,0.0,0.0,0.0,0.0,0.0,0.0,0.0,0.0,0.0,0.0,0.0,0.0,0.0,0.0,0.0,0.0,0.0,0.0,0.0,0.0,0.0,0.0,0.0,0.0,0.0,0.0,0.0,0.0,0.0,0.0,0.0,0.0,0.0,0.0,0.0,0.0,0.0,-2.5528,-2.6035,-2.711,-2.8917,-2.902,-2.8975,-2.8957,-2.9412,-2.8688,-2.6628,0.0,0.0,0.0,0.0,0.0,0.0,0.0,0.0,0.0,0.0,0.0,0.0,0.0,0.0,0.0,0.0,0.0,0.0,0.0,0.0,0.0,0.0,0.0,0.0,0.0,0.0,0.0,0.0,0.0,0.0,0.0,0.0,0.0,0.0,0.0,0.0,0.0,0.0,0.0,-2.8579,-2.9631,0.0,0.0,0.0,0.0,0.0,0.0,0.0,0.0,-2.5995,0.0,0.0,0.0,0.0,0.0,0.0,0.0,0.0,0.0,0.0,0.0,0.0,0.0,0.0,0.0,0.0,0.0,0.0,0.0,0.0,0.0,0.0,0.0,0.0,0.0,0.0,0.0,0.0,0.0,0.0,0.0,0.0,0.0,0.0,0.0,0.0,0.0,0.0,0.0,0.0,0.0,0.0,0.0,0.0,0.0,0.0,0.0,0.0,0.0,0.0,0.0,0.0,0.0,0.0,0.0,-2.5081,-2.6672,-2.7948,-2.8902,-2.8975,-2.8975,-2.8957,-2.8878,-2.8252,0.0,0.0,0.0,0.0,0.0,0.0,0.0,0.0,0.0,0.0,0.0,0.0,0.0,0.0,0.0,0.0,0.0,0.0,0.0,0.0,0.0,0.0,0.0,0.0,0.0,0.0,0.0,0.0,0.0,0.0,0.0,0.0,0.0,0.0,0.0,0.0,0.0,0.0,0.0,0.0,-2.9126,-3.0378,-3.2331,0.0,0.0,0.0,0.0,0.0,0.0,-2.777,-2.6624,0.0,0.0,0.0,0.0,0.0,0.0,0.0,0.0,0.0,0.0,0.0,0.0,0.0,0.0,0.0,0.0,0.0,0.0,0.0,0.0,0.0,0.0,0.0,0.0,0.0,0.0,0.0,0.0,0.0,0.0,0.0,0.0,0.0,0.0,0.0,0.0,0.0,0.0,0.0,0.0,0.0,0.0,0.0,0.0,0.0,0.0,0.0,0.0,0.0,0.0,0.0,0.0,0.0,0.0,0.0,-2.421,-2.6998,-2.8691,-2.892,-2.8975,-2.9012,-2.9067,-2.8646,-2.7938,0.0,0.0,0.0,0.0,0.0,0.0,0.0,0.0,0.0,0.0,0.0,0.0,0.0,0.0,0.0,0.0,0.0,0.0,0.0,0.0,0.0,0.0,0.0,0.0,0.0,0.0,0.0,0.0,0.0,0.0,0.0,0.0,0.0,0.0,0.0,0.0,0.0,0.0,0.0,0.0,0.0,-3.1332,-3.3004,-3.0978,0.0,0.0,0.0,0.0,-3.0832,-2.9731,0.0,0.0,0.0,0.0,0.0,0.0,0.0,0.0,0.0,0.0,0.0,0.0,0.0,0.0,0.0,0.0,0.0,0.0,0.0,0.0,0.0,0.0,0.0,0.0,0.0,0.0,0.0,0.0,0.0,0.0,0.0,0.0,0.0,0.0,0.0,0.0,0.0,0.0,0.0,0.0,0.0,0.0,0.0,0.0,0.0,0.0,0.0,0.0,0.0,0.0,0.0,0.0,0.0,0.0,0.0,0.0,-2.3019,-2.5646,-2.7732,-2.8865,-2.8993,-2.914,-2.947,-2.9466,-2.8369,0.0,0.0,0.0,0.0,0.0,0.0,0.0,0.0,0.0,0.0,0.0,0.0,0.0,0.0,0.0,0.0,0.0,0.0,0.0,0.0,0.0,0.0,0.0,0.0,0.0,0.0,0.0,0.0,0.0,0.0,0.0,0.0,0.0,0.0,0.0,0.0,0.0,0.0,0.0,0.0,0.0,-3.3047,-3.331,-3.2235,-3.1734,0.0,0.0,-3.3092,-3.4752,-3.4727,0.0,0.0,0.0,0.0,0.0,0.0,0.0,0.0,0.0,0.0,0.0,0.0,0.0,0.0,0.0,0.0,0.0,0.0,0.0,0.0,0.0,0.0,0.0,0.0,0.0,0.0,0.0,0.0,0.0,0.0,0.0,0.0,0.0,0.0,0.0,0.0,0.0,0.0,0.0,0.0,0.0,0.0,0.0,0.0,0.0,0.0,0.0,0.0,0.0,0.0,0.0,0.0,0.0,0.0,0.0,-2.0959,-2.3729,-2.6821,-2.8658,-2.9287,-2.9544,-2.9745,-2.9929,-2.9569,-2.839,0.0,0.0,0.0,0.0,0.0,0.0,0.0,0.0,0.0,0.0,0.0,0.0,0.0,0.0,0.0,0.0,0.0,0.0,0.0,0.0,0.0,0.0,0.0,0.0,0.0,0.0,0.0,0.0,0.0,0.0,0.0,0.0,0.0,0.0,0.0,0.0,0.0,0.0,0.0,0.0,0.0,0.0,-3.487,-3.3929,0.0,0.0,0.0,-3.439,-3.5064,0.0,0.0,0.0,0.0,0.0,0.0,0.0,0.0,0.0,0.0,0.0,0.0,0.0,0.0,0.0,0.0,0.0,0.0,0.0,0.0,0.0,0.0,0.0,0.0,0.0,0.0,0.0,0.0,0.0,0.0,0.0,0.0,0.0,0.0,0.0,0.0,0.0,0.0,0.0,0.0,0.0,0.0,0.0,0.0,0.0,0.0,0.0,0.0,0.0,0.0,0.0,0.0,0.0,0.0,0.0,0.0,0.0,-2.439,-2.79,-2.9727,-2.9745,-3.0039,-3.0241,-3.0296,-2.9839,0.0,0.0,0.0,0.0,0.0,0.0,0.0,0.0,0.0,0.0,0.0,0.0,0.0,0.0,0.0,0.0,0.0,0.0,0.0,0.0,0.0,0.0,0.0,0.0,0.0,0.0,0.0,-1.4387,0.0,0.0,0.0,0.0,0.0,0.0,0.0,0.0,0.0,0.0,0.0,0.0,0.0,0.0,-3.3212,-3.5857,-3.5521,-3.5689,0.0,0.0,-3.593,-3.6194,-3.6988,-3.6242,0.0,0.0,0.0,0.0,0.0,0.0,0.0,0.0,0.0,0.0,0.0,0.0,0.0,0.0,0.0,0.0,0.0,0.0,0.0,0.0,0.0,0.0,0.0,0.0,0.0,0.0,0.0,0.0,0.0,0.0,0.0,0.0,0.0,0.0,0.0,0.0,0.0,0.0,0.0,0.0,0.0,0.0,0.0,0.0,0.0,0.0,0.0,0.0,0.0,0.0,0.0,0.0,0.0,0.0,0.0,-2.4251,-2.8095,-3.0149,-3.0167,-3.0185,-3.0369,-3.0717,-3.0276,-2.8732,0.0,0.0,0.0,0.0,0.0,0.0,0.0,0.0,0.0,0.0,0.0,0.0,0.0,0.0,0.0,0.0,0.0,0.0,0.0,0.0,0.0,0.0,0.0,0.0,0.0,0.0,0.0,0.0,0.0,0.0,0.0,0.0,0.0,0.0,0.0,0.0,0.0,0.0,0.0,0.0,0.0,-3.4318,-3.5521,-3.6843,-3.8118,0.0,0.0,-3.8888,-3.9874,-4.0451,-3.9272,-3.4583,0.0,0.0,0.0,0.0,0.0,0.0,0.0,0.0,0.0,0.0,0.0,0.0,0.0,0.0,0.0,0.0,0.0,0.0,0.0,0.0,0.0,0.0,0.0,0.0,0.0,0.0,0.0,0.0,0.0,0.0,0.0,0.0,0.0,0.0,0.0,0.0,0.0,0.0,0.0,0.0,0.0,0.0,0.0,0.0,0.0,0.0,0.0,0.0,0.0,0.0,0.0,0.0,0.0,-2.2245,-2.4537,-2.8517,-3.0571,-3.0571,-3.0791,-3.1011,-3.1139,-3.1047,-2.959,0.0,0.0,0.0,0.0,0.0,0.0,0.0,0.0,0.0,0.0,0.0,0.0,0.0,0.0,0.0,0.0,0.0,0.0,0.0,0.0,0.0,0.0,0.0,0.0,0.0,0.0,0.0,0.0,-2.3237,-2.412,-2.2999,0.0,0.0,0.0,0.0,0.0,0.0,0.0,0.0,0.0,0.0,-3.5376,-3.7733,-3.8334,0.0,0.0,-3.985,-3.9681,-4.0715,-4.0234,-3.8647,-3.5521,-3.3885,0.0,0.0,0.0,0.0,0.0,0.0,0.0,0.0,0.0,0.0,0.0,0.0,0.0,0.0,0.0,0.0,0.0,0.0,0.0,0.0,0.0,0.0,0.0,0.0,0.0,0.0,0.0,0.0,0.0,0.0,0.0,0.0,0.0,0.0,0.0,0.0,0.0,0.0,0.0,0.0,0.0,0.0,0.0,0.0,0.0,0.0,0.0,0.0,0.0,0.0,0.0,0.0,-2.263,-2.4959,-2.892,-3.0974,-3.0956,-3.1231,-3.1377,-3.1359,-3.1388,-3.0296,0.0,0.0,0.0,0.0,0.0,0.0,0.0,0.0,0.0,0.0,0.0,0.0,0.0,0.0,0.0,0.0,0.0,0.0,0.0,0.0,0.0,0.0,0.0,0.0,0.0,0.0,0.0,0.0,-2.5331,-2.551,-2.3066,0.0,0.0,0.0,0.0,0.0,0.0,0.0,0.0,0.0,0.0,-3.6747,-3.9441,-3.9657,-3.9922,-4.1028,-4.0427,-4.009,-4.0836,-4.0018,-3.8623,-3.6651,0.0,0.0,0.0,0.0,0.0,0.0,0.0,0.0,0.0,0.0,0.0,0.0,0.0,0.0,0.0,0.0,0.0,0.0,0.0,0.0,0.0,0.0,0.0,0.0,0.0,0.0,0.0,0.0,0.0,0.0,0.0,0.0,0.0,0.0,0.0,0.0,0.0,0.0,0.0,0.0,0.0,0.0,0.0,0.0,0.0,0.0,0.0,0.0,0.0,0.0,0.0,0.0,0.0,-2.329,-2.5362,-2.9324,-3.1359,-3.1359,-3.1377,-3.1377,-3.1377,-3.1469,-3.0556,-2.8615,0.0,0.0,0.0,0.0,0.0,0.0,0.0,0.0,0.0,0.0,0.0,0.0,0.0,0.0,0.0,0.0,0.0,0.0,0.0,0.0,0.0,0.0,0.0,0.0,0.0,0.0,-2.0232,-2.2342,-2.3019,0.0,0.0,0.0,0.0,0.0,0.0,0.0,0.0,0.0,0.0,-3.5954,-3.8503,-4.0138,-4.0812,-4.1124,-4.1196,-4.0739,-4.0403,-4.0451,-4.0355,-3.9826,0.0,0.0,0.0,0.0,0.0,0.0,0.0,0.0,0.0,0.0,0.0,0.0,0.0,0.0,0.0,0.0,0.0,0.0,0.0,0.0,0.0,0.0,0.0,0.0,0.0,0.0,0.0,-1.5386,-1.4909,0.0,0.0,0.0,0.0,0.0,0.0,0.0,0.0,0.0,0.0,0.0,-2.1346,-2.2153,0.0,0.0,0.0,0.0,0.0,0.0,0.0,0.0,0.0,0.0,0.0,0.0,-2.3455,-2.5803,-2.947,-3.1377,-3.1377,-3.1377,-3.1377,-3.1377,-3.1377,-3.0359,-2.8238,0.0,0.0,0.0,0.0,0.0,0.0,0.0,0.0,0.0,0.0,0.0,0.0,0.0,0.0,0.0,0.0,0.0,0.0,0.0,0.0,0.0,0.0,0.0,0.0,0.0,-2.1981,0.0,0.0,0.0,0.0,0.0,0.0,0.0,0.0,0.0,0.0,0.0,-3.3428,-3.6074,-3.795,-3.9513,-4.0739,-4.1365,-4.1701,0.0,0.0,0.0,0.0,0.0,0.0,0.0,0.0,0.0,0.0,0.0,0.0,0.0,0.0,-3.7613,-3.3068,-3.1793,-3.1577,-3.2082,0.0,0.0,0.0,0.0,0.0,0.0,0.0,0.0,0.0,0.0,0.0,0.0,0.0,0.0,0.0,0.0,-1.766,0.0,0.0,0.0,0.0,0.0,0.0,0.0,0.0,-2.2337,-2.373,-2.4244,-2.5032,-2.5216,0.0,-2.428,-2.2098,0.0,0.0,0.0,0.0,0.0,0.0,0.0,0.0,-2.3877,-2.6206,-2.9599,-3.1377,-3.1377,-3.1377,-3.1377,-3.1377,-3.1377,-3.0641,-2.9151,-2.7564,-2.5643,0.0,0.0,0.0,0.0,0.0,0.0,0.0,0.0,0.0,0.0,0.0,0.0,0.0,0.0,0.0,0.0,0.0,0.0,0.0,0.0,0.0,0.0,0.0,-2.3932,0.0,0.0,0.0,0.0,0.0,0.0,0.0,0.0,0.0,-3.0422,-3.3332,-3.6266,-3.8527,-3.9753,-4.0691,-4.1365,0.0,0.0,0.0,0.0,0.0,0.0,0.0,-3.9946,-4.0836,-3.9801,-3.8743,-3.8359,-3.9633,-4.0475,-3.9729,0.0,0.0,-3.6916,-3.5737,-3.5641,-3.6146,-3.6218,-3.6266,-3.6459,-3.706,-3.7565,0.0,0.0,0.0,0.0,0.0,0.0,0.0,0.0,-2.0723,-2.0283,0.0,-2.0319,0.0,0.0,0.0,0.0,0.0,0.0,0.0,0.0,-2.6995,-2.8535,-2.7838,-2.7801,-2.8058,-2.8407,-2.7636,-2.6463,-2.4904,-2.2997,0.0,0.0,0.0,0.0,0.0,0.0,-2.4611,-2.6701,-2.9782,-3.1377,-3.1377,-3.1377,-3.1377,-3.1377,-3.1377,-3.1359,-3.1267,-2.9561,-2.8257,-2.7168,-2.385,0.0,0.0,0.0,0.0,0.0,0.0,0.0,0.0,0.0,0.0,0.0,0.0,0.0,0.0,0.0,0.0,0.0,0.0,0.0,0.0,-2.53,0.0,0.0,0.0,0.0,0.0,0.0,0.0,0.0,0.0,0.0,-3.3039,-3.5833,-3.8647,-4.021,0.0,0.0,0.0,0.0,-4.2784,-4.2832,-4.2808,-4.2952,-4.3433,-4.3024,-4.2856,-4.3385,0.0,0.0,-4.086,-4.1774,-4.2134,-4.0186,-4.1894,-4.3385,-4.2784,-4.0932,-3.9898,-4.0331,-3.9681,-3.9224,-3.9681,-4.0475,-4.1148,-2.3253,0.0,0.0,0.0,0.0,-2.1365,-2.2648,-2.4831,-2.4519,-2.395,-2.3217,-2.3455,0.0,0.0,0.0,0.0,0.0,0.0,-2.4042,-2.5601,-2.7325,-2.8608,-2.9489,-2.9507,-2.9709,-3.0094,-2.9874,-2.9672,-2.947,-2.8902,-2.5399,-1.9256,0.0,0.0,0.0,0.0,-2.5986,-2.826,-3.0332,-3.1377,-3.1377,-3.1377,-3.1377,-3.1377,-3.1377,-3.1377,-3.1377,-3.0825,-2.9795,-2.8276,-2.6569,0.0,0.0,0.0,0.0,0.0,0.0,0.0,0.0,0.0,0.0,0.0,0.0,0.0,0.0,0.0,0.0,0.0,0.0,0.0,-2.3576,-2.7552,-2.8659,0.0,0.0,0.0,0.0,0.0,0.0,0.0,0.0,0.0,-3.7493,-3.9128,-4.0451,0.0,0.0,-4.211,-4.2495,-4.2976,-4.3433,-4.3842,-4.3553,0.0,0.0,-4.2784,-4.2495,-4.3361,-4.3842,-4.389,-4.3313,-4.3601,-4.3697,-4.3072,-4.3601,-4.4058,-4.3914,-4.3457,-4.3048,-4.3144,-4.2952,-4.2808,-4.2976,-4.3265,-4.3433,-2.6172,-2.5069,-2.3584,-2.351,-2.4372,-2.4299,-2.5491,-2.7526,-2.727,-2.6719,-2.6004,-2.6481,-2.5014,-2.2208,-2.2043,0.0,0.0,0.0,-2.6224,-2.804,-2.8517,-2.9342,-3.0387,-3.0424,-3.0644,-3.1011,-3.1029,-3.1139,-3.1377,-3.0882,-2.8058,-2.307,0.0,0.0,-2.3327,-2.5307,-2.727,-2.9177,-3.0644,-3.1451,-3.1634,-3.1781,-3.1854,-3.1854,-3.1854,-3.1873,-3.1854,-3.1708,-3.1083,-2.999,-2.8464,-2.6588,0.0,0.0,0.0,0.0,0.0,0.0,0.0,0.0,0.0,0.0,0.0,-1.9484,-1.7512,0.0,0.0,0.0,-2.3482,-2.5458,-2.8454,-3.0525,0.0,0.0,0.0,0.0,0.0,0.0,0.0,-3.4847,-3.7469,-3.9441,-4.0427,-4.1268,-4.187,-4.2086,-4.2375,-4.2687,-4.3,0.0,-4.3962,-4.4299,-4.4251,-4.4299,-4.4708,-4.4082,-4.377,-4.4347,-4.4732,-4.4972,-4.4972,-4.4972,-4.4972,-4.4972,-4.4972,-4.4972,-4.4972,-4.4972,-4.4804,-4.4443,-4.4347,-4.4347,-4.4347,-4.4347,-4.4347,-2.8078,-2.924,-2.6336,-2.5751,-2.6774,-2.727,-2.804,-2.8947,-2.9067,-2.8663,-2.8058,-2.9122,-2.7985,-2.5216,-2.4812,0.0,0.0,-2.782,-2.8792,-3.0241,-3.0277,-3.0479,-3.0827,-3.0827,-3.1029,-3.1377,-3.1377,-3.1377,-3.1322,-3.0277,-2.9342,-2.859,-2.8205,-2.7545,-2.6738,-2.7453,-2.8462,-2.9672,-3.0791,-3.1598,-3.2038,-3.2404,-3.2606,-3.2588,-3.2606,-3.2588,-3.2588,-3.2239,-3.2056,-3.1964,-3.0046,-2.8408,-2.73,0.0,0.0,0.0,0.0,0.0,0.0,0.0,0.0,0.0,0.0,0.0,0.0,0.0,0.0,0.0,-2.7899,0.0,-3.5608,-3.3434,0.0,0.0,0.0,-2.9445,-3.1577,-3.4146,-3.6331,-3.8011,0.0,0.0,-4.2086,-4.2519,-4.3,-4.3505,-4.3529,-4.3529,-4.3577,-4.401,-4.4371,-4.4515,-4.4828,-4.5477,-4.6199,-4.6006,-4.5694,-4.5766,-4.5934,-4.5862,-4.5862,-4.5862,-4.591,-4.5862,-4.591,-4.591,-4.591,-4.5862,-4.5621,-4.4683,-4.4515,-4.4515,-4.4539,-4.4563,-4.4587,-2.8088,-2.848,-2.825,-2.8211,-2.8599,-2.9192,-2.927,-2.9136,-2.9646,-2.98,-2.9654,-2.991,-2.9635,-2.8902,-2.881,-2.903,-2.9507,-2.9892,-3.0277,-3.0662,-3.0956,-3.1139,-3.1231,-3.1249,-3.1286,-3.1377,-3.1377,-3.1377,-3.1359,-3.1084,-3.0699,-3.0241,-3.013,-2.9048,-2.716,-2.8132,-2.9287,-3.0497,-3.1084,-3.1726,-3.2423,-3.2551,-3.2606,-3.2606,-3.2606,-3.2606,-3.2606,-3.2514,-3.2459,-3.2441,-3.1948,-3.0891,-2.9257,-2.5875,0.0,0.0,0.0,0.0,0.0,0.0,0.0,0.0,0.0,-2.3267,-1.9482,0.0,-2.5289,0.0,-3.1461,-3.3704,-3.2678,-3.2362,0.0,0.0,-3.1517,-3.1784,-3.4522,-3.6219,-3.7785,-3.9467,-4.0975,-4.2113,-4.2976,-4.3265,-4.3529,-4.4058,-4.377,-4.3673,-4.4082,-4.4251,-4.4635,-4.5333,-4.5182,-4.5381,-4.5982,-4.603,-4.5958,-4.5934,-4.5934,-4.5934,-4.5934,-4.5934,-4.5934,-4.5934,-4.5934,-4.5934,-4.5958,-4.5934,-4.5862,-4.5597,-4.5549,-4.5549,-4.5549,-4.5549,-4.5549,-2.7891,-2.8426,-2.8408,-2.8528,-2.8776,-2.9851,-2.9937,-2.9689,-3.008,-3.0204,-3.0222,-3.0387,-3.0552,-3.0736,-3.0717,-3.0717,-3.0736,-3.0956,-3.1047,-3.1066,-3.1286,-3.1377,-3.1377,-3.1377,-3.1377,-3.1377,-3.1377,-3.1377,-3.1377,-3.1561,-3.1543,-3.1341,-3.1506,-3.0736,-2.914,-2.936,-2.9855,-3.0516,-3.1267,-3.2056,-3.2845,-3.3046,-3.2924,-3.2618,-3.2187,-3.1838,-3.15,-3.1127,-3.0941,-3.0922,-3.0813,-3.0439,-2.9659,-2.7162,-2.5194,0.0,0.0,0.0,0.0,0.0,0.0,0.0,0.0,0.0,0.0,0.0,-2.6775,-2.7986,-3.1615,-3.3372,-3.1819,-3.2384,-3.3127,-3.3727,-3.3492,-3.4253,-3.7038,-3.794,-3.8935,-4.0324,-4.1329,-4.218,-4.2685,-4.2856,-4.3346,-4.4199,-4.4027,-4.395,-4.4487,-4.4183,-4.4191,-4.5638,-4.5134,-4.5005,-4.6045,-4.6487,-4.6347,-4.5799,-4.6216,-4.6371,-4.5799,-4.6216,-4.6631,-4.6631,-4.6631,-4.6631,-4.6631,-4.6631,-4.6631,-4.6631,-4.6631,-4.6463,-4.603,-4.5934,-4.5934,-2.7615,-2.8415,-2.8027,-2.7965,-2.8362,-2.9633,-3.0101,-2.9976,-3.0101,-3.0101,-3.0119,-3.0591,-3.092,-3.1249,-3.1377,-3.1377,-3.1377,-3.1377,-3.1377,-3.1377,-3.1377,-3.1377,-3.1377,-3.1377,-3.1377,-3.1377,-3.1433,-3.1451,-3.1469,-3.1891,-3.2056,-3.2019,-3.2349,-3.2129,-3.1377,-3.0699,-3.0351,-3.0369,-3.1506,-3.2423,-3.312,-3.334,-3.2984,-3.2365,-3.1559,-3.0798,-2.9884,-2.9164,-2.8899,-2.8935,-2.8836,-2.9065,-2.9727,-2.8017,-2.6886,0.0,-2.5004,0.0,0.0,0.0,0.0,0.0,0.0,0.0,0.0,-2.7996,-2.8123,-2.8025,-3.0571,-3.2237,-3.2374,-3.2991,-3.3837,-3.4757,-3.521,-3.6311,-3.8352,-3.9169,-3.9708,-4.0427,-4.1361,-4.1738,-4.1437,-4.1738,-4.242,-4.3443,-4.3495,-4.3822,-4.4777,-4.4091,-4.3974,-4.5395,-4.4603,-4.4705,-4.6072,-4.6764,-4.6603,-4.5661,-4.5885,-4.6516,-4.5503,-4.6066,-4.6917,-4.7051,-4.7003,-4.7027,-4.6941,-4.7051,-4.7316,-4.7136,-4.7136,-4.7161,-4.6439,-4.6223,-4.6126,-2.7306,-2.7503,-2.8032,-2.8196,-2.8378,-2.9162,-2.9093,-2.8719,-2.9223,-2.9483,-2.9483,-3.0089,-3.0419,-3.0602,-3.112,-3.1377,-3.1377,-3.1377,-3.1377,-3.1377,-3.1377,-3.1377,-3.1377,-3.1377,-3.1377,-3.1396,-3.1726,-3.1891,-3.1891,-3.2294,-3.2313,-3.2019,-3.2074,-3.1873,-3.1396,0.0,0.0,0.0,-3.2038,-3.2551,-3.268,-3.1818,-3.1193,-3.0692,-3.0217,0.0,-2.8806,-2.8898,-2.9058,-2.9298,-2.9661,0.0,0.0,0.0,0.0,0.0,0.0,0.0,0.0,0.0,0.0,0.0,-2.9002,-2.8445,-2.8064,-2.9887,-3.0933,-3.0545,-3.1777,-3.2949,-3.3603,-3.3192,-3.3253,-3.4524,-3.4877,-3.5284,-3.597,-3.7695,-3.8777,-3.8603,-3.9606,-4.004,-3.9758,-3.9888,-4.0323,-4.1066,-4.1221,-4.2279,-4.4262,-4.4794,-4.4641,-4.3466,-4.3985,-4.4979,-4.5546,-4.5615,-4.5549,-4.5278,-4.4276,-4.4298,-4.4983,-4.4436,-4.4413,-4.5414,-4.5685,-4.5278,-4.4276,-4.582,-4.7074,-4.5978,-4.6674,-4.7449,-4.7257,-4.7185,-4.7209,-2.6666,0.0,-2.76,-2.7733,0.0,-2.813,-2.813,-2.7865,-2.8922,-2.943,-2.9822,-3.0473,-3.0861,-3.0861,-3.1249,-3.1377,-3.1377,-3.1377,-3.1377,-3.1377,-3.1377,-3.1488,-3.1689,-3.1689,-3.1799,-3.1983,-3.2203,-3.2294,-3.2313,-3.2716,-3.2808,-3.2625,-3.2808,-3.279,-3.2588,-3.257,-3.2386,-3.2001,-3.2386,-3.279,-3.3156,-3.2606,-3.193,-3.1351,0.0,0.0,0.0,0.0,0.0,0.0,0.0,0.0,0.0,0.0,0.0,-3.041,-2.959,-2.92,-2.9577,-2.9564,-3.0293,-3.1944,-3.1783,-3.119,-3.0056,-3.1388,-3.2208,-3.1898,-3.2501,-3.3124,-3.3613,-3.3336,-3.3465,-3.4142,-3.4448,-3.4852,-3.5779,-3.6764,-3.7307,-3.74,-3.7934,-3.8221,-3.8067,-3.8562,-3.9284,-4.0072,-4.0635,-4.1223,-4.1906,-4.2522,-4.2544,-4.1764,-4.2995,-4.4138,-4.4138,-4.4161,-4.3863,-4.3331,-4.3725,-4.3725,-4.3171,-4.3725,-4.4138,-4.4298,-4.4138,-4.4001,-4.4276,-4.5414,-4.6382,-4.6382,-4.6941,-4.7497,-4.7497,-4.7497,-4.7497,-2.6012,-2.6703,-2.6703,-2.6806,-2.6744,-2.6744,-2.6713,-2.7067,0.0,0.0,0.0,-3.0861,-3.1249,-3.1249,-3.1377,-3.1377,-3.1377,-3.1377,-3.1414,-3.1488,-3.1488,-3.1708,-3.2093,-3.2111,-3.2276,-3.2588,-3.2661,-3.2698,-3.2735,-3.312,-3.3321,-3.3358,-3.3651,-3.3817,-3.3817,-3.3817,-3.3486,-3.2845,-3.2661,-3.2918,-3.356,-3.3395,-3.2873,-3.2232,-3.1485,-3.0723,-2.9846,-2.9524,-2.9335,-2.9374,-2.9809,-3.0192,-3.0954,-3.1321,-3.1832,-3.2236,-3.2632,-3.3034,-3.3328,-3.3444,-3.3538,-3.3725,-3.3817,-3.336,-3.2306,-3.2544,-3.2808,-3.2808,-3.312,-3.3321,-3.334,-3.3615,-3.3817,-3.3817,-3.4094,-3.4746,-3.5782,-3.5957,-3.5957,-3.6073,-3.6443,-3.6754,-3.6638,-3.7152,-3.8138,-3.9312,-3.9896,-4.0298,-3.9515,-3.9698,-4.0224,-4.0838,-4.1912,-4.2613,-4.2613,-4.2613,-4.2052,-4.1368,-4.2613,-4.3171,-4.1912,-4.2613,-4.3609,-4.2753,-4.2656,-4.3045,-4.4019,-4.4546,-4.5393,-4.6393,-4.6799,-4.6934,-4.6934,-4.6934,-4.7092,-2.4862,-2.5003,-2.5003,-2.4847,-2.4744,-2.4758,-2.5149,-2.5981,-2.7733,-2.8527,-2.8659,-2.9952,-3.0473,-3.049,-3.112,-3.1377,-3.1377,-3.1377,-3.1579,0.0,-3.1909,-3.2129,-3.2496,-3.2514,-3.2533,-3.2625,-3.2955,-3.3138,-3.3175,-3.3541,-3.3725,-3.3725,-3.378,-3.3817,-3.3817,-3.3817,-3.3762,-3.3633,-3.2955,-3.2643,-3.2753,-3.1744,-3.0956,-3.0512,-3.0199,-2.9415,-2.8634,-2.9009,-2.9189,-2.9546,-2.9891,-3.0753,-3.2248,-3.2344,-3.2758,-3.3513,-3.3643,-3.3638,-3.3705,-3.3742,-3.3697,-3.378,-3.3817,-3.3633,-3.3632,-3.3642,-3.3651,-3.3651,-3.3688,-3.3725,-3.3743,-3.378,-3.3817,-3.3817,-3.3817,-3.3937,-3.4214,-3.504,-3.5196,-3.4546,-3.5344,-3.5831,-3.5172,-3.567,-3.6475,-3.719,-3.8098,-3.819,-3.8629,-3.8767,-3.9346,-4.0371,-4.0942,-4.1084,-4.1126,-4.1084,-4.0983,-4.08,-4.031,-4.0494,-4.0781,-4.0515,-4.0658,-4.0983,-4.1438,-4.1358,-4.0841,-4.2559,-4.3695,-4.376,-4.4288,-4.4879,-4.4998,-4.5021,-4.5518,-2.414,-2.4706,-2.4706,-2.4623,-2.4638,-2.5211,-2.5681,-2.6238,-2.8012,-2.8609,-2.8411,-2.9299,-2.9709,-2.9857,-3.0704,-3.1186,-3.1204,-3.1797,-3.2148,-3.2313,-3.2313,-3.2551,-3.2918,-3.2936,-3.3046,-3.3266,-3.345,-3.3541,-3.356,-3.3725,-3.3817,-3.3817,-3.3817,-3.3817,-3.3817,-3.3817,-3.3817,-3.3798,-3.345,-3.3248,-3.3248,-3.2716,-3.2331,-3.2166,-3.1964,-3.1708,-3.1341,-3.1506,-3.1635,-3.1835,-3.2003,-3.245,-3.3177,-3.3252,-3.3452,-3.3762,-3.3817,-3.3817,-3.3817,-3.3817,-3.3817,-3.3817,-3.3817,-3.3817,-3.3817,-3.3817,-3.3817,-3.3817,-3.3817,-3.3817,-3.3817,-3.3817,-3.3817,-3.3817,-3.3817,-3.389,-3.4092,-3.4548,-3.4762,-3.4581,-3.5049,-3.5302,-3.5037,-3.5818,-3.6262,-3.6469,-3.6948,-3.7632,-3.8263,-3.8448,-3.8865,-3.9405,-3.955,-3.967,-3.9851,-3.9891,-4.0011,-4.0231,-4.0418,-4.0438,-4.0565,-4.0124,-4.0398,-4.0292,-4.0472,-4.07,-4.0592,-4.1874,-4.2878,-4.3606,-4.3751,-4.4307,-4.4329,-4.4503,-4.539,-2.3353,-2.4201,-2.4215,-2.4161,-2.4235,-2.5299,-2.5693,-2.5833,-2.7493,-2.7915,-2.7723,-2.8893,-2.9556,-2.959,-3.068,-3.107,-3.1256,-3.2193,-3.2643,-3.2735,-3.2735,-3.2955,-3.3321,-3.3358,-3.3523,-3.378,-3.3817,-3.3817,-3.3817,-3.3817,-3.3817,-3.3817,-3.3817,-3.3817,-3.3817,-3.3817,-3.3817,-3.3817,-3.389,-3.3908,-3.3817,-3.3817,-3.3853,-3.3945,-3.3927,-3.3982,-3.4073,-3.4092,-3.4092,-3.4092,-3.4092,-3.4092,-3.4092,-3.4092,-3.4055,-3.3963,-3.3945,-3.3908,-3.3817,-3.3817,-3.3817,-3.3817,-3.389,-3.3945,-3.3945,-3.4037,-3.4,-3.3853,-3.3817,-3.3817,-3.3835,-3.3908,-3.3945,-3.3945,-3.4037,-3.4238,-3.4495,-3.4532,-3.4642,-3.4972,-3.51,-3.5299,-3.5662,-3.623,-3.6619,-3.6548,-3.7066,-3.7549,-3.7862,-3.836,-3.8418,-3.8584,-3.8711,-3.9053,-3.9258,-3.9355,-3.9641,-3.9863,-4.0724,-4.0833,-4.0405,-4.0873,-4.1171,-4.0125,-3.9961,-4.0452,-4.1481,-4.1902,-4.2241,-4.3004,-4.3299,-4.3405,-4.3447,-4.4102,-4.5194,-2.2472,-2.2472,-2.2608,-2.2337,-2.2397,-2.3145,-2.3599,-2.3741,-2.4706,-2.5102,-2.5606,-2.864,-3.0156,-3.0309,-3.1038,-3.1478,-3.1478,-3.232,-3.2808,-3.3138,-3.3175,-3.3376,-3.3725,-3.3743,-3.378,-3.3817,-3.3817,-3.3817,-3.3817,-3.3817,-3.3817,-3.3817,-3.3817,-3.3817,-3.3817,-3.3817,-3.3817,-3.3817,-3.4165,-3.4183,-3.3835,-3.3817,-3.3982,-3.433,-3.4348,-3.4532,-3.4844,-3.4917,-3.4917,-3.4917,-3.4899,-3.4917,-3.4899,-3.4899,-3.4733,-3.4385,-3.4348,-3.4202,-3.3872,-3.3817,-3.3853,-3.3835,-3.4165,-3.4348,-3.4367,-3.4697,-3.4587,-3.4055,-3.3853,-3.3872,-3.3835,-3.4128,-3.4348,-3.4367,-3.4642,-3.4935,-3.4954,-3.4972,-3.499,-3.5009,-3.5375,-3.5577,-3.576,-3.6018,-3.6553,-3.6995,-3.7198,-3.744,-3.7811,-3.8021,-3.825,-3.8567,-3.8864,-3.9355,-3.9707,-3.9844,-3.9902,-3.9941,-4.0073,-4.0131,-4.019,-4.0151,-4.0053,-4.0308,-4.0254,-4.0602,-4.07,-4.105,-4.144,-4.1742,-4.1935,-4.1594,-4.1634,-4.2668,-4.4294,-2.2271,-2.2271,-2.2271,-2.2198,-2.2226,-2.328,-2.3653,-2.3799,-2.4815,-2.5682,-2.6401,-2.7971,-2.8458,-2.8217,-3.0223,-3.1166,-3.1321,-3.2647,-3.3395,-3.356,-3.3578,-3.367,-3.3798,-3.3817,-3.3817,-3.3817,-3.3817,-3.3817,-3.3817,-3.3817,-3.3817,-3.3817,-3.3817,-3.3817,-3.3835,-3.4037,-3.4165,-3.4165,-3.4568,-3.4697,-3.455,-3.4532,-3.4605,-3.4752,-3.477,-3.4844,-3.5009,-3.5027,-3.5027,-3.5027,-3.5027,-3.5027,-3.5027,-3.5027,-3.4954,-3.4788,-3.477,-3.4697,-3.455,-3.4532,-3.4532,-3.4532,-3.4678,-3.477,-3.477,-3.4935,-3.488,-3.4623,-3.4532,-3.4532,-3.4532,-3.4678,-3.477,-3.4788,-3.4935,-3.5119,-3.5357,-3.5375,-3.5449,-3.5687,-3.587,-3.5962,-3.5981,-3.6109,-3.6497,-3.696,-3.7107,-3.7201,-3.7576,-3.7783,-3.8367,-3.9089,-3.9526,-3.9736,-4.0234,-4.0273,-4.0371,-4.0566,-4.0644,-4.0644,-4.0625,-4.0644,-4.0664,-4.0625,-4.0762,-4.0859,-4.0898,-4.0996,-4.1172,-4.1172,-4.1172,-4.1172,-4.1172,-4.1773,-4.2993,-2.2271,-2.2271,-2.2271,-2.2271,-2.2408,-2.3141,-2.3574,-2.3574,-2.4449,-2.5332,-2.6078,-2.6371,-2.6258,-2.631,-2.932,-3.0852,-3.1026,-3.242,-3.3242,-3.326,-3.3242,-3.3242,-3.3521,-3.3539,-3.3678,-3.3817,-3.3817,-3.3817,-3.3817,-3.3817,-3.3817,-3.3817,-3.3908,-3.3963,-3.4018,-3.4367,-3.4587,-3.4605,-3.4972,-3.5192,-3.5192,-3.5302,-3.5302,-3.521,-3.5192,-3.5247,-3.5357,-3.5357,-3.5357,-3.5357,-3.5357,-3.5357,-3.5357,-3.5357,-3.532,-3.5192,-3.5082,-3.5027,-3.5027,-3.5027,-3.5027,-3.5027,-3.5119,-3.5192,-3.521,-3.5284,-3.5357,-3.5357,-3.5357,-3.5302,-3.5045,-3.5137,-3.5192,-3.5192,-3.5265,-3.5485,-3.5742,-3.5779,-3.5889,-3.6146,-3.6146,-3.6201,-3.6201,-3.6201,-3.6386,-3.6812,-3.6998,-3.7129,-3.7502,-3.8009,-3.8785,-3.9644,-3.9797,-4.0202,-4.0549,-4.0703,-4.0879,-4.1016,-4.1113,-4.1094,-4.1172,-4.1152,-4.1152,-4.0937,-4.1113,-4.1152,-4.1094,-4.1133,-4.1172,-4.1172,-4.1172,-4.1172,-4.1172,-4.1327,-4.1618,-2.2271,-2.2271,-2.2271,-2.2271,-2.2271,-2.2408,-2.2408,-2.2558,-2.2558,-2.2558,-2.2992,-2.387,-2.414,-2.4516,-2.8439,-3.0376,-3.0518,-3.1243,-3.17,-3.17,-3.1841,-3.2123,-3.2666,-3.2806,-3.3103,-3.3817,-3.3817,-3.3817,-3.3817,-3.3817,-3.3817,-3.3835,-3.4165,-3.4367,-3.4422,-3.4788,-3.499,-3.5045,-3.5394,-3.5595,-3.5632,-3.5944,-3.5925,-3.5632,-3.5595,-3.576,-3.6054,-3.6127,-3.6127,-3.6146,-3.6091,-3.6109,-3.6127,-3.6109,-3.5944,-3.5614,-3.5265,-3.5064,-3.5082,-3.51,-3.51,-3.5119,-3.5412,-3.5595,-3.5614,-3.587,-3.6036,-3.6109,-3.6054,-3.5797,-3.5265,-3.543,-3.5595,-3.5614,-3.5907,-3.6091,-3.6146,-3.6109,-3.6164,-3.6201,-3.6201,-3.6237,-3.6219,-3.6201,-3.657,-3.7128,-3.739,-3.7539,-3.793,-3.8629,-3.9009,-3.947,-3.9891,-4.0627,-4.0958,-4.1035,-4.1074,-4.1152,-4.1172,-4.1172,-4.1172,-4.1172,-4.1172,-4.1172,-4.1172,-4.1172,-4.1172,-4.1172,-4.1172,-4.1172,-4.1172,-4.1172,-4.1172,-4.1172,-4.1463,-2.2271,-2.2271,-2.2271,-2.2271,-2.2271,-2.2271,-2.2271,-2.2271,-2.2271,-2.2694,-2.3426,-2.3857,-2.4449,-2.5171,-2.6779,-2.765,-2.8213,-2.9663,-3.0392,-3.0534,-3.1683,-3.2386,-3.2666,-3.3242,-3.3521,-3.3817,-3.3817,-3.3817,-3.3817,-3.3817,-3.3945,-3.4183,-3.433,-3.4532,-3.4825,-3.521,-3.5412,-3.5449,-3.5797,-3.5999,-3.5999,-3.6146,-3.6127,-3.6017,-3.5999,-3.6072,-3.6201,-3.6201,-3.6201,-3.6201,-3.6201,-3.6201,-3.6201,-3.6201,-3.6146,-3.5999,-3.5852,-3.5779,-3.5779,-3.5779,-3.5779,-3.5797,-3.5907,-3.5981,-3.6017,-3.6127,-3.6201,-3.6201,-3.6201,-3.6036,-3.5907,-3.5925,-3.5999,-3.6017,-3.6109,-3.6201,-3.6201,-3.6201,-3.6201,-3.6201,-3.6201,-3.6292,-3.6549,-3.6604,-3.6769,-3.7251,-3.7343,-3.7546,-3.7859,-3.8272,-3.875,-3.9149,-3.9456,-3.9883,-4.0216,-4.0841,-4.1172,-4.0997,-4.0841,-4.1172,-4.1172,-4.1172,-4.1172,-4.1172,-4.1172,-4.1172,-4.1172,-4.1172,-4.1172,-4.1172,-4.1172,-4.1172,-4.1172,-4.1172,-4.1172,-2.2271,-2.2271,-2.2271,-2.2271,-2.2271,-2.2271,-2.2271,-2.2271,-2.2271,-2.2694,-2.3426,-2.3426,-2.387,-2.4596,-2.4743,-2.4891,-2.5758,-2.7924,-2.9091,-2.9234,-3.0818,-3.1824,-3.2386,-3.2824,-3.34,-3.3678,-3.3817,-3.3872,-3.3982,-3.4,-3.422,-3.4587,-3.4715,-3.4935,-3.5247,-3.5614,-3.5815,-3.587,-3.6072,-3.6201,-3.6201,-3.6201,-3.6201,-3.6201,-3.6201,-3.6201,-3.6201,-3.6201,-3.6201,-3.6201,-3.6201,-3.6201,-3.6201,-3.6201,-3.6201,-3.6201,-3.6201,-3.6201,-3.6201,-3.6201,-3.6201,-3.6201,-3.6201,-3.6201,-3.6201,-3.6201,-3.6201,-3.6201,-3.6201,-3.6201,-3.6201,-3.6201,-3.6201,-3.6201,-3.6201,-3.6201,-3.6201,-3.6201,-3.6274,-3.6402,-3.6439,-3.6622,-3.6934,-3.7007,-3.7209,-3.7558,-3.7613,-3.7778,-3.8108,-3.8393,-3.8605,-3.9198,-3.9411,-3.9588,-3.9902,-4.0372,-4.0841,-4.0685,-4.0997,-4.1172,-4.1172,-4.1172,-4.1172,-4.1172,-4.1172,-4.1172,-4.1172,-4.1172,-4.1172,-4.1172,-4.1172,-4.1172,-4.1172,-4.1172,-4.1211,-2.2271,-2.2271,-2.2271,-2.2271,-2.2271,-2.2271,-2.2271,-2.2271,-2.2271,-2.2408,-2.2558,-2.2408,-2.2558,-2.2558,-2.2707,-2.2558,-2.329,-2.5918,-2.7375,-2.7535,-2.8691,-3.014,-3.126,-3.1559,-3.2544,-3.3817,-3.3835,-3.4018,-3.433,-3.4403,-3.4623,-3.5027,-3.5357,-3.5522,-3.5632,-3.5962,-3.6164,-3.6164,-3.6182,-3.6201,-3.6201,-3.6201,-3.6201,-3.6201,-3.6201,-3.6201,-3.6201,-3.6201,-3.6201,-3.6201,-3.6201,-3.6201,-3.6201,-3.6201,-3.6201,-3.6201,-3.6201,-3.6201,-3.6201,-3.6201,-3.6201,-3.6201,-3.6201,-3.6201,-3.6201,-3.6201,-3.6201,-3.6201,-3.6201,-3.6219,-3.6237,-3.6274,-3.6237,-3.6201,-3.6201,-3.6201,-3.6237,-3.6237,-3.6384,-3.6732,-3.6842,-3.7007,-3.7301,-3.7429,-3.7594,-3.7906,-3.8034,-3.8126,-3.8456,-3.8688,-3.9077,-3.9254,-3.943,-3.943,-3.9588,-3.9883,-4.0197,-4.0509,-4.0997,-4.1172,-4.1172,-4.1172,-4.1172,-4.1172,-4.1172,-4.1172,-4.1172,-4.1172,-4.1172,-4.1172,-4.1172,-4.1191,-4.1191,-4.1211,-4.1289,-2.2271,-2.2271,-2.2271,-2.2271,-2.2271,-2.2271,-2.2271,-2.2271,-2.2271,-2.2271,-2.2271,-2.2271,-2.2271,-2.2271,-2.2271,-2.2271,-2.2408,-2.4314,-2.5038,-2.5332,-2.6925,-2.8084,-2.8947,-3.0376,-3.2088,-3.3575,-3.4092,-3.4275,-3.444,-3.4697,-3.5045,-3.5394,-3.5559,-3.576,-3.5999,-3.6146,-3.6201,-3.6201,-3.6201,-3.6201,-3.6201,-3.6201,-3.6201,-3.6201,-3.6201,-3.6201,-3.6201,-3.6201,-3.6201,-3.6201,-3.6201,-3.6201,-3.6201,-3.6201,-3.6201,-3.6201,-3.6201,-3.6201,-3.6201,-3.6201,-3.6201,-3.6201,-3.6201,-3.6201,-3.6201,-3.6237,-3.6237,-3.6219,-3.6219,-3.6292,-3.6567,-3.6641,-3.6531,-3.6237,-3.6201,-3.6366,-3.6622,-3.6861,-3.7081,-3.7191,-3.7246,-3.7429,-3.7723,-3.7833,-3.7998,-3.8328,-3.842,-3.8511,-3.8603,-3.8798,-3.8798,-3.8798,-3.8956,-3.9272,-3.943,-3.9726,-4.0059,-4.0529,-4.0841,-4.1172,-4.1172,-4.1172,-4.1172,-4.1172,-4.1172,-4.1211,-4.1191,-4.123,-4.125,-4.125,-4.1289,-4.1269,-4.123,-4.1348,-4.1543,-2.2271,-2.2271,-2.2271,-2.2271,-2.2271,-2.2271,-2.2271,-2.2271,-2.2271,-2.2271,-2.2271,-2.2271,-2.2271,-2.2271,-2.2271,-2.2271,-2.2408,-2.3141,-2.3426,-2.3722,-2.5611,-2.6765,-2.781,-3.0206,-3.1838,-3.3091,-3.4157,-3.4715,-3.4862,-3.5119,-3.5449,-3.5779,-3.5834,-3.5944,-3.6182,-3.6201,-3.6201,-3.6201,-3.6201,-3.6201,-3.6201,-3.6201,-3.6201,-3.6201,-3.6201,-3.6201,-3.6201,-3.6201,-3.6201,-3.6201,-3.6201,-3.6201,-3.6201,-3.6201,-3.6201,-3.6201,-3.6201,-3.6201,-3.6201,-3.6201,-3.6292,-3.6384,-3.6439,-3.6531,-3.6622,-3.6659,-3.6659,-3.6659,-3.6677,-3.6769,-3.6989,-3.7044,-3.6916,-3.6696,-3.6696,-3.6769,-3.7044,-3.7264,-3.7484,-3.7576,-3.7649,-3.7851,-3.8126,-3.8255,-3.8346,-3.8585,-3.864,-3.864,-3.864,-3.864,-3.864,-3.864,-3.864,-3.8956,-3.9272,-3.9588,-3.9902,-4.0372,-4.086,-4.1016,-4.1172,-4.0997,-4.0841,-4.0997,-4.0997,-4.1348,-4.1387,-4.1465,-4.1504,-4.1465,-4.1562,-4.1719,-4.1836,-4.1894,-4.2031,-2.2271,-2.2271,-2.2271,-2.2271,-2.2271,-2.2271,-2.2271,-2.2271,-2.2271,-2.2271,-2.2271,-2.2271,-2.2271,-2.2271,-2.2307,-2.2331,-2.2295,-2.2518,-2.268,-2.3105,-2.4568,-2.6192,-2.7976,-3.0516,-3.1786,-3.2589,-3.3965,-3.4776,-3.4573,-3.501,-3.5687,-3.5812,-3.5997,-3.6182,-3.6201,-3.6201,-3.6201,-3.6201,-3.6201,-3.6201,-3.6201,-3.6201,-3.6201,-3.6201,-3.6201,-3.6237,-3.6292,-3.6366,-3.6329,-3.6256,-3.6292,-3.6329,-3.6292,-3.6274,-3.6347,-3.6384,-3.6292,-3.6347,-3.6311,-3.6402,-3.6512,-3.6824,-3.6879,-3.7007,-3.7246,-3.7264,-3.7264,-3.7283,-3.7301,-3.7374,-3.7411,-3.7448,-3.7448,-3.7484,-3.7411,-3.7411,-3.7448,-3.7503,-3.7759,-3.7979,-3.8071,-3.8181,-3.853,-3.8585,-3.8603,-3.8621,-3.864,-3.864,-3.864,-3.864,-3.864,-3.864,-3.864,-3.8798,-3.9254,-3.9411,-3.9745,-4.0059,-4.0548,-4.0723,-4.1094,-4.0781,-4.082,-4.0801,-4.1035,-4.1366,-4.166,-4.1777,-4.1914,-4.2031,-4.2187,-4.2383,-4.2402,-4.2363,-4.2461,-2.2271,-2.2271,-2.2271,-2.2271,-2.2271,-2.2271,-2.2271,-2.2271,-2.2271,-2.2283,-2.2271,-2.2271,-2.2295,-2.2283,-2.2476,-2.2549,-2.2585,-2.2742,-2.2838,-2.2992,-2.3438,-2.5677,-2.8193,-3.006,-3.1317,-3.2261,-3.3025,-3.31,-3.216,-3.361,-3.4416,-3.4521,-3.5754,-3.6201,-3.6201,-3.6201,-3.6201,-3.6201,-3.6201,-3.6201,-3.6201,-3.6219,-3.6201,-3.6201,-3.6219,-3.6384,-3.6659,-3.6952,-3.6952,-3.6696,-3.6677,-3.6824,-3.7026,-3.7044,-3.7026,-3.7026,-3.7062,-3.7081,-3.7081,-3.7062,-3.7136,-3.7246,-3.7264,-3.7319,-3.7393,-3.7429,-3.7429,-3.7429,-3.7429,-3.7576,-3.7796,-3.7869,-3.7979,-3.8218,-3.8034,-3.7851,-3.7906,-3.8144,-3.8365,-3.8456,-3.8456,-3.853,-3.8585,-3.864,-3.864,-3.864,-3.864,-3.864,-3.864,-3.864,-3.864,-3.864,-3.864,-3.8956,-3.9096,-3.9254,-3.9588,-3.9902,-4.0097,-4.0135,-4.0564,-4.0679,-4.0933,-4.1148,-4.1678,-4.2012,-4.2129,-4.2246,-4.2402,-4.2558,-4.2558,-4.2637,-4.2637,-4.2617,-4.2832,-2.2271,-2.2271,-2.2271,-2.2271,-2.2271,-2.2271,-2.2271,-2.2283,-2.238,-2.2428,-2.2452,-2.2549,-2.2585,-2.2609,-2.2754,-2.2814,-2.2838,-2.2971,-2.3031,-2.321,-2.3451,-2.479,-2.6696,-2.8115,-2.9575,-3.0521,-3.1743,-3.1739,-3.1485,-3.2894,-3.3751,-3.4221,-3.5438,-3.6201,-3.6201,-3.6201,-3.6201,-3.6201,-3.6201,-3.6201,-3.6201,-3.6384,-3.6476,-3.6512,-3.6604,-3.6861,-3.7099,-3.7301,-3.7301,-3.7136,-3.7081,-3.7191,-3.7393,-3.7429,-3.7429,-3.7429,-3.7429,-3.7411,-3.7429,-3.7429,-3.7503,-3.7631,-3.7668,-3.7778,-3.7906,-3.7943,-3.7943,-3.7961,-3.7943,-3.8053,-3.8199,-3.8273,-3.8383,-3.853,-3.842,-3.8273,-3.8273,-3.8475,-3.8621,-3.864,-3.864,-3.864,-3.864,-3.864,-3.864,-3.864,-3.864,-3.864,-3.864,-3.864,-3.864,-3.864,-3.8676,-3.8835,-3.9263,-3.9477,-3.9589,-3.9888,-4.0235,-4.0198,-4.0515,-4.0846,-4.1158,-4.1631,-4.2145,-4.248,-4.2598,-4.2734,-4.2871,-4.2969,-4.291,-4.2949,-4.3008,-4.2949,-4.3164,-2.2319,-2.2343,-2.2343,-2.2343,-2.2367,-2.2355,-2.2404,-2.2404,-2.2597,-2.2693,-2.273,-2.2935,-2.2959,-2.3043,-2.3043,-2.308,-2.3092,-2.3176,-2.3176,-2.3405,-2.3671,-2.4153,-2.4481,-2.6611,-2.7774,-2.8585,-2.9761,-3.0315,-3.0638,-3.2201,-3.3449,-3.3751,-3.5139,-3.6052,-3.6201,-3.6201,-3.6201,-3.6219,-3.6311,-3.6347,-3.6421,-3.6696,-3.6879,-3.6934,-3.7246,-3.7411,-3.7484,-3.7576,-3.7594,-3.7558,-3.7521,-3.7539,-3.7558,-3.7576,-3.7594,-3.7631,-3.7686,-3.7668,-3.7594,-3.7686,-3.7741,-3.8016,-3.8089,-3.8218,-3.8456,-3.8511,-3.8493,-3.8493,-3.8621,-3.8548,-3.8566,-3.8603,-3.8603,-3.864,-3.8621,-3.864,-3.864,-3.864,-3.864,-3.864,-3.864,-3.864,-3.864,-3.864,-3.864,-3.864,-3.864,-3.864,-3.864,-3.864,-3.864,-3.864,-3.8695,-3.8909,-3.9215,-3.956,-3.9708,-3.9981,-4.0478,-4.0553,-4.0887,-4.1323,-4.1637,-4.2114,-4.2631,-4.2949,-4.3086,-4.3223,-4.332,-4.3379,-4.334,-4.3476,-4.3613,-4.3457,-4.3516,-2.2693,-2.2874,-2.2874,-2.2874,-2.2874,-2.2874,-2.2862,-2.2862,-2.2923,-2.2959,-2.2983,-2.3031,-2.3068,-2.3068,-2.3273,-2.3357,-2.3393,-2.3538,-2.3671,-2.3683,-2.3707,-2.3891,-2.4281,-2.6213,-2.7465,-2.8103,-2.8458,-2.8374,-2.8388,-3.0531,-3.1912,-3.2217,-3.4822,-3.6201,-3.6237,-3.6256,-3.6201,-3.6256,-3.6531,-3.6696,-3.6787,-3.7081,-3.7319,-3.7356,-3.7704,-3.7869,-3.7961,-3.8218,-3.8365,-3.831,-3.8089,-3.8016,-3.8236,-3.831,-3.8291,-3.8291,-3.8328,-3.8346,-3.8365,-3.831,-3.8401,-3.8438,-3.8456,-3.8548,-3.8603,-3.864,-3.864,-3.864,-3.864,-3.864,-3.864,-3.864,-3.864,-3.864,-3.864,-3.864,-3.864,-3.864,-3.864,-3.864,-3.864,-3.864,-3.864,-3.864,-3.864,-3.864,-3.864,-3.864,-3.8658,-3.8658,-3.8731,-3.8768,-3.8988,-3.9258,-3.9369,-3.977,-4.0029,-4.0177,-4.0637,-4.1133,-4.1493,-4.18,-4.226,-4.2596,-4.2954,-4.3234,-4.3418,-4.3496,-4.3555,-4.3652,-4.3691,-4.3691,-4.3691,-4.3691,-4.3691,-2.2923,-2.3043,-2.3043,-2.3043,-2.3043,-2.3043,-2.3043,-2.3068,-2.3188,-2.3237,-2.3273,-2.3345,-2.3418,-2.343,-2.3562,-2.3635,-2.3659,-2.3768,-2.384,-2.3828,-2.384,-2.384,-2.4,-2.5263,-2.636,-2.6662,-2.6662,-2.6531,-2.7305,-2.9464,-3.1453,-3.1606,-3.4521,-3.6198,-3.6476,-3.6512,-3.6641,-3.6806,-3.6971,-3.7118,-3.7173,-3.7503,-3.7833,-3.7961,-3.8199,-3.831,-3.8346,-3.8493,-3.8621,-3.8585,-3.8438,-3.8383,-3.8585,-3.864,-3.864,-3.864,-3.864,-3.864,-3.864,-3.864,-3.8621,-3.864,-3.864,-3.864,-3.864,-3.864,-3.864,-3.864,-3.864,-3.864,-3.864,-3.864,-3.864,-3.864,-3.864,-3.864,-3.864,-3.864,-3.864,-3.864,-3.864,-3.864,-3.864,-3.864,-3.864,-3.864,-3.864,-3.8658,-3.875,-3.8786,-3.8933,-3.908,-3.9355,-3.952,-3.9593,-3.9832,-4.0382,-4.0731,-4.1119,-4.1545,-4.2004,-4.2353,-4.2886,-4.3147,-4.337,-4.3429,-4.3613,-4.3691,-4.3691,-4.3691,-4.3691,-4.3691,-4.3691,-4.3691,-4.3691,-2.3128,-2.3164,-2.3164,-2.3164,-2.3164,-2.3176,-2.32,-2.3225,-2.3406,-2.3514,-2.355,-2.3756,-2.3768,-2.3828,-2.3816,-2.384,-2.384,-2.3828,-2.384,-2.384,-2.384,-2.384,-2.4,-2.432,-2.4958,-2.513,-2.5435,-2.5766,-2.7162,-2.9464,-3.1363,-3.1993,-3.4626,-3.6417,-3.6842,-3.6934,-3.7044,-3.7283,-3.7429,-3.7503,-3.7576,-3.7906,-3.8255,-3.8475,-3.8548,-3.8585,-3.8585,-3.8621,-3.864,-3.864,-3.864,-3.864,-3.864,-3.864,-3.864,-3.864,-3.864,-3.864,-3.864,-3.864,-3.864,-3.864,-3.864,-3.864,-3.864,-3.864,-3.864,-3.864,-3.864,-3.864,-3.864,-3.864,-3.864,-3.864,-3.864,-3.864,-3.864,-3.864,-3.864,-3.864,-3.864,-3.864,-3.864,-3.864,-3.864,-3.864,-3.8658,-3.8713,-3.8841,-3.897,-3.9153,-3.9428,-3.9722,-4.0088,-4.0198,-4.0235,-4.0602,-4.0879,-4.1286,-4.1807,-4.2159,-4.2621,-4.3079,-4.3448,-4.3672,-4.3691,-4.3691,-4.3691,-4.3691,-4.3691,-4.3691,-4.3691,-4.3691,-4.3691,-4.3691,-2.3514,-2.3707,-2.3707,-2.3707,-2.3707,-2.3707,-2.3683,-2.3719,-2.3731,-2.378,-2.378,-2.3828,-2.384,-2.384,-2.384,-2.384,-2.384,-2.384,-2.384,-2.384,-2.384,-2.384,-2.384,-2.4049,-2.4517,-2.497,-2.5487,-2.599,-2.7032,-2.9464,-3.1383,-3.2471,-3.5012,-3.6782,-3.7228,-3.7338,-3.7393,-3.7594,-3.7796,-3.7906,-3.7998,-3.8255,-3.8493,-3.864,-3.864,-3.864,-3.864,-3.864,-3.864,-3.864,-3.864,-3.864,-3.864,-3.864,-3.864,-3.864,-3.864,-3.864,-3.864,-3.864,-3.864,-3.864,-3.864,-3.864,-3.864,-3.864,-3.864,-3.864,-3.864,-3.864,-3.864,-3.864,-3.864,-3.864,-3.864,-3.864,-3.864,-3.864,-3.864,-3.864,-3.864,-3.864,-3.864,-3.8658,-3.8713,-3.875,-3.8786,-3.897,-3.9171,-3.93,-3.9428,-3.9758,-4.0125,-4.0492,-4.0822,-4.0822,-4.095,-4.1063,-4.1341,-4.1677,-4.2197,-4.2716,-4.3214,-4.338,-4.3546,-4.3546,-4.3711,-4.3711,-4.3711,-4.3711,-4.3711,-4.3691,-4.3691,-4.3691,-4.3691,-2.3731,-2.384,-2.384,-2.384,-2.384,-2.384,-2.384,-2.384,-2.384,-2.384,-2.384,-2.384,-2.384,-2.384,-2.384,-2.384,-2.384,-2.384,-2.384,-2.384,-2.384,-2.384,-2.3888,-2.4134,-2.469,-2.5397,-2.5957,-2.6265,-2.6959,-3.0242,-3.1763,-3.283,-3.5414,-3.7338,-3.7649,-3.7723,-3.7851,-3.8016,-3.8218,-3.8328,-3.8328,-3.8566,-3.8621,-3.864,-3.864,-3.864,-3.864,-3.864,-3.864,-3.864,-3.864,-3.864,-3.864,-3.864,-3.864,-3.864,-3.864,-3.864,-3.864,-3.864,-3.864,-3.864,-3.864,-3.864,-3.864,-3.864,-3.864,-3.864,-3.864,-3.864,-3.864,-3.864,-3.864,-3.864,-3.864,-3.864,-3.864,-3.864,-3.864,-3.864,-3.864,-3.864,-3.864,-3.8695,-3.8768,-3.8841,-3.8915,-3.919,-3.9502,-3.9667,-3.9813,-4.0107,-4.0455,-4.0694,-4.1005,-4.1042,-4.106,-4.1229,-4.1229,-4.1714,-4.1882,-4.2383,-4.255,-4.2902,-4.3048,-4.3214,-4.338,-4.338,-4.3546,-4.3711,-4.3711,-4.3691,-4.3691,-4.3691,-4.3691,-2.384,-2.384,-2.384,-2.384,-2.384,-2.384,-2.384,-2.384,-2.384,-2.384,-2.384,-2.384,-2.384,-2.384,-2.384,-2.384,-2.384,-2.384,-2.384,-2.3864,-2.3925,-2.3937,-2.3997,-2.4652,-2.5138,-2.5677,-2.6221,-2.6548,-2.7472,-3.043,-3.2047,-3.3236,-3.5799,-3.7431,-3.7565,-3.7813,-3.8225,-3.8018,-3.8481,-3.864,-3.864,-3.864,-3.864,-3.864,-3.864,-3.864,-3.864,-3.864,-3.864,-3.864,-3.864,-3.864,-3.864,-3.864,-3.864,-3.864,-3.864,-3.864,-3.864,-3.864,-3.864,-3.864,-3.864,-3.864,-3.864,-3.864,-3.864,-3.864,-3.864,-3.864,-3.864,-3.864,-3.864,-3.864,-3.864,-3.864,-3.864,-3.864,-3.864,-3.864,-3.864,-3.8676,-3.8695,-3.886,-3.897,-3.9116,-3.9208,-3.9593,-3.9887,-4.0125,-4.0308,-4.0547,-4.0785,-4.0914,-4.106,-4.1042,-4.106,-4.106,-4.1229,-4.1378,-4.1546,-4.1863,-4.2049,-4.2383,-4.2383,-4.2716,-4.2882,-4.3234,-4.3546,-4.3711,-4.3711,-4.3691,-4.3691,-4.3691,-4.3691,-2.384,-2.384,-2.384,-2.384,-2.384,-2.384,-2.384,-2.384,-2.384,-2.384,-2.384,-2.384,-2.384,-2.384,-2.384,-2.384,-2.3852,-2.3876,-2.3888,-2.3925,-2.4094,-2.419,-2.4226,-2.496,-2.54,-2.5804,-2.6198,-2.6491,-2.7321,-3.0364,-3.2235,-3.2906,-3.5237,-3.7324,-3.6303,-3.7153,-3.7755,-3.6815,-3.7809,-3.864,-3.864,-3.864,-3.864,-3.864,-3.864,-3.864,-3.864,-3.864,-3.864,-3.864,-3.864,-3.864,-3.864,-3.864,-3.864,-3.864,-3.864,-3.864,-3.864,-3.864,-3.864,-3.864,-3.864,-3.864,-3.864,-3.864,-3.864,-3.864,-3.864,-3.864,-3.864,-3.864,-3.864,-3.864,-3.864,-3.864,-3.864,-3.8658,-3.8658,-3.8768,-3.8805,-3.8786,-3.8786,-3.9006,-3.919,-3.9336,-3.9538,-3.9942,-4.0253,-4.0473,-4.062,-4.0822,-4.0895,-4.1024,-4.106,-4.106,-4.106,-4.106,-4.1229,-4.1229,-4.1378,-4.1546,-4.1528,-4.1882,-4.203,-4.2383,-4.2716,-4.3048,-4.3546,-4.3711,-4.3691,-4.3691,-4.3691,-4.3691,-4.3691,-2.384,-2.384,-2.384,-2.384,-2.384,-2.384,-2.384,-2.384,-2.384,-2.384,-2.384,-2.384,-2.384,-2.3852,-2.384,-2.384,-2.3876,-2.3997,-2.4069,-2.4118,-2.4323,-2.4456,-2.4528,-2.4887,-2.5367,-2.5762,-2.6104,-2.623,-2.7416,-2.9198,-3.1078,-3.1629,-3.3791,-3.5003,-3.4522,-3.5187,-3.5833,-3.6333,-3.7649,-3.8481,-3.864,-3.864,-3.864,-3.864,-3.864,-3.864,-3.864,-3.864,-3.864,-3.864,-3.864,-3.864,-3.864,-3.864,-3.864,-3.864,-3.864,-3.864,-3.864,-3.864,-3.864,-3.864,-3.864,-3.864,-3.864,-3.864,-3.864,-3.864,-3.864,-3.864,-3.864,-3.864,-3.864,-3.864,-3.864,-3.864,-3.864,-3.8658,-3.8695,-3.8841,-3.9006,-3.908,-3.9135,-3.9263,-3.9557,-3.9868,-4.0052,-4.0327,-4.0602,-4.0804,-4.0914,-4.0987,-4.1024,-4.106,-4.106,-4.106,-4.106,-4.106,-4.106,-4.1229,-4.1229,-4.1378,-4.1378,-4.1546,-4.1714,-4.2049,-4.2569,-4.2902,-4.3048,-4.338,-4.3691,-4.3691,-4.3691,-4.3691,-4.3691,-2.384,-2.384,-2.384,-2.384,-2.384,-2.384,-2.384,-2.384,-2.384,-2.384,-2.384,-2.3852,-2.3876,-2.3937,-2.3973,-2.4009,-2.4069,-2.4238,-2.4311,-2.442,-2.4576,-2.4721,-2.4818,-2.5167,-2.5469,-2.5793,-2.5954,-2.6211,-2.6732,-2.7901,-2.9202,-2.9926,-3.2499,-3.3038,-3.2905,-3.356,-3.4376,-3.6155,-3.7649,-3.8481,-3.864,-3.864,-3.864,-3.864,-3.864,-3.864,-3.864,-3.864,-3.864,-3.864,-3.864,-3.864,-3.864,-3.864,-3.864,-3.864,-3.864,-3.864,-3.864,-3.864,-3.864,-3.864,-3.864,-3.864,-3.864,-3.864,-3.864,-3.864,-3.864,-3.864,-3.864,-3.864,-3.864,-3.864,-3.864,-3.864,-3.8676,-3.8805,-3.8915,-3.9043,-3.9281,-3.963,-3.9667,-3.963,-3.9887,-4.0345,-4.0602,-4.0749,-4.0895,-4.1024,-4.1042,-4.106,-4.106,-4.106,-4.106,-4.106,-4.106,-4.106,-4.106,-4.106,-4.1229,-4.1229,-4.1229,-4.1397,-4.1378,-4.1882,-4.2402,-4.2569,-4.2735,-4.338,-4.3691,-4.3691,-4.3691,-4.3691,-4.3691,-2.384,-2.384,-2.384,-2.384,-2.384,-2.384,-2.384,-2.384,-2.384,-2.3852,-2.3888,-2.3864,-2.4009,-2.4154,-2.4226,-2.4323,-2.454,-2.4589,-2.4601,-2.4697,-2.4854,-2.4987,-2.5083,-2.5555,-2.5871,-2.5871,-2.5921,-2.5933,-2.6103,-2.6443,-2.7928,-2.9397,-3.1076,-3.1422,-3.1918,-3.2577,-3.4213,-3.5994,-3.7649,-3.8481,-3.864,-3.864,-3.864,-3.864,-3.864,-3.864,-3.864,-3.864,-3.864,-3.864,-3.864,-3.864,-3.864,-3.864,-3.864,-3.864,-3.864,-3.864,-3.864,-3.864,-3.864,-3.864,-3.864,-3.864,-3.864,-3.864,-3.864,-3.864,-3.864,-3.864,-3.864,-3.864,-3.864,-3.8676,-3.8713,-3.8786,-3.8896,-3.9116,-3.9226,-3.93,-3.9575,-3.9978,-4.0235,-4.0217,-4.0217,-4.062,-4.0767,-4.0932,-4.095,-4.106,-4.106,-4.106,-4.106,-4.106,-4.106,-4.106,-4.106,-4.106,-4.106,-4.106,-4.106,-4.106,-4.106,-4.1229,-4.1378,-4.19,-4.2235,-4.2569,-4.2902,-4.338,-4.3691,-4.3691,-4.3691,-4.3691,-4.3691,-2.384,-2.384,-2.384,-2.384,-2.384,-2.384,-2.384,-2.384,-2.3852,-2.3949,-2.4082,-2.4094,-2.4226,-2.442,-2.448,-2.4516,-2.4649,-2.483,-2.4866,-2.4975,-2.5132,-2.5264,-2.5337,-2.5531,-2.5592,-2.5604,-2.5604,-2.5604,-2.5592,-2.5775,-2.6443,-2.7941,-2.9272,-2.9286,-2.9955,-3.2083,-3.4197,-3.5994,-3.749,-3.864,-3.864,-3.864,-3.864,-3.864,-3.864,-3.864,-3.864,-3.864,-3.864,-3.864,-3.864,-3.864,-3.864,-3.864,-3.864,-3.864,-3.864,-3.864,-3.864,-3.864,-3.864,-3.864,-3.864,-3.864,-3.864,-3.864,-3.864,-3.864,-3.864,-3.864,-3.864,-3.864,-3.8658,-3.8695,-3.8823,-3.8951,-3.9153,-3.941,-3.9648,-3.9777,-4.0052,-4.0382,-4.062,-4.0804,-4.0804,-4.0877,-4.0987,-4.106,-4.106,-4.106,-4.106,-4.106,-4.106,-4.106,-4.106,-4.106,-4.106,-4.106,-4.106,-4.106,-4.106,-4.106,-4.106,-4.1229,-4.1397,-4.1733,-4.2068,-4.2402,-4.2902,-4.3546,-4.3691,-4.3691,-4.3691,-4.3691,-4.3691,-2.384,-2.384,-2.384,-2.384,-2.384,-2.384,-2.384,-2.3864,-2.3937,-2.4106,-2.4347,-2.4359,-2.4504,-2.4685,-2.4745,-2.483,-2.4927,-2.5071,-2.5144,-2.5228,-2.5325,-2.5433,-2.5433,-2.5433,-2.5433,-2.5433,-2.5433,-2.5433,-2.5433,-2.5433,-2.6116,-2.6783,-2.7135,-2.7643,-2.8964,-3.1587,-3.4034,-3.5349,-3.7312,-3.8481,-3.864,-3.864,-3.864,-3.864,-3.864,-3.864,-3.864,-3.864,-3.864,-3.864,-3.864,-3.864,-3.864,-3.864,-3.864,-3.864,-3.864,-3.864,-3.864,-3.864,-3.864,-3.864,-3.864,-3.864,-3.864,-3.864,-3.864,-3.864,-3.864,-3.864,-3.8658,-3.875,-3.886,-3.897,-3.9263,-3.9428,-3.9557,-3.9777,-4.0052,-4.029,-4.0547,-4.073,-4.0804,-4.0969,-4.0969,-4.0969,-4.1005,-4.106,-4.106,-4.106,-4.106,-4.106,-4.106,-4.106,-4.106,-4.106,-4.106,-4.106,-4.106,-4.106,-4.106,-4.106,-4.106,-4.1229,-4.1397,-4.1733,-4.2068,-4.2569,-4.3048,-4.3546,-4.3691,-4.3691,-4.3691,-4.3691,-4.3691,-2.384,-2.384,-2.3852,-2.3864,-2.3876,-2.3852,-2.3864,-2.3925,-2.413,-2.4371,-2.4601,-2.4625,-2.477,-2.4987,-2.5035,-2.512,-2.5264,-2.5361,-2.5385,-2.5397,-2.5397,-2.5433,-2.5433,-2.5433,-2.5433,-2.5433,-2.5433,-2.5433,-2.5433,-2.5433,-2.5945,-2.6626,-2.7135,-2.763,-2.846,-3.1587,-3.3397,-3.405,-3.7152,-3.8304,-3.864,-3.864,-3.864,-3.864,-3.864,-3.864,-3.864,-3.864,-3.864,-3.864,-3.864,-3.864,-3.864,-3.864,-3.864,-3.864,-3.864,-3.864,-3.864,-3.864,-3.864,-3.864,-3.864,-3.864,-3.864,-3.864,-3.864,-3.864,-3.864,-3.8658,-3.8786,-3.8951,-3.908,-3.9318,-3.963,-3.985,-3.9978,-4.018,-4.0473,-4.062,-4.084,-4.1042,-4.1042,-4.106,-4.1042,-4.106,-4.106,-4.106,-4.106,-4.106,-4.106,-4.106,-4.106,-4.106,-4.106,-4.106,-4.106,-4.106,-4.106,-4.106,-4.106,-4.106,-4.106,-4.106,-4.1397,-4.1565,-4.2235,-4.2735,-4.3214,-4.3691,-4.3691,-4.3691,-4.3691,-4.3691,-4.3691,-2.384,-2.3864,-2.4033,-2.4106,-2.4106,-2.4106,-2.4106,-2.4154,-2.4383,-2.4649,-2.4866,-2.4902,-2.5047,-2.524,-2.5301,-2.5349,-2.5409,-2.5433,-2.5433,-2.5433,-2.5433,-2.5433,-2.5433,-2.5433,-2.5433,-2.5433,-2.5433,-2.5433,-2.5433,-2.5433,-2.5945,-2.6626,-2.7304,-2.8628,-3.0122,-3.2412,-3.3871,-3.5349,-3.7312,-3.864,-3.864,-3.864,-3.864,-3.864,-3.864,-3.864,-3.864,-3.864,-3.864,-3.864,-3.864,-3.864,-3.864,-3.864,-3.864,-3.864,-3.864,-3.864,-3.864,-3.864,-3.864,-3.864,-3.864,-3.864,-3.864,-3.864,-3.864,-3.8658,-3.8695,-3.8786,-3.9025,-3.9116,-3.93,-3.9667,-3.996,-4.018,-4.0363,-4.0657,-4.0895,-4.0914,-4.1042,-4.106,-4.106,-4.106,-4.106,-4.106,-4.106,-4.106,-4.106,-4.106,-4.106,-4.106,-4.106,-4.106,-4.106,-4.106,-4.106,-4.106,-4.106,-4.106,-4.106,-4.106,-4.106,-4.106,-4.1229,-4.1565,-4.2235,-4.2882,-4.338,-4.3691,-4.3691,-4.3691,-4.3691,-4.3691,-4.3691,-2.39,-2.3997,-2.4166,-2.4287,-2.4359,-2.4371,-2.442,-2.4528,-2.4709,-2.4927,-2.5144,-2.518,-2.5264,-2.5397,-2.5433,-2.5433,-2.5433,-2.5433,-2.5433,-2.5433,-2.5433,-2.5433,-2.5433,-2.5433,-2.5433,-2.5433,-2.5433,-2.5433,-2.5433,-2.5433,-2.5945,-2.6783,-2.7643,-2.8305,-3.0122,-3.1918,-3.3887,-3.5349,-3.6832,-3.864,-3.864,-3.864,-3.864,-3.864,-3.864,-3.864,-3.864,-3.864,-3.864,-3.864,-3.864,-3.864,-3.864,-3.864,-3.864,-3.864,-3.864,-3.864,-3.864,-3.864,-3.864,-3.864,-3.864,-3.864,-3.864,-3.864,-3.8768,-3.8805,-3.8823,-3.908,-3.9355,-3.9428,-3.974,-4.0125,-4.0327,-4.0565,-4.0694,-4.0969,-4.1005,-4.1042,-4.106,-4.106,-4.106,-4.106,-4.106,-4.106,-4.106,-4.106,-4.106,-4.106,-4.106,-4.106,-4.106,-4.106,-4.106,-4.106,-4.106,-4.106,-4.106,-4.106,-4.106,-4.106,-4.106,-4.106,-4.1229,-4.1565,-4.2235,-4.2882,-4.338,-4.3691,-4.3691,-4.3691,-4.3691,-4.3691,-4.3691,-2.4009,-2.4226,-2.4263,-2.442,-2.4613,-2.4673,-2.4818,-2.5047,-2.5047,-2.5204,-2.5421,-2.5409,-2.5421,-2.5433,-2.5433,-2.5433,-2.5433,-2.5433,-2.5433,-2.5433,-2.5433,-2.5433,-2.5433,-2.5433,-2.5433,-2.5433,-2.5433,-2.5433,-2.5433,-2.5604,-2.5933,-2.6613,-2.7304,-2.7981,-2.9453,-3.1587,-3.3233,-3.4701,-3.6832,-3.8322,-3.864,-3.864,-3.864,-3.864,-3.864,-3.864,-3.864,-3.864,-3.864,-3.864,-3.864,-3.864,-3.864,-3.864,-3.864,-3.864,-3.864,-3.864,-3.8658,-3.8658,-3.875,-3.8786,-3.8805,-3.8713,-3.8731,-3.8841,-3.9043,-3.919,-3.9263,-3.952,-3.9758,-4.0052,-4.0327,-4.0584,-4.0785,-4.0914,-4.0969,-4.106,-4.106,-4.106,-4.106,-4.106,-4.106,-4.106,-4.106,-4.106,-4.106,-4.106,-4.106,-4.106,-4.106,-4.106,-4.106,-4.106,-4.106,-4.106,-4.106,-4.106,-4.106,-4.106,-4.106,-4.106,-4.106,-4.106,-4.106,-4.1565,-4.2235,-4.2882,-4.3546,-4.3691,-4.3691,-4.3691,-4.3691,-4.3691,-4.3691,-2.4275,-2.4528,-2.4733,-2.4854,-2.4951,-2.512,-2.5252,-2.5325,-2.5325,-2.5385,-2.5433,-2.5433,-2.5433,-2.5433,-2.5433,-2.5433,-2.5433,-2.5433,-2.5433,-2.5433,-2.5433,-2.5433,-2.5433,-2.5433,-2.5433,-2.5433,-2.5433,-2.5433,-2.5433,-2.5604,-2.6103,-2.6783,-2.7135,-2.7643,-2.9132,-3.1587,-3.2741,-3.4213,-3.6832,-3.8145,-3.864,-3.864,-3.864,-3.864,-3.864,-3.864,-3.864,-3.864,-3.864,-3.864,-3.864,-3.864,-3.864,-3.864,-3.864,-3.864,-3.864,-3.864,-3.8695,-3.8896,-3.9061,-3.9135,-3.93,-3.9263,-3.9245,-3.9281,-3.9483,-3.9593,-3.9685,-3.9887,-4.0143,-4.0437,-4.0657,-4.084,-4.0987,-4.1024,-4.106,-4.106,-4.106,-4.106,-4.106,-4.106,-4.106,-4.106,-4.106,-4.106,-4.106,-4.106,-4.106,-4.106,-4.106,-4.106,-4.106,-4.106,-4.106,-4.106,-4.106,-4.106,-4.106,-4.106,-4.106,-4.106,-4.106,-4.1229,-4.1229,-4.1733,-4.2235,-4.2882,-4.338,-4.3711,-4.3691,-4.3691,-4.3691,-4.3691,-4.3691,-2.454,-2.4794,-2.4975,-2.5108,-2.5216,-2.5373,-2.5433,-2.5433,-2.5433,-2.5433,-2.5433,-2.5433,-2.5433,-2.5433,-2.5433,-2.5433,-2.5433,-2.5433,-2.5433,-2.5433,-2.5433,-2.5433,-2.5433,-2.5433,-2.5433,-2.5433,-2.5433,-2.5446,-2.5433,-2.5604,-2.6116,-2.6783,-2.7135,-2.7643,-2.8964,-3.1437,-3.3069,-3.4538,-3.6351,-3.8145,-3.864,-3.864,-3.864,-3.864,-3.864,-3.864,-3.864,-3.864,-3.864,-3.864,-3.864,-3.864,-3.864,-3.864,-3.864,-3.864,-3.864,-3.8768,-3.8896,-3.908,-3.9281,-3.952,-3.985,-3.9905,-3.9813,-3.9777,-3.9923,-4.0033,-4.0107,-4.0217,-4.0492,-4.073,-4.0877,-4.1024,-4.1042,-4.106,-4.106,-4.106,-4.106,-4.106,-4.106,-4.106,-4.106,-4.106,-4.106,-4.106,-4.106,-4.106,-4.106,-4.106,-4.106,-4.106,-4.106,-4.106,-4.106,-4.106,-4.106,-4.106,-4.106,-4.106,-4.106,-4.106,-4.106,-4.1229,-4.1378,-4.1882,-4.2235,-4.2735,-4.3234,-4.3546,-4.3691,-4.3691,-4.3691,-4.3691,-4.3691,-2.4818,-2.5071,-2.5071,-2.5216,-2.5421,-2.5433,-2.5433,-2.5433,-2.5433,-2.5433,-2.5433,-2.5433,-2.5433,-2.5433,-2.5433,-2.5433,-2.5433,-2.5433,-2.5433,-2.5433,-2.5433,-2.5433,-2.5433,-2.5433,-2.5433,-2.5433,-2.5433,-2.5433,-2.5433,-2.5604,-2.6103,-2.6783,-2.6965,-2.7474,-2.8642,-3.1768,-3.3397,-3.405,-3.6351,-3.864,-3.864,-3.864,-3.864,-3.864,-3.864,-3.864,-3.864,-3.864,-3.864,-3.864,-3.864,-3.864,-3.864,-3.864,-3.864,-3.8695,-3.8731,-3.8896,-3.9153,-3.9373,-3.963,-3.9923,-4.0272,-4.0418,-4.0363,-4.0272,-4.0363,-4.0455,-4.0529,-4.0602,-4.0804,-4.0895,-4.0987,-4.1042,-4.106,-4.106,-4.106,-4.106,-4.106,-4.106,-4.106,-4.106,-4.106,-4.106,-4.106,-4.106,-4.106,-4.106,-4.106,-4.106,-4.106,-4.106,-4.106,-4.106,-4.106,-4.106,-4.106,-4.106,-4.106,-4.106,-4.106,-4.106,-4.106,-4.1229,-4.1378,-4.19,-4.2235,-4.2735,-4.3068,-4.3546,-4.3691,-4.3691,-4.3691,-4.3691,-4.3691,-2.5096,-2.5337,-2.5337,-2.5385,-2.5433,-2.5433,-2.5433,-2.5433,-2.5433,-2.5433,-2.5433,-2.5433,-2.5433,-2.5433,-2.5433,-2.5433,-2.5433,-2.5433,-2.5433,-2.5433,-2.5433,-2.5433,-2.5433,-2.5433,-2.5433,-2.5433,-2.5433,-2.5433,-2.5433,-2.5775,-2.6103,-2.6796,-2.6965,-2.7474,-2.8473,-3.1602,-3.3397,-3.3724,-3.6672,-3.8481,-3.864,-3.864,-3.864,-3.864,-3.864,-3.864,-3.864,-3.864,-3.864,-3.864,-3.864,-3.864,-3.864,-3.864,-3.864,-3.8695,-3.8915,-3.9116,-3.9428,-3.9758,-4.0107,-4.0327,-4.062,-4.0822,-4.0877,-4.0804,-4.0785,-4.0859,-4.0914,-4.0987,-4.1024,-4.1042,-4.106,-4.106,-4.106,-4.106,-4.106,-4.106,-4.106,-4.106,-4.106,-4.106,-4.106,-4.106,-4.106,-4.106,-4.106,-4.106,-4.106,-4.106,-4.106,-4.106,-4.106,-4.106,-4.106,-4.106,-4.106,-4.106,-4.106,-4.106,-4.106,-4.106,-4.106,-4.106,-4.1229,-4.1733,-4.2068,-4.2402,-4.2716,-4.338,-4.3546,-4.338,-4.3546,-4.3546,-4.3711,-2.5301,-2.5433,-2.5433,-2.5433,-2.5433,-2.5433,-2.5433,-2.5433,-2.5433,-2.5433,-2.5433,-2.5433,-2.5433,-2.5433,-2.5433,-2.5433,-2.5433,-2.5433,-2.5433,-2.5433,-2.5433,-2.5433,-2.5433,-2.5433,-2.5433,-2.5433,-2.5433,-2.5433,-2.5433,-2.5604,-2.5933,-2.6796,-2.7135,-2.7643,-2.8642,-3.1437,-3.3397,-3.356,-3.6832,-3.8304,-3.864,-3.864,-3.864,-3.864,-3.864,-3.864,-3.864,-3.864,-3.864,-3.864,-3.864,-3.864,-3.864,-3.864,-3.875,-3.8915,-3.9135,-3.9392,-3.9777,-4.0162,-4.0565,-4.073,-4.0859,-4.1005,-4.1024,-4.0932,-4.0932,-4.0987,-4.0987,-4.1042,-4.1042,-4.106,-4.106,-4.106,-4.106,-4.106,-4.106,-4.106,-4.106,-4.106,-4.106,-4.106,-4.106,-4.106,-4.106,-4.106,-4.106,-4.106,-4.106,-4.106,-4.106,-4.106,-4.106,-4.106,-4.106,-4.106,-4.106,-4.106,-4.106,-4.106,-4.106,-4.106,-4.106,-4.106,-4.1229,-4.1378,-4.1714,-4.2049,-4.2402,-4.2716,-4.3048,-4.3048,-4.3214,-4.3546,-4.3546,-2.5433,-2.5433,-2.5433,-2.5433,-2.5433,-2.5433,-2.5433,-2.5433,-2.5433,-2.5433,-2.5433,-2.5433,-2.5433,-2.5433,-2.5433,-2.5433,-2.5433,-2.5433,-2.5433,-2.5433,-2.5433,-2.5433,-2.5433,-2.5433,-2.5433,-2.5433,-2.5433,-2.5433,-2.5446,-2.5604,-2.6103,-2.6613,-2.6953,-2.7292,-2.895,-3.1256,-3.3397,-3.4213,-3.6351,-3.8304,-3.864,-3.864,-3.864,-3.864,-3.864,-3.864,-3.864,-3.864,-3.864,-3.864,-3.864,-3.864,-3.864,-3.8658,-3.8896,-3.9061,-3.9318,-3.974,-4.0217,-4.0473,-4.0749,-4.095,-4.1042,-4.106,-4.106,-4.106,-4.106,-4.106,-4.106,-4.106,-4.106,-4.106,-4.106,-4.106,-4.106,-4.106,-4.106,-4.106,-4.106,-4.106,-4.106,-4.106,-4.106,-4.106,-4.106,-4.106,-4.106,-4.106,-4.106,-4.106,-4.106,-4.106,-4.106,-4.106,-4.106,-4.106,-4.106,-4.106,-4.106,-4.106,-4.106,-4.106,-4.106,-4.106,-4.1229,-4.1378,-4.1546,-4.1882,-4.2049,-4.2402,-4.2569,-4.2902,-4.3068,-4.3234,-4.338,-2.5433,-2.5433,-2.5433,-2.5433,-2.5433,-2.5433,-2.5433,-2.5433,-2.5433,-2.5433,-2.5433,-2.5433,-2.5433,-2.5433,-2.5433,-2.5433,-2.5433,-2.5433,-2.5433,-2.5433,-2.5433,-2.5433,-2.5433,-2.5433,-2.5433,-2.5433,-2.5433,-2.5433,-2.5433,-2.5775,-2.6273,-2.6783,-2.7135,-2.7799,-2.8628,-3.1105,-3.356,-3.4538,-3.6351,-3.864,-3.864,-3.864,-3.864,-3.864,-3.864,-3.864,-3.864,-3.864,-3.864,-3.864,-3.864,-3.864,-3.8658,-3.8713,-3.8951,-3.93,-3.9538,-3.9997,-4.0437,-4.073,-4.0969,-4.1005,-4.106,-4.106,-4.106,-4.106,-4.106,-4.106,-4.106,-4.106,-4.106,-4.106,-4.106,-4.106,-4.106,-4.106,-4.106,-4.106,-4.106,-4.106,-4.106,-4.106,-4.106,-4.106,-4.106,-4.106,-4.106,-4.106,-4.106,-4.106,-4.106,-4.106,-4.106,-4.106,-4.106,-4.106,-4.106,-4.106,-4.106,-4.106,-4.106,-4.106,-4.106,-4.106,-4.1229,-4.1229,-4.1378,-4.1546,-4.1882,-4.2068,-4.2402,-4.2569,-4.2902,-4.3068,-4.3234]}]]